ftp/pub/palmer/observations_modified/2019/August/original_files/AR190808_BASE.txt
Download
Sample DateTime Unit Id WS Avg 2min WD Avg 2min WGS 10min WGD 10min Air Temp Rel Humidity Dew Point Pyranometer Quantum Air Pressure Snow Level Rainfall PW Current Visibility CBase 1 CBase 2 CBase 3 Vert Vis
2019/08/08 00:00:00 BASE 14.09 202 20.01 207 -5.6 60 -12.2 0 0 979.8 NA 0.0000 9999 0 0 0 0
2019/08/08 00:01:00 BASE 15.15 208 20.01 207 -5.6 60 -12.2 0 0 979.8 NA 0.0000 9999 0 0 0 0
2019/08/08 00:02:00 BASE 15.88 209 18.42 198 -5.6 60 -12.2 0 0 979.8 NA 0.0000 9999 0 0 0 0
2019/08/08 00:03:00 BASE 15.36 205 18.42 198 -5.6 60 -12.2 0 0 979.9 NA 0.0000 9999 0 0 0 0
2019/08/08 00:04:00 BASE 15.11 204 18.42 198 -5.6 60 -12.2 0 0 979.9 NA 0.0000 9999 0 0 0 0
2019/08/08 00:05:00 BASE 15.87 205 18.42 198 -5.6 59 -12.3 0 0 979.9 NA 0.0000 9999 0 0 0 0
2019/08/08 00:06:00 BASE 15.70 203 18.42 198 -5.6 59 -12.3 0 0 979.9 NA 0.0000 9999 0 0 0 0
2019/08/08 00:07:00 BASE 15.22 201 17.80 207 -5.6 59 -12.4 0 0 979.9 NA 0.0000 9999 0 0 0 0
2019/08/08 00:08:00 BASE 15.65 203 17.85 200 -5.6 59 -12.3 0 0 979.9 NA 0.0000 9999 0 0 0 0
2019/08/08 00:09:00 BASE 15.73 202 17.85 200 -5.5 59 -12.3 0 0 980.0 NA 0.0000 9999 0 0 0 0
2019/08/08 00:10:00 BASE 15.81 208 18.88 217 -5.5 60 -12.2 0 0 980.1 NA 0.0000 9999 0 0 0 0
2019/08/08 00:11:00 BASE 15.27 215 18.88 217 -5.5 60 -12.0 0 0 980.1 NA 0.0000 9999 0 0 0 0
2019/08/08 00:12:00 BASE 14.27 214 18.88 217 -5.6 61 -11.9 0 0 980.2 NA 0.0000 9999 0 0 0 0
2019/08/08 00:13:00 BASE 14.55 210 18.88 217 -5.6 62 -11.7 0 0 980.2 NA 0.0000 9999 0 0 0 0
2019/08/08 00:14:00 BASE 15.25 207 18.88 217 -5.6 63 -11.6 0 0 980.2 NA 0.0000 9999 0 0 0 0
2019/08/08 00:15:00 BASE 15.30 201 18.88 217 -5.6 63 -11.5 0 0 980.2 NA 0.0000 9999 0 0 0 0
2019/08/08 00:16:00 BASE 14.38 201 18.88 217 -5.7 63 -11.5 0 0 980.2 NA 0.0000 9999 0 0 0 0
2019/08/08 00:17:00 BASE 13.74 212 18.88 217 -5.6 63 -11.5 0 0 980.3 NA 0.0000 9999 0 0 0 0
2019/08/08 00:18:00 BASE 13.80 213 18.88 217 -5.6 63 -11.5 0 0 980.3 NA 0.0000 9999 0 0 0 0
2019/08/08 00:19:00 BASE 14.53 212 18.88 217 -5.6 64 -11.3 0 0 980.3 NA 0.0000 9999 0 0 0 0
2019/08/08 00:20:00 BASE 15.33 216 17.65 219 -5.6 65 -11.1 0 0 980.4 NA 0.0000 9999 0 0 0 0
2019/08/08 00:21:00 BASE 16.17 216 17.65 219 -5.5 66 -10.9 0 0 980.4 NA 0.0000 9999 0 0 0 0
2019/08/08 00:22:00 BASE 15.87 218 17.65 219 -5.6 67 -10.6 0 0 980.4 NA 0.0000 9999 0 0 0 0
2019/08/08 00:23:00 BASE 14.56 221 17.65 219 -5.6 68 -10.5 0 0 980.4 NA 0.0000 9999 0 0 0 0
2019/08/08 00:24:00 BASE 13.61 218 17.65 219 -5.6 69 -10.4 0 0 980.4 NA 0.0000 9999 0 0 0 0
2019/08/08 00:25:00 BASE 12.72 213 17.65 219 -5.6 69 -10.3 0 0 980.4 NA 0.0000 9999 0 0 0 0
2019/08/08 00:26:00 BASE 12.56 211 17.65 219 -5.6 70 -10.2 0 0 980.4 NA 0.0000 9999 2230 0 0 0
2019/08/08 00:27:00 BASE 13.98 211 17.39 215 -5.5 71 -10.0 0 0 980.4 NA 0.0000 9999 2430 0 0 0
2019/08/08 00:28:00 BASE 15.39 217 17.39 215 -5.5 71 -9.9 0 0 980.4 NA 0.0000 9999 2360 0 0 0
2019/08/08 00:29:00 BASE 15.73 219 17.39 215 -5.5 72 -9.8 0 0 980.3 NA 0.0000 9999 2260 0 0 0
2019/08/08 00:30:00 BASE 15.17 217 17.39 215 -5.6 72 -9.7 0 0 980.4 NA 0.0000 9999 2200 0 0 0
2019/08/08 00:31:00 BASE 15.21 215 17.29 218 -5.6 73 -9.7 0 0 980.4 NA 0.0000 9999 2260 0 0 0
2019/08/08 00:32:00 BASE 15.32 209 17.29 218 -5.6 73 -9.6 0 0 980.3 NA 0.0000 9999 2070 0 0 0
2019/08/08 00:33:00 BASE 14.50 206 17.29 218 -5.6 74 -9.6 0 0 980.4 NA 0.0000 9999 2260 0 0 0
2019/08/08 00:34:00 BASE 13.73 210 17.29 218 -5.6 74 -9.6 0 0 980.4 NA 0.0000 9999 2070 0 0 0
2019/08/08 00:35:00 BASE 13.31 213 17.29 218 -5.6 74 -9.5 0 0 980.4 NA 0.0000 9999 2000 0 0 0
2019/08/08 00:36:00 BASE 13.47 215 17.29 218 -5.6 74 -9.5 0 0 980.4 NA 0.0000 9999 2000 0 0 0
2019/08/08 00:37:00 BASE 15.03 216 18.62 220 -5.6 74 -9.4 0 0 980.3 NA 0.0000 9999 2000 0 0 0
2019/08/08 00:38:00 BASE 16.07 213 18.62 220 -5.6 75 -9.4 0 0 980.3 NA 0.0000 9999 2100 0 0 0
2019/08/08 00:39:00 BASE 14.97 212 18.62 220 -5.5 75 -9.3 0 0 980.4 NA 0.0000 9999 0 0 0 0
2019/08/08 00:40:00 BASE 15.29 219 18.62 220 -5.5 75 -9.2 0 0 980.4 NA 0.0000 9999 2030 0 0 0
2019/08/08 00:41:00 BASE 16.41 221 18.62 220 -5.6 76 -9.2 0 0 980.4 NA 0.0000 9999 2030 0 0 0
2019/08/08 00:42:00 BASE 16.00 216 18.62 220 -5.6 76 -9.2 0 0 980.4 NA 0.0000 9999 2030 0 0 0
2019/08/08 00:43:00 BASE 15.02 211 18.62 220 -5.6 76 -9.1 0 0 980.4 NA 0.0000 9999 0 0 0 0
2019/08/08 00:44:00 BASE 14.87 214 18.62 220 -5.7 77 -9.1 0 0 980.4 NA 0.0000 9999 0 0 0 0
2019/08/08 00:45:00 BASE 15.95 213 18.73 215 -5.7 77 -9.1 0 0 980.4 NA 0.0000 9999 0 0 0 0
2019/08/08 00:46:00 BASE 15.70 210 18.73 215 -5.7 77 -9.1 0 0 980.4 NA 0.0000 9999 2030 0 0 0
2019/08/08 00:47:00 BASE 14.29 219 18.73 215 -5.7 77 -9.1 0 0 980.5 NA 0.0000 9999 0 0 0 0
2019/08/08 00:48:00 BASE 14.08 226 18.73 215 -5.7 77 -9.0 0 0 980.5 NA 0.0000 9999 1970 0 0 0
2019/08/08 00:49:00 BASE 14.47 227 18.73 215 -5.6 77 -9.0 0 0 980.5 NA 0.0000 9999 1800 0 0 0
2019/08/08 00:50:00 BASE 14.96 226 18.73 215 -5.6 78 -8.9 0 0 980.6 NA 0.0000 9999 1800 0 0 0
2019/08/08 00:51:00 BASE 14.70 226 18.73 215 -5.6 78 -8.8 0 0 980.6 NA 0.0000 9999 1870 0 0 0
2019/08/08 00:52:00 BASE 15.20 228 18.88 224 -5.6 78 -8.8 0 0 980.6 NA 0.0000 9999 1770 0 0 0
2019/08/08 00:53:00 BASE 16.05 227 18.88 224 -5.7 79 -8.7 0 0 980.6 NA 0.0000 9999 0 0 0 0
2019/08/08 00:54:00 BASE 15.56 227 18.88 224 -5.7 79 -8.7 0 0 980.6 NA 0.0000 9999 1770 0 0 0
2019/08/08 00:55:00 BASE 15.63 227 18.88 224 -5.7 80 -8.7 0 0 980.6 NA 0.0000 9999 1740 0 0 0
2019/08/08 00:56:00 BASE 16.28 226 19.91 228 -5.8 80 -8.7 0 0 980.6 NA 0.0000 9999 1840 0 0 0
2019/08/08 00:57:00 BASE 16.09 227 19.91 228 -5.8 80 -8.6 0 0 980.6 NA 0.0000 9999 1800 0 0 0
2019/08/08 00:58:00 BASE 15.63 227 19.91 228 -5.8 81 -8.6 0 0 980.6 NA 0.0000 9999 1870 0 0 0
2019/08/08 00:59:00 BASE 16.32 223 19.91 228 -5.8 81 -8.6 0 0 980.6 NA 0.0000 9999 0 0 0 0
2019/08/08 01:00:00 BASE 16.73 219 19.91 228 -5.8 81 -8.5 0 0 980.6 NA 0.0000 9999 0 0 0 0
2019/08/08 01:01:00 BASE 16.80 218 19.91 228 -5.9 81 -8.5 0 0 980.6 NA 0.0000 9999 0 0 0 0
2019/08/08 01:02:00 BASE 17.62 223 19.91 228 -5.9 82 -8.5 0 0 980.6 NA 0.0000 9999 0 0 0 0
2019/08/08 01:03:00 BASE 17.56 224 19.91 228 -5.9 82 -8.5 0 0 980.6 NA 0.0000 9999 0 0 0 0
2019/08/08 01:04:00 BASE 16.72 225 19.91 228 -5.9 82 -8.4 0 0 980.7 NA 0.0000 9999 0 0 0 0
2019/08/08 01:05:00 BASE 16.95 225 20.17 220 -5.9 82 -8.4 0 0 980.6 NA 0.0000 9999 0 0 0 0
2019/08/08 01:06:00 BASE 18.13 221 21.81 219 -5.9 82 -8.4 0 0 980.6 NA 0.0000 9999 0 0 0 0
2019/08/08 01:07:00 BASE 17.99 224 21.81 219 -5.9 83 -8.4 0 0 980.7 NA 0.0000 9999 1800 0 0 0
2019/08/08 01:08:00 BASE 17.29 228 21.81 219 -5.9 83 -8.3 0 0 980.7 NA 0.0000 9999 1710 0 0 0
2019/08/08 01:09:00 BASE 17.31 225 21.81 219 -5.9 83 -8.3 0 0 980.7 NA 0.0000 9999 1640 0 0 0
2019/08/08 01:10:00 BASE 16.63 221 21.81 219 -5.9 83 -8.3 0 0 980.8 NA 0.0000 9999 1670 0 0 0
2019/08/08 01:11:00 BASE 16.33 220 21.81 219 -5.9 83 -8.3 0 0 980.8 NA 0.0000 9999 0 0 0 0
2019/08/08 01:12:00 BASE 17.14 220 21.81 219 -5.9 83 -8.3 0 0 980.8 NA 0.0000 9999 0 0 0 0
2019/08/08 01:13:00 BASE 17.94 220 21.81 219 -5.9 83 -8.3 0 0 980.8 NA 0.0000 9999 0 0 0 0
2019/08/08 01:14:00 BASE 17.86 218 21.81 219 -5.9 84 -8.2 0 0 980.7 NA 0.0000 9999 0 0 0 0
2019/08/08 01:15:00 BASE 17.42 219 21.81 219 -6.0 84 -8.3 0 0 980.7 NA 0.0000 9999 0 0 0 0
2019/08/08 01:16:00 BASE 17.81 220 21.20 220 -6.0 84 -8.2 0 0 980.8 NA 0.0000 9999 0 0 0 0
2019/08/08 01:17:00 BASE 17.53 218 21.20 220 -6.0 84 -8.3 0 0 980.8 NA 0.0000 9999 0 0 0 0
2019/08/08 01:18:00 BASE 17.33 223 21.20 220 -6.0 84 -8.3 0 0 980.9 NA 0.0000 9999 0 0 0 0
2019/08/08 01:19:00 BASE 17.32 226 21.20 220 -6.0 84 -8.3 0 0 980.9 NA 0.0000 9999 0 0 0 0
2019/08/08 01:20:00 BASE 18.02 225 21.20 220 -6.0 84 -8.3 0 0 980.9 NA 0.0000 9999 1740 0 0 0
2019/08/08 01:21:00 BASE 18.08 226 21.20 220 -6.0 84 -8.3 0 0 981.0 NA 0.0000 9999 1710 0 0 0
2019/08/08 01:22:00 BASE 17.16 230 21.20 220 -6.0 84 -8.3 0 0 980.9 NA 0.0000 9999 1510 0 0 0
2019/08/08 01:23:00 BASE 16.66 233 21.20 220 -6.0 84 -8.2 0 0 981.0 NA 0.0000 9999 1510 0 0 0
2019/08/08 01:24:00 BASE 15.45 229 21.20 220 -6.0 84 -8.2 0 0 981.0 NA 0.0000 9999 1610 0 0 0
2019/08/08 01:25:00 BASE 16.36 229 21.86 233 -6.0 84 -8.2 0 0 980.9 NA 0.0000 9999 1640 0 0 0
2019/08/08 01:26:00 BASE 18.13 230 21.86 233 -6.0 85 -8.2 0 0 980.9 NA 0.0000 9999 1640 0 0 0
2019/08/08 01:27:00 BASE 16.87 231 21.86 233 -6.0 85 -8.2 0 0 980.9 NA 0.0000 9999 0 0 0 0
2019/08/08 01:28:00 BASE 16.87 230 21.86 233 -6.1 85 -8.2 0 0 980.9 NA 0.0000 9999 0 0 0 0
2019/08/08 01:29:00 BASE 18.36 224 21.86 233 -6.1 85 -8.2 0 0 980.9 NA 0.0000 9999 1770 0 0 0
2019/08/08 01:30:00 BASE 17.63 225 21.86 233 -6.1 85 -8.2 0 0 980.9 NA 0.0000 9999 0 0 0 0
2019/08/08 01:31:00 BASE 16.50 230 21.86 233 -6.1 85 -8.2 0 0 980.9 NA 0.0000 9999 0 0 0 0
2019/08/08 01:32:00 BASE 18.65 230 22.94 229 -6.1 85 -8.3 0 0 980.8 NA 0.0000 9999 0 0 0 0
2019/08/08 01:33:00 BASE 20.29 229 22.94 229 -6.2 85 -8.3 0 0 980.8 NA 0.0000 9999 0 0 0 0
2019/08/08 01:34:00 BASE 17.91 229 22.94 229 -6.2 85 -8.3 0 0 980.9 NA 0.0000 9999 0 0 0 0
2019/08/08 01:35:00 BASE 16.94 232 22.94 229 -6.2 85 -8.3 0 0 980.8 NA 0.0000 9999 0 0 0 0
2019/08/08 01:36:00 BASE 18.16 234 22.94 229 -6.3 86 -8.3 0 0 980.8 NA 0.0000 9999 0 0 0 0
2019/08/08 01:37:00 BASE 20.35 230 24.49 225 -6.3 86 -8.3 0 0 980.7 NA 0.0000 9999 0 0 0 0
2019/08/08 01:38:00 BASE 22.39 230 24.49 225 -6.3 86 -8.2 0 0 980.7 NA 0.0000 9999 1840 0 0 0
2019/08/08 01:39:00 BASE 21.64 229 24.49 225 -6.3 86 -8.3 0 0 980.7 NA 0.0000 9999 0 0 0 0
2019/08/08 01:40:00 BASE 19.87 231 24.49 225 -6.4 86 -8.3 0 0 980.8 NA 0.0000 9999 0 0 0 0
2019/08/08 01:41:00 BASE 20.32 231 24.49 225 -6.4 86 -8.3 0 0 980.7 NA 0.0000 9999 0 0 0 0
2019/08/08 01:42:00 BASE 21.18 229 24.49 225 -6.4 86 -8.4 0 0 980.7 NA 0.0000 9999 0 0 0 0
2019/08/08 01:43:00 BASE 20.23 230 24.49 225 -6.4 86 -8.4 0 0 980.8 NA 0.0000 9999 0 0 0 0
2019/08/08 01:44:00 BASE 18.98 228 24.49 225 -6.4 86 -8.3 0 0 980.8 NA 0.0000 9999 0 0 0 0
2019/08/08 01:45:00 BASE 19.63 223 24.49 225 -6.4 86 -8.3 0 0 980.8 NA 0.0000 9999 0 0 0 0
2019/08/08 01:46:00 BASE 20.32 225 24.49 225 -6.4 86 -8.3 0 0 980.8 NA 0.0000 9999 0 0 0 0
2019/08/08 01:47:00 BASE 20.22 226 24.18 231 -6.3 86 -8.3 0 0 980.8 NA 0.0000 9999 0 0 0 0
2019/08/08 01:48:00 BASE 19.82 226 23.20 227 -6.3 86 -8.3 0 0 980.9 NA 0.0000 9999 0 0 0 0
2019/08/08 01:49:00 BASE 19.34 229 23.20 227 -6.3 86 -8.3 0 0 980.9 NA 0.0000 9999 0 0 0 0
2019/08/08 01:50:00 BASE 18.66 229 23.20 227 -6.3 86 -8.3 0 0 981.0 NA 0.0000 9999 0 0 0 0
2019/08/08 01:51:00 BASE 18.95 227 22.94 231 -6.3 86 -8.3 0 0 981.0 NA 0.0000 9999 0 0 0 0
2019/08/08 01:52:00 BASE 19.00 227 21.92 225 -6.3 86 -8.3 0 0 981.1 NA 0.0000 9999 0 0 0 0
2019/08/08 01:53:00 BASE 16.59 232 21.92 225 -6.3 86 -8.3 0 0 981.1 NA 0.0000 9999 0 0 0 0
2019/08/08 01:54:00 BASE 16.01 233 21.92 225 -6.3 86 -8.3 0 0 981.1 NA 0.0000 9999 0 0 0 0
2019/08/08 01:55:00 BASE 17.85 230 21.92 225 -6.3 86 -8.3 0 0 981.1 NA 0.0000 9999 0 0 0 0
2019/08/08 01:56:00 BASE 18.15 229 21.92 225 -6.3 86 -8.3 0 0 981.2 NA 0.0000 9999 0 0 0 0
2019/08/08 01:57:00 BASE 17.15 235 21.40 225 -6.4 86 -8.3 0 0 981.1 NA 0.0000 9999 0 0 0 0
2019/08/08 01:58:00 BASE 18.04 235 21.40 225 -6.4 86 -8.3 0 0 981.1 NA 0.0000 9999 0 0 0 0
2019/08/08 01:59:00 BASE 19.70 226 21.40 225 -6.4 86 -8.3 0 0 981.1 NA 0.0000 9999 0 0 0 0
2019/08/08 02:00:00 BASE 20.25 223 21.40 225 -6.5 86 -8.4 0 0 981.0 NA 0.0000 9999 0 0 0 0
2019/08/08 02:01:00 BASE 20.31 224 21.61 223 -6.5 86 -8.4 0 0 981.0 NA 0.0000 9999 0 0 0 0
2019/08/08 02:02:00 BASE 19.71 227 21.61 223 -6.5 86 -8.5 0 0 981.1 NA 0.0000 9999 0 0 0 0
2019/08/08 02:03:00 BASE 18.78 228 21.61 223 -6.5 86 -8.5 0 0 981.0 NA 0.0000 9999 0 0 0 0
2019/08/08 02:04:00 BASE 18.77 228 21.61 223 -6.5 86 -8.5 0 0 981.0 NA 0.0000 9999 0 0 0 0
2019/08/08 02:05:00 BASE 18.77 226 21.61 223 -6.5 85 -8.5 0 0 981.0 NA 0.0000 9999 0 0 0 0
2019/08/08 02:06:00 BASE 17.34 222 21.61 223 -6.5 85 -8.5 0 0 981.1 NA 0.0000 9999 0 0 0 0
2019/08/08 02:07:00 BASE 17.51 220 21.61 223 -6.4 85 -8.5 0 0 981.1 NA 0.0000 9999 0 0 0 0
2019/08/08 02:08:00 BASE 18.90 219 21.61 223 -6.4 85 -8.5 0 0 981.1 NA 0.0000 9999 0 0 0 0
2019/08/08 02:09:00 BASE 18.79 217 21.61 223 -6.4 85 -8.5 0 0 981.1 NA 0.0000 9999 0 0 0 0
2019/08/08 02:10:00 BASE 18.10 219 21.61 223 -6.4 85 -8.5 0 0 981.1 NA 0.0000 9999 0 0 0 0
2019/08/08 02:11:00 BASE 16.70 223 20.78 219 -6.4 85 -8.5 0 0 981.2 NA 0.0000 9999 1840 0 0 0
2019/08/08 02:12:00 BASE 17.43 224 20.78 219 -6.4 85 -8.5 0 0 981.1 NA 0.0000 9999 0 0 0 0
2019/08/08 02:13:00 BASE 18.58 220 20.78 219 -6.4 85 -8.5 0 0 981.2 NA 0.0000 9999 0 0 0 0
2019/08/08 02:14:00 BASE 17.20 218 20.78 219 -6.4 85 -8.4 0 0 981.2 NA 0.0000 9999 0 0 0 0
2019/08/08 02:15:00 BASE 17.35 220 20.78 219 -6.3 85 -8.4 0 0 981.2 NA 0.0000 9999 0 0 0 0
2019/08/08 02:16:00 BASE 18.03 222 20.78 219 -6.4 86 -8.4 0 0 981.3 NA 0.0000 9999 0 0 0 0
2019/08/08 02:17:00 BASE 17.66 224 20.32 226 -6.4 86 -8.4 0 0 981.4 NA 0.0000 9999 0 0 0 0
2019/08/08 02:18:00 BASE 17.36 227 20.32 226 -6.4 86 -8.3 0 0 981.4 NA 0.0000 9999 0 0 0 0
2019/08/08 02:19:00 BASE 16.78 228 20.32 226 -6.4 86 -8.4 0 0 981.5 NA 0.0000 9999 0 0 0 0
2019/08/08 02:20:00 BASE 16.95 229 20.32 226 -6.4 86 -8.4 0 0 981.5 NA 0.0000 9999 0 0 0 0
2019/08/08 02:21:00 BASE 16.68 230 20.32 226 -6.5 86 -8.4 0 0 981.6 NA 0.0000 9999 0 0 0 0
2019/08/08 02:22:00 BASE 15.99 230 19.70 222 -6.5 86 -8.4 0 0 981.6 NA 0.0000 9999 0 0 0 0
2019/08/08 02:23:00 BASE 16.28 224 19.70 222 -6.5 86 -8.4 0 0 981.6 NA 0.0000 9999 0 0 0 0
2019/08/08 02:24:00 BASE 15.91 222 19.70 222 -6.5 86 -8.4 0 0 981.6 NA 0.0000 9999 0 0 0 0
2019/08/08 02:25:00 BASE 15.70 225 18.93 219 -6.5 86 -8.4 0 0 981.6 NA 0.0000 9999 0 0 0 0
2019/08/08 02:26:00 BASE 16.13 230 18.88 228 -6.5 86 -8.4 0 0 981.6 NA 0.0000 9999 0 0 0 0
2019/08/08 02:27:00 BASE 15.64 234 18.88 228 -6.5 86 -8.4 0 0 981.6 NA 0.0000 9999 0 0 0 0
2019/08/08 02:28:00 BASE 14.07 234 18.88 228 -6.5 86 -8.4 0 0 981.6 NA 0.0000 9999 0 0 0 0
2019/08/08 02:29:00 BASE 14.56 232 19.34 234 -6.5 86 -8.4 0 0 981.6 NA 0.0000 9999 0 0 0 0
2019/08/08 02:30:00 BASE 16.30 228 19.34 234 -6.5 86 -8.4 0 0 981.6 NA 0.0000 9999 0 0 0 0
2019/08/08 02:31:00 BASE 16.40 228 19.34 234 -6.5 86 -8.5 0 0 981.6 NA 0.0000 9999 1710 0 0 0
2019/08/08 02:32:00 BASE 16.60 228 19.34 234 -6.5 86 -8.5 0 0 981.6 NA 0.0000 9999 1770 0 0 0
2019/08/08 02:33:00 BASE 16.26 228 19.34 234 -6.5 86 -8.5 0 0 981.6 NA 0.0000 9999 0 0 0 0
2019/08/08 02:34:00 BASE 15.75 225 19.34 234 -6.6 86 -8.5 0 0 981.6 NA 0.0000 9999 0 0 0 0
2019/08/08 02:35:00 BASE 16.42 225 19.34 234 -6.6 86 -8.5 0 0 981.6 NA 0.0000 9999 1740 0 0 0
2019/08/08 02:36:00 BASE 16.80 226 19.34 234 -6.6 86 -8.5 0 0 981.6 NA 0.0000 9999 1870 0 0 0
2019/08/08 02:37:00 BASE 16.06 228 19.34 234 -6.5 86 -8.5 0 0 981.6 NA 0.0000 9999 1900 0 0 0
2019/08/08 02:38:00 BASE 15.60 226 19.34 234 -6.5 86 -8.5 0 0 981.6 NA 0.0000 9999 1770 0 0 0
2019/08/08 02:39:00 BASE 16.00 221 18.93 231 -6.6 86 -8.5 0 0 981.6 NA 0.0000 9999 1800 0 0 0
2019/08/08 02:40:00 BASE 16.00 219 18.93 231 -6.6 86 -8.5 0 0 981.6 NA 0.0000 9999 1870 0 0 0
2019/08/08 02:41:00 BASE 15.54 221 18.93 231 -6.6 86 -8.5 0 0 981.7 NA 0.0000 9999 1800 0 0 0
2019/08/08 02:42:00 BASE 14.99 225 18.93 231 -6.6 86 -8.6 0 0 981.7 NA 0.0000 9999 1970 0 0 0
2019/08/08 02:43:00 BASE 14.38 225 18.93 231 -6.6 85 -8.6 0 0 981.7 NA 0.0000 9999 0 0 0 0
2019/08/08 02:44:00 BASE 13.85 225 18.93 231 -6.6 85 -8.6 0 0 981.7 NA 0.0000 9999 1800 0 0 0
2019/08/08 02:45:00 BASE 14.20 222 18.21 226 -6.6 85 -8.6 0 0 981.7 NA 0.0000 9999 1670 0 0 0
2019/08/08 02:46:00 BASE 15.42 222 18.78 221 -6.5 85 -8.6 0 0 981.7 NA 0.0000 9999 1770 0 0 0
2019/08/08 02:47:00 BASE 14.34 224 18.78 221 -6.6 85 -8.6 0 0 981.7 NA 0.0000 9999 1940 0 0 0
2019/08/08 02:48:00 BASE 13.49 227 18.78 221 -6.6 85 -8.6 0 0 981.7 NA 0.0000 9999 0 0 0 0
2019/08/08 02:49:00 BASE 15.15 228 18.78 221 -6.6 86 -8.6 0 0 981.7 NA 0.0000 9999 1900 0 0 0
2019/08/08 02:50:00 BASE 16.18 226 18.78 221 -6.6 85 -8.6 0 0 981.7 NA 0.0000 9999 0 0 0 0
2019/08/08 02:51:00 BASE 16.36 225 18.78 221 -6.6 85 -8.7 0 0 981.7 NA 0.0000 9999 0 0 0 0
2019/08/08 02:52:00 BASE 15.84 221 18.78 221 -6.6 85 -8.7 0 0 981.7 NA 0.0000 9999 0 0 0 0
2019/08/08 02:53:00 BASE 15.65 216 18.78 221 -6.6 85 -8.7 0 0 981.7 NA 0.0000 9999 1870 0 0 0
2019/08/08 02:54:00 BASE 16.06 214 18.78 221 -6.6 85 -8.7 0 0 981.7 NA 0.0000 9999 1970 0 0 0
2019/08/08 02:55:00 BASE 16.50 220 18.78 221 -6.6 85 -8.7 0 0 981.7 NA 0.0000 9999 1900 0 0 0
2019/08/08 02:56:00 BASE 15.76 220 18.57 221 -6.6 85 -8.7 0 0 981.7 NA 0.0000 9999 1940 0 0 0
2019/08/08 02:57:00 BASE 14.43 215 18.57 221 -6.6 85 -8.7 0 0 981.7 NA 0.0000 9999 1800 0 0 0
2019/08/08 02:58:00 BASE 14.83 216 18.57 221 -6.6 85 -8.7 0 0 981.7 NA 0.0000 9999 1800 0 0 0
2019/08/08 02:59:00 BASE 16.27 217 18.57 221 -6.5 85 -8.6 0 0 981.7 NA 0.0000 9999 1940 0 0 0
2019/08/08 03:00:00 BASE 15.93 218 18.57 221 -6.6 85 -8.7 0 0 981.7 NA 0.0000 9999 2030 0 0 0
2019/08/08 03:01:00 BASE 15.29 218 18.57 221 -6.6 85 -8.7 0 0 981.7 NA 0.0000 9999 2560 0 0 0
2019/08/08 03:02:00 BASE 16.21 217 18.57 221 -6.6 85 -8.7 0 0 981.7 NA 0.0000 9999 2000 0 0 0
2019/08/08 03:03:00 BASE 16.70 221 18.78 228 -6.6 85 -8.7 0 0 981.7 NA 0.0000 9999 0 0 0 0
2019/08/08 03:04:00 BASE 16.23 225 18.78 228 -6.6 85 -8.7 0 0 981.7 NA 0.0000 9999 0 0 0 0
2019/08/08 03:05:00 BASE 15.63 225 18.78 228 -6.6 85 -8.7 0 0 981.8 NA 0.0000 9999 0 0 0 0
2019/08/08 03:06:00 BASE 15.28 225 18.78 228 -6.7 85 -8.8 0 0 981.8 NA 0.0000 9999 1770 0 0 0
2019/08/08 03:07:00 BASE 14.49 222 18.78 228 -6.6 85 -8.7 0 0 981.8 NA 0.0000 9999 1800 0 0 0
2019/08/08 03:08:00 BASE 14.11 219 18.78 228 -6.6 85 -8.7 0 0 981.8 NA 0.0000 9999 1840 0 0 0
2019/08/08 03:09:00 BASE 15.37 214 18.78 228 -6.6 85 -8.7 0 0 981.7 NA 0.0000 9999 1740 0 0 0
2019/08/08 03:10:00 BASE 16.09 208 18.78 228 -6.6 85 -8.7 0 0 981.7 NA 0.0000 9999 1840 0 0 0
2019/08/08 03:11:00 BASE 16.61 208 19.50 213 -6.7 85 -8.8 0 0 981.7 NA 0.0000 9999 1770 0 0 0
2019/08/08 03:12:00 BASE 17.17 212 19.50 213 -6.7 85 -8.8 0 0 981.7 NA 0.0000 9999 1840 0 0 0
2019/08/08 03:13:00 BASE 15.41 213 19.50 213 -6.7 85 -8.8 0 0 981.7 NA 0.0000 9999 0 0 0 0
2019/08/08 03:14:00 BASE 14.39 214 19.50 213 -6.7 85 -8.8 0 0 981.7 NA 0.0000 9999 1800 0 0 0
2019/08/08 03:15:00 BASE 15.60 220 19.50 213 -6.7 85 -8.8 0 0 981.7 NA 0.0000 9999 1770 0 0 0
2019/08/08 03:16:00 BASE 16.00 221 19.50 213 -6.7 85 -8.8 0 0 981.7 NA 0.0000 9999 1800 0 0 0
2019/08/08 03:17:00 BASE 15.46 217 19.50 213 -6.6 85 -8.7 0 0 981.8 NA 0.0000 9999 0 0 0 0
2019/08/08 03:18:00 BASE 15.69 215 19.50 213 -6.6 85 -8.7 0 0 981.8 NA 0.0000 9999 1740 0 0 0
2019/08/08 03:19:00 BASE 16.04 217 19.50 213 -6.6 85 -8.7 0 0 981.8 NA 0.0000 9999 1740 0 0 0
2019/08/08 03:20:00 BASE 14.72 225 19.50 213 -6.6 85 -8.7 0 0 981.8 NA 0.0000 9999 1670 0 0 0
2019/08/08 03:21:00 BASE 13.31 227 17.75 215 -6.6 86 -8.6 0 0 981.8 NA 0.0000 9999 1640 0 0 0
2019/08/08 03:22:00 BASE 14.15 221 17.44 218 -6.6 86 -8.6 0 0 981.8 NA 0.0000 9999 1800 0 0 0
2019/08/08 03:23:00 BASE 14.44 221 17.44 218 -6.6 86 -8.6 0 0 981.9 NA 0.0000 9999 1840 2330 0 0
2019/08/08 03:24:00 BASE 13.53 222 17.44 218 -6.6 86 -8.6 0 0 981.9 NA 0.0000 9999 1840 0 0 0
2019/08/08 03:25:00 BASE 13.25 223 17.44 218 -6.6 86 -8.6 0 0 981.9 NA 0.0000 9999 0 0 0 0
2019/08/08 03:26:00 BASE 13.80 225 17.44 218 -6.6 86 -8.6 0 0 982.0 NA 0.0000 9999 0 0 0 0
2019/08/08 03:27:00 BASE 15.40 226 17.54 224 -6.6 86 -8.6 0 0 982.0 NA 0.0000 9999 1740 0 0 0
2019/08/08 03:28:00 BASE 15.34 225 17.54 224 -6.7 86 -8.6 0 0 982.0 NA 0.0000 9999 1800 0 0 0
2019/08/08 03:29:00 BASE 13.38 224 17.54 224 -6.7 86 -8.6 0 0 982.0 NA 0.0000 9999 2000 0 0 0
2019/08/08 03:30:00 BASE 13.19 221 17.54 224 -6.7 87 -8.5 0 0 982.0 NA 0.0000 9999 1710 2300 0 0
2019/08/08 03:31:00 BASE 14.46 219 17.54 224 -6.7 87 -8.5 0 0 982.0 NA 0.0000 9999 1740 0 0 0
2019/08/08 03:32:00 BASE 14.61 215 17.54 224 -6.6 87 -8.5 0 0 982.0 NA 0.0000 9999 1770 0 0 0
2019/08/08 03:33:00 BASE 13.85 213 17.54 224 -6.6 87 -8.4 0 0 982.0 NA 0.0000 9999 1740 0 0 0
2019/08/08 03:34:00 BASE 13.67 214 17.54 224 -6.6 87 -8.4 0 0 982.0 NA 0.0000 9999 1770 0 0 0
2019/08/08 03:35:00 BASE 14.28 215 17.54 224 -6.6 87 -8.4 0 0 982.0 NA 0.0000 9999 1710 0 0 0
2019/08/08 03:36:00 BASE 15.32 214 17.65 212 -6.6 87 -8.4 0 0 981.9 NA 0.0000 9999 1800 0 0 0
2019/08/08 03:37:00 BASE 15.44 219 17.65 212 -6.6 87 -8.4 0 0 981.9 NA 0.0000 9999 1770 0 0 0
2019/08/08 03:38:00 BASE 14.87 221 17.65 212 -6.6 87 -8.4 0 0 982.0 NA 0.0000 9999 1670 0 0 0
2019/08/08 03:39:00 BASE 14.61 215 17.65 212 -6.6 87 -8.5 0 0 982.0 NA 0.0000 9999 1640 0 0 0
2019/08/08 03:40:00 BASE 15.00 216 17.65 212 -6.6 86 -8.5 0 0 982.0 NA 0.0000 9999 1710 0 0 0
2019/08/08 03:41:00 BASE 15.16 221 17.65 212 -6.6 86 -8.5 0 0 982.0 NA 0.0000 9999 1970 0 0 0
2019/08/08 03:42:00 BASE 14.24 226 17.65 212 -6.7 86 -8.5 0 0 982.0 NA 0.0000 9999 1740 0 0 0
2019/08/08 03:43:00 BASE 14.15 228 17.65 212 -6.7 87 -8.5 0 0 981.9 NA 0.0000 9999 1670 0 0 0
2019/08/08 03:44:00 BASE 14.68 222 17.65 212 -6.7 87 -8.5 0 0 981.9 NA 0.0000 9999 1770 0 0 0
2019/08/08 03:45:00 BASE 16.23 219 18.98 217 -6.6 87 -8.4 0 0 981.9 NA 0.0000 9999 1670 0 0 0
2019/08/08 03:46:00 BASE 16.83 223 18.98 217 -6.6 87 -8.4 0 0 981.9 NA 0.0000 9999 1840 0 0 0
2019/08/08 03:47:00 BASE 16.10 224 18.98 217 -6.6 87 -8.4 0 0 981.9 NA 0.0000 9999 1940 0 0 0
2019/08/08 03:48:00 BASE 15.61 226 18.98 217 -6.7 87 -8.5 0 0 981.9 NA 0.0000 9999 1570 0 0 0
2019/08/08 03:49:00 BASE 14.56 225 18.98 217 -6.7 87 -8.5 0 0 982.0 NA 0.0000 9999 0 0 0 0
2019/08/08 03:50:00 BASE 14.45 224 18.98 217 -6.7 87 -8.5 0 0 981.9 NA 0.0000 9999 1640 0 0 0
2019/08/08 03:51:00 BASE 15.61 223 18.98 217 -6.7 87 -8.5 0 0 981.9 NA 0.0000 9999 1740 0 0 0
2019/08/08 03:52:00 BASE 15.24 221 18.98 217 -6.7 87 -8.5 0 0 981.9 NA 0.0000 9999 1710 0 0 0
2019/08/08 03:53:00 BASE 14.12 222 18.98 217 -6.7 87 -8.5 0 0 981.9 NA 0.0000 9999 1800 0 0 0
2019/08/08 03:54:00 BASE 15.07 222 18.98 217 -6.7 87 -8.5 0 0 981.9 NA 0.0000 9999 0 0 0 0
2019/08/08 03:55:00 BASE 15.95 218 18.31 219 -6.8 87 -8.6 0 0 981.9 NA 0.0000 9999 0 0 0 0
2019/08/08 03:56:00 BASE 15.93 217 18.31 219 -6.8 87 -8.6 0 0 981.9 NA 0.0000 9999 1770 0 0 0
2019/08/08 03:57:00 BASE 15.87 221 18.31 219 -6.8 87 -8.6 0 0 981.9 NA 0.0000 9999 0 0 0 0
2019/08/08 03:58:00 BASE 14.82 221 18.31 219 -6.8 87 -8.6 0 0 982.0 NA 0.0000 9999 0 0 0 0
2019/08/08 03:59:00 BASE 14.79 220 18.31 219 -6.8 87 -8.6 0 0 982.0 NA 0.0000 9999 1840 0 0 0
2019/08/08 04:00:00 BASE 15.75 225 18.31 219 -6.8 87 -8.6 0 0 982.0 NA 0.0000 9999 1800 0 0 0
2019/08/08 04:01:00 BASE 14.76 222 18.31 219 -6.8 87 -8.6 0 0 982.0 NA 0.0000 9999 2030 0 0 0
2019/08/08 04:03:00 BASE 15.53 219 18.31 219 -6.8 87 -8.6 0 0 982.0 NA 0.0000 9999 1710 0 0 0
2019/08/08 04:04:00 BASE 16.13 219 18.31 219 -6.7 87 -8.6 0 0 982.0 NA 0.0000 9999 1770 0 0 0
2019/08/08 04:05:00 BASE 15.42 216 17.85 219 -6.7 86 -8.6 0 0 982.0 NA 0.0000 9999 1800 0 0 0
2019/08/08 04:06:00 BASE 14.49 217 17.85 219 -6.8 86 -8.7 0 0 982.1 NA 0.0000 9999 1710 0 0 0
2019/08/08 04:07:00 BASE 13.13 220 17.85 219 -6.8 86 -8.7 0 0 982.1 NA 0.0000 9999 1640 0 0 0
2019/08/08 04:08:00 BASE 12.98 220 17.85 219 -6.8 86 -8.7 0 0 982.1 NA 0.0000 9999 1800 0 0 0
2019/08/08 04:09:00 BASE 13.33 215 17.85 219 -6.7 86 -8.6 0 0 982.1 NA 0.0000 9999 1740 2300 0 0
2019/08/08 04:10:00 BASE 12.47 214 17.85 219 -6.7 87 -8.6 0 0 982.1 NA 0.0000 9999 2100 0 0 0
2019/08/08 04:11:00 BASE 12.17 221 17.85 219 -6.7 87 -8.6 0 0 982.2 NA 0.0000 9999 1770 0 0 0
2019/08/08 04:12:00 BASE 12.89 224 17.85 219 -6.7 87 -8.5 0 0 982.1 NA 0.0000 9999 1740 0 0 0
2019/08/08 04:13:00 BASE 14.17 224 17.03 207 -6.7 87 -8.5 0 0 982.1 NA 0.0000 9999 1770 0 0 0
2019/08/08 04:14:00 BASE 14.55 227 16.82 223 -6.7 87 -8.5 0 0 982.2 NA 0.0000 9999 1770 0 0 0
2019/08/08 04:15:00 BASE 14.45 229 16.82 223 -6.7 87 -8.5 0 0 982.1 NA 0.0000 9999 1800 0 0 0
2019/08/08 04:16:00 BASE 14.38 226 16.82 223 -6.6 87 -8.4 0 0 982.2 NA 0.0000 9999 1900 0 0 0
2019/08/08 04:17:00 BASE 13.52 225 16.82 223 -6.7 87 -8.5 0 0 982.2 NA 0.0000 9999 1770 0 0 0
2019/08/08 04:18:00 BASE 13.37 229 16.82 223 -6.7 87 -8.5 0 0 982.2 NA 0.0000 9999 1970 0 0 0
2019/08/08 04:19:00 BASE 13.42 233 16.82 223 -6.7 87 -8.5 0 0 982.3 NA 0.0000 9999 1740 0 0 0
2019/08/08 04:20:00 BASE 12.70 231 16.82 223 -6.7 87 -8.5 0 0 982.3 NA 0.0000 9999 1640 0 0 0
2019/08/08 04:21:00 BASE 12.06 230 16.82 223 -6.7 86 -8.6 0 0 982.3 NA 0.0000 9999 1570 0 0 0
2019/08/08 04:22:00 BASE 11.99 232 16.82 223 -6.7 86 -8.6 0 0 982.3 NA 0.0000 9999 1640 0 0 0
2019/08/08 04:23:00 BASE 11.98 229 16.62 222 -6.6 86 -8.6 0 0 982.3 NA 0.0000 9999 1670 0 0 0
2019/08/08 04:24:00 BASE 11.66 225 16.62 222 -6.6 86 -8.5 0 0 982.3 NA 0.0000 9999 1670 0 0 0
2019/08/08 04:25:00 BASE 11.89 219 16.20 225 -6.6 86 -8.5 0 0 982.3 NA 0.0000 9999 1670 0 0 0
2019/08/08 04:26:00 BASE 13.21 214 16.20 225 -6.6 87 -8.5 0 0 982.3 NA 0.0000 9999 1740 0 0 0
2019/08/08 04:27:00 BASE 13.18 215 16.00 216 -6.7 87 -8.5 0 0 982.3 NA 0.0000 9999 1710 0 0 0
2019/08/08 04:28:00 BASE 12.52 220 16.00 216 -6.7 87 -8.5 0 0 982.3 NA 0.0000 9999 1740 0 0 0
2019/08/08 04:29:00 BASE 13.28 222 16.00 216 -6.7 87 -8.5 0 0 982.3 NA 0.0000 9999 1640 0 0 0
2019/08/08 04:30:00 BASE 13.76 225 16.00 216 -6.7 87 -8.5 0 0 982.3 NA 0.0000 9999 1710 0 0 0
2019/08/08 04:31:00 BASE 12.23 223 16.00 216 -6.7 87 -8.5 0 0 982.3 NA 0.0000 9999 1670 0 0 0
2019/08/08 04:32:00 BASE 11.37 222 16.00 216 -6.6 87 -8.4 0 0 982.4 NA 0.0000 9999 1640 0 0 0
2019/08/08 04:33:00 BASE 12.17 220 16.00 216 -6.6 87 -8.4 0 0 982.3 NA 0.0000 9999 1710 0 0 0
2019/08/08 04:34:00 BASE 12.80 214 16.00 216 -6.6 87 -8.4 0 0 982.3 NA 0.0000 9999 1670 0 0 0
2019/08/08 04:35:00 BASE 12.41 214 16.00 216 -6.6 87 -8.4 0 0 982.4 NA 0.0000 9999 1740 0 0 0
2019/08/08 04:36:00 BASE 12.67 222 15.23 219 -6.7 87 -8.5 0 0 982.4 NA 0.0000 9999 1710 0 0 0
2019/08/08 04:37:00 BASE 13.82 224 15.23 219 -6.7 87 -8.5 0 0 982.4 NA 0.0000 9999 1670 0 0 0
2019/08/08 04:38:00 BASE 13.60 223 15.23 219 -6.7 87 -8.5 0 0 982.4 NA 0.0000 9999 1710 0 0 0
2019/08/08 04:39:00 BASE 13.49 228 15.02 230 -6.7 87 -8.5 0 0 982.4 NA 0.0000 9999 1770 0 0 0
2019/08/08 04:40:00 BASE 11.83 235 15.02 230 -6.8 87 -8.6 0 0 982.5 NA 0.0000 9999 1740 0 0 0
2019/08/08 04:41:00 BASE 10.17 236 15.02 230 -6.8 87 -8.6 0 0 982.5 NA 0.0000 9999 1770 0 0 0
2019/08/08 04:42:00 BASE 11.14 229 15.02 230 -6.7 87 -8.6 0 0 982.5 NA 0.0000 9999 1670 0 0 0
2019/08/08 04:43:00 BASE 12.00 231 15.02 230 -6.7 87 -8.6 0 0 982.5 NA 0.0000 9999 1710 0 0 0
2019/08/08 04:44:00 BASE 11.20 238 15.02 230 -6.7 86 -8.6 0 0 982.6 NA 0.0000 9999 1740 0 0 0
2019/08/08 04:45:00 BASE 10.88 235 15.02 230 -6.7 87 -8.5 0 0 982.6 NA 0.0000 9999 1740 0 0 0
2019/08/08 04:46:00 BASE 11.41 229 15.02 230 -6.7 87 -8.5 0 0 982.6 NA 0.0000 9999 1740 0 0 0
2019/08/08 04:47:00 BASE 11.46 231 15.02 230 -6.7 87 -8.5 0 0 982.6 NA 0.0000 9999 1740 0 0 0
2019/08/08 04:48:00 BASE 12.35 230 15.02 230 -6.7 87 -8.5 0 0 982.6 NA 0.0000 9999 1770 0 0 0
2019/08/08 04:49:00 BASE 12.40 223 14.82 232 -6.7 87 -8.5 0 0 982.6 NA 0.0000 9999 1900 0 0 0
2019/08/08 04:50:01 BASE 11.79 225 14.82 232 -6.7 87 -8.5 0 0 982.6 NA 0.0000 9999 1640 0 0 0
2019/08/08 04:51:00 BASE 11.44 230 14.82 232 -6.8 87 -8.6 0 0 982.6 NA 0.0000 9999 1710 0 0 0
2019/08/08 04:52:00 BASE 11.69 233 14.82 232 -6.8 87 -8.6 0 0 982.6 NA 0.0000 9999 1610 0 0 0
2019/08/08 04:53:00 BASE 12.43 234 14.82 232 -6.8 87 -8.6 0 0 982.6 NA 0.0000 9999 1670 0 0 0
2019/08/08 04:54:00 BASE 11.87 236 14.82 232 -6.8 87 -8.6 0 0 982.7 NA 0.0000 9999 1940 0 0 0
2019/08/08 04:55:01 BASE 11.73 231 14.82 232 -6.8 87 -8.6 0 0 982.6 NA 0.0000 9999 1840 0 0 0
2019/08/08 04:56:00 BASE 12.49 225 14.82 232 -6.8 87 -8.6 0 0 982.6 NA 0.0000 9999 1800 0 0 0
2019/08/08 04:57:00 BASE 11.41 222 14.51 228 -6.8 87 -8.7 0 0 982.7 NA 0.0000 9999 1800 0 0 0
2019/08/08 04:58:00 BASE 9.69 223 14.51 228 -6.8 86 -8.7 0 0 982.7 NA 0.0000 9999 1800 0 0 0
2019/08/08 04:59:00 BASE 9.05 230 14.51 228 -6.8 86 -8.7 0 0 982.7 NA 0.0000 9999 1570 0 0 0
2019/08/08 05:00:00 BASE 11.50 225 15.28 225 -6.8 86 -8.8 0 0 982.6 NA 0.0000 9999 1570 0 0 0
2019/08/08 05:01:00 BASE 14.12 218 15.90 221 -6.8 86 -8.7 0 0 982.6 NA 0.0000 9999 1610 0 0 0
2019/08/08 05:02:00 BASE 13.91 220 15.90 221 -6.8 86 -8.6 0 0 982.6 NA 0.0000 9999 1640 0 0 0
2019/08/08 05:03:00 BASE 13.19 223 15.90 221 -6.7 87 -8.6 0 0 982.7 NA 0.0000 9999 1610 0 0 0
2019/08/08 05:04:00 BASE 12.07 229 15.90 221 -6.7 87 -8.5 0 0 982.7 NA 0.0000 9999 1640 0 0 0
2019/08/08 05:05:00 BASE 11.97 226 15.90 221 -6.7 87 -8.5 0 0 982.7 NA 0.0000 9999 1640 0 0 0
2019/08/08 05:06:00 BASE 12.20 226 15.90 221 -6.7 87 -8.5 0 0 982.7 NA 0.0000 9999 1570 0 0 0
2019/08/08 05:07:00 BASE 11.84 229 15.90 221 -6.7 87 -8.5 0 0 982.8 NA 0.0000 9999 1640 0 0 0
2019/08/08 05:08:00 BASE 12.05 224 15.90 221 -6.7 87 -8.5 0 0 982.8 NA 0.0000 9999 1610 0 0 0
2019/08/08 05:09:00 BASE 12.73 222 15.90 221 -6.7 87 -8.5 0 0 982.7 NA 0.0000 9999 1570 0 0 0
2019/08/08 05:10:00 BASE 13.49 221 15.90 221 -6.7 87 -8.5 0 0 982.8 NA 0.0000 9999 1570 0 0 0
2019/08/08 05:11:00 BASE 14.44 221 15.84 221 -6.7 88 -8.5 0 0 982.8 NA 0.0000 9999 1570 0 0 0
2019/08/08 05:12:00 BASE 14.68 227 15.84 221 -6.7 88 -8.4 0 0 982.7 NA 0.0000 9999 1670 0 0 0
2019/08/08 05:13:00 BASE 14.43 225 16.62 222 -6.8 88 -8.4 0 0 982.8 NA 0.0000 9999 1570 0 0 0
2019/08/08 05:14:00 BASE 13.68 215 16.62 222 -6.8 88 -8.4 0 0 982.8 NA 0.0000 9999 1570 0 0 0
2019/08/08 05:15:00 BASE 12.56 215 16.62 222 -6.8 88 -8.4 0 0 982.8 NA 0.0000 9999 1640 0 0 0
2019/08/08 05:16:00 BASE 12.21 221 16.62 222 -6.8 88 -8.4 0 0 982.8 NA 0.0000 9999 1640 0 0 0
2019/08/08 05:17:00 BASE 12.86 222 16.62 222 -6.8 88 -8.4 0 0 982.8 NA 0.0000 9999 1670 0 0 0
2019/08/08 05:18:00 BASE 12.34 218 16.62 222 -6.8 88 -8.4 0 0 982.8 NA 0.0000 9999 1610 0 0 0
2019/08/08 05:19:00 BASE 10.99 217 16.62 222 -6.8 88 -8.4 0 0 982.8 NA 0.0000 9999 1570 0 0 0
2019/08/08 05:20:00 BASE 11.26 220 16.62 222 -6.8 88 -8.4 0 0 982.8 NA 0.0000 9999 1570 0 0 0
2019/08/08 05:21:00 BASE 11.94 224 16.62 222 -6.8 88 -8.4 0 0 982.9 NA 0.0000 9999 1640 0 0 0
2019/08/08 05:22:00 BASE 11.27 232 16.62 222 -6.8 88 -8.4 0 0 982.9 NA 0.0000 9999 1610 0 0 0
2019/08/08 05:23:00 BASE 10.29 240 15.28 209 -6.8 88 -8.4 0 0 982.9 NA 0.0000 9999 1570 0 0 0
2019/08/08 05:24:00 BASE 10.13 240 15.28 209 -6.8 88 -8.4 0 0 982.9 NA 0.0000 9999 1510 0 0 0
2019/08/08 05:25:00 BASE 9.77 237 14.97 225 -6.8 88 -8.5 0 0 982.9 NA 0.0000 9999 1610 0 0 0
2019/08/08 05:26:00 BASE 9.88 241 14.97 225 -6.8 88 -8.5 0 0 982.9 NA 0.0000 9999 1610 0 0 0
2019/08/08 05:27:00 BASE 10.26 242 13.38 215 -6.8 88 -8.5 0 0 982.9 NA 0.0000 9999 1670 0 0 0
2019/08/08 05:28:00 BASE 10.23 238 13.38 215 -6.8 88 -8.5 0 0 982.9 NA 0.0000 9999 1800 0 0 0
2019/08/08 05:29:00 BASE 10.37 236 13.38 215 -6.8 88 -8.5 0 0 982.9 NA 0.0000 9999 1670 0 0 0
2019/08/08 05:30:00 BASE 12.03 231 15.74 225 -6.8 88 -8.5 0 0 982.9 NA 0.0000 9999 1800 0 0 0
2019/08/08 05:31:00 BASE 13.20 229 15.74 225 -6.8 88 -8.4 0 0 982.9 NA 0.0000 9999 1670 0 0 0
2019/08/08 05:32:00 BASE 12.44 228 15.74 225 -6.8 88 -8.5 0 0 982.9 NA 0.0000 9999 1640 0 0 0
2019/08/08 05:33:00 BASE 11.74 222 15.74 225 -6.8 88 -8.5 0 0 983.0 NA 0.0000 9999 1970 0 0 0
2019/08/08 05:34:00 BASE 12.79 224 15.74 225 -6.9 88 -8.5 0 0 982.9 NA 0.0000 9999 1740 0 0 0
2019/08/08 05:35:00 BASE 12.49 224 15.74 225 -6.9 88 -8.5 0 0 983.0 NA 0.0000 9999 1670 0 0 0
2019/08/08 05:36:00 BASE 10.60 221 15.74 225 -6.9 88 -8.5 0 0 983.0 NA 0.0000 9999 1640 0 0 0
2019/08/08 05:37:00 BASE 11.29 226 15.74 225 -6.9 88 -8.5 0 0 983.0 NA 0.0000 9999 1800 0 0 0
2019/08/08 05:38:00 BASE 12.97 229 15.74 225 -6.9 88 -8.5 0 0 983.0 NA 0.0000 9999 1770 0 0 0
2019/08/08 05:39:00 BASE 12.73 229 15.74 225 -6.9 88 -8.5 0 0 983.1 NA 0.0000 9999 1940 0 0 0
2019/08/08 05:40:00 BASE 11.62 228 15.33 228 -6.9 88 -8.5 0 0 983.1 NA 0.0000 9999 1870 0 0 0
2019/08/08 05:41:00 BASE 10.62 232 15.33 228 -6.9 88 -8.6 0 0 983.1 NA 0.0000 9999 1610 0 0 0
2019/08/08 05:42:00 BASE 10.47 236 15.33 228 -6.9 88 -8.6 0 0 983.0 NA 0.0000 9999 1510 0 0 0
2019/08/08 05:43:00 BASE 11.12 225 15.33 228 -6.9 88 -8.6 0 0 983.0 NA 0.0000 9999 1540 0 0 0
2019/08/08 05:44:00 BASE 11.79 214 15.33 228 -6.9 88 -8.6 0 0 983.0 NA 0.0000 9999 1610 0 0 0
2019/08/08 05:45:00 BASE 12.08 218 15.33 228 -6.9 88 -8.6 0 0 983.0 NA 0.0000 9999 1670 0 0 0
2019/08/08 05:46:00 BASE 11.45 217 15.33 228 -6.9 88 -8.5 0 0 983.0 NA 0.0000 9999 1610 0 0 0
2019/08/08 05:47:00 BASE 11.08 213 14.87 231 -6.9 88 -8.5 0 0 983.1 NA 0.0000 9999 1570 0 0 0
2019/08/08 05:48:00 BASE 11.43 216 14.76 212 -6.9 88 -8.6 0 0 983.1 NA 0.0000 9999 1540 0 0 0
2019/08/08 05:49:00 BASE 11.39 218 14.76 212 -6.9 88 -8.6 0 0 983.1 NA 0.0000 9999 1670 0 0 0
2019/08/08 05:50:00 BASE 11.57 221 14.76 212 -7.0 88 -8.6 0 0 983.1 NA 0.0000 9999 1710 0 0 0
2019/08/08 05:51:00 BASE 11.57 224 14.76 212 -7.0 88 -8.6 0 0 983.1 NA 0.0000 9999 1770 0 0 0
2019/08/08 05:52:00 BASE 10.78 228 14.76 212 -7.0 88 -8.6 0 0 983.1 NA 0.0000 9999 1640 0 0 0
2019/08/08 05:53:00 BASE 11.08 228 14.04 207 -7.0 88 -8.6 0 0 983.1 NA 0.0000 9999 1710 0 0 0
2019/08/08 05:54:00 BASE 11.48 225 13.27 229 -7.0 88 -8.6 0 0 983.2 NA 0.0000 9999 1640 0 0 0
2019/08/08 05:55:00 BASE 11.40 216 13.27 229 -7.0 88 -8.6 0 0 983.1 NA 0.0000 9999 1770 0 0 0
2019/08/08 05:56:00 BASE 11.54 209 13.27 229 -7.0 88 -8.6 0 0 983.1 NA 0.0000 9999 1610 0 0 0
2019/08/08 05:57:00 BASE 11.52 210 13.17 214 -7.0 88 -8.6 0 0 983.1 NA 0.0000 9999 1610 0 0 0
2019/08/08 05:58:00 BASE 11.51 216 13.17 214 -7.0 88 -8.6 0 0 983.1 NA 0.0000 9999 1510 0 0 0
2019/08/08 05:59:00 BASE 12.01 221 13.38 226 -7.0 88 -8.6 0 0 983.1 NA 0.0000 9999 1570 0 0 0
2019/08/08 06:00:00 BASE 12.08 221 13.38 226 -6.9 88 -8.6 0 0 983.1 NA 0.0000 9999 1540 0 0 0
2019/08/08 06:01:00 BASE 11.47 220 13.38 226 -6.9 88 -8.5 0 0 983.1 NA 0.0000 9999 1570 0 0 0
2019/08/08 06:02:00 BASE 11.54 224 13.38 226 -6.9 88 -8.5 0 0 983.1 NA 0.0000 9999 1640 0 0 0
2019/08/08 06:03:00 BASE 11.62 227 13.43 231 -6.9 88 -8.5 0 0 983.1 NA 0.0000 9999 1640 0 0 0
2019/08/08 06:04:00 BASE 10.62 225 13.43 231 -6.9 89 -8.4 0 0 983.1 NA 0.0000 9999 1640 0 0 0
2019/08/08 06:05:00 BASE 10.97 228 13.43 230 -6.9 89 -8.4 0 0 983.1 NA 0.0000 9999 1540 0 0 0
2019/08/08 06:06:00 BASE 12.79 233 14.66 230 -6.9 89 -8.5 0 0 983.1 NA 0.0000 9999 1540 0 0 0
2019/08/08 06:07:00 BASE 12.02 231 14.66 230 -7.0 89 -8.5 0 0 983.2 NA 0.0000 9999 1480 0 0 0
2019/08/08 06:08:00 BASE 9.27 232 14.66 230 -7.0 89 -8.5 0 0 983.2 NA 0.0000 9999 1540 0 0 0
2019/08/08 06:09:00 BASE 9.17 232 14.66 230 -7.0 89 -8.5 0 0 983.2 NA 0.0000 9999 1410 0 0 0
2019/08/08 06:10:00 BASE 10.67 232 14.66 230 -7.1 89 -8.6 0 0 983.2 NA 0.0000 9999 1480 0 0 0
2019/08/08 06:11:00 BASE 11.25 233 14.66 230 -7.1 89 -8.6 0 0 983.2 NA 0.0000 9999 1610 0 0 0
2019/08/08 06:12:00 BASE 11.48 232 14.66 230 -7.1 89 -8.6 0 0 983.2 NA 0.0000 9999 1570 0 0 0
2019/08/08 06:13:00 BASE 11.08 231 14.66 230 -7.1 89 -8.6 0 0 983.3 NA 0.0000 9999 1510 0 0 0
2019/08/08 06:14:00 BASE 10.85 228 14.66 230 -7.1 89 -8.6 0 0 983.3 NA 0.0000 9999 1640 0 0 0
2019/08/08 06:15:00 BASE 11.30 225 14.66 230 -7.0 89 -8.6 0 0 983.2 NA 0.0000 9999 1610 0 0 0
2019/08/08 06:16:00 BASE 11.39 228 13.63 230 -7.0 89 -8.6 0 0 983.3 NA 0.0000 9999 1800 0 0 0
2019/08/08 06:17:00 BASE 12.06 227 14.82 221 -7.0 89 -8.6 0 0 983.2 NA 0.0000 9999 1670 0 0 0
2019/08/08 06:18:00 BASE 12.33 221 14.82 221 -7.0 88 -8.6 0 0 983.3 NA 0.0000 9999 1540 2230 0 0
2019/08/08 06:19:00 BASE 11.92 218 14.82 221 -7.0 88 -8.6 0 0 983.3 NA 0.0000 9999 1610 0 0 0
2019/08/08 06:20:00 BASE 12.28 218 14.82 221 -7.0 88 -8.6 0 0 983.3 NA 0.0000 9999 1740 0 0 0
2019/08/08 06:21:00 BASE 11.73 223 14.82 221 -7.0 88 -8.7 0 0 983.3 NA 0.0000 9999 1570 0 0 0
2019/08/08 06:22:00 BASE 10.55 218 14.82 221 -7.0 88 -8.6 0 0 983.3 NA 0.0000 9999 1610 0 0 0
2019/08/08 06:23:00 BASE 11.08 210 14.82 221 -7.0 88 -8.6 0 0 983.3 NA 0.0000 9999 1480 0 0 0
2019/08/08 06:24:00 BASE 11.53 209 14.82 221 -7.0 88 -8.6 0 0 983.3 NA 0.0000 9999 1610 0 0 0
2019/08/08 06:25:00 BASE 11.04 213 14.82 221 -6.9 88 -8.6 0 0 983.4 NA 0.0000 9999 1570 0 0 0
2019/08/08 06:26:00 BASE 10.78 220 14.82 221 -6.9 88 -8.6 0 0 983.4 NA 0.0000 9999 1800 0 0 0
2019/08/08 06:27:00 BASE 10.52 220 13.89 213 -6.9 88 -8.6 0 0 983.4 NA 0.0000 9999 1800 0 0 0
2019/08/08 06:28:00 BASE 10.85 218 14.82 220 -6.9 88 -8.6 0 0 983.4 NA 0.0000 9999 1540 0 0 0
2019/08/08 06:29:00 BASE 12.88 221 15.43 226 -6.9 88 -8.5 0 0 983.4 NA 0.0000 9999 1540 0 0 0
2019/08/08 06:30:00 BASE 13.60 225 15.43 226 -7.0 88 -8.6 0 0 983.4 NA 0.0000 9999 1570 0 0 0
2019/08/08 06:31:00 BASE 12.01 226 15.43 226 -7.0 88 -8.6 0 0 983.5 NA 0.0000 9999 1540 0 0 0
2019/08/08 06:32:00 BASE 11.19 226 15.43 226 -7.0 88 -8.6 0 0 983.5 NA 0.0000 9999 1570 0 0 0
2019/08/08 06:33:00 BASE 11.41 226 15.43 226 -7.0 88 -8.6 0 0 983.5 NA 0.0000 9999 1610 0 0 0
2019/08/08 06:34:00 BASE 12.22 222 15.43 226 -7.0 88 -8.6 0 0 983.5 NA 0.0000 9999 1570 0 0 0
2019/08/08 06:35:00 BASE 12.28 226 15.43 226 -7.0 88 -8.6 0 0 983.5 NA 0.0000 9999 1770 0 0 0
2019/08/08 06:36:00 BASE 11.33 231 15.43 226 -7.0 88 -8.6 0 0 983.5 NA 0.0000 9999 1510 0 0 0
2019/08/08 06:37:00 BASE 10.62 227 15.43 226 -7.0 88 -8.6 0 0 983.5 NA 0.0000 9999 1570 0 0 0
2019/08/08 06:38:00 BASE 10.96 219 15.43 226 -7.0 88 -8.6 0 0 983.5 NA 0.0000 9999 1570 0 0 0
2019/08/08 06:39:00 BASE 12.31 219 14.35 220 -7.0 88 -8.6 0 0 983.5 NA 0.0000 9999 1610 0 0 0
2019/08/08 06:40:00 BASE 12.56 226 14.35 220 -6.9 88 -8.6 0 0 983.5 NA 0.0000 9999 1610 0 0 0
2019/08/08 06:41:00 BASE 11.01 229 14.35 220 -6.9 88 -8.6 0 0 983.5 NA 0.0000 9999 1940 0 0 0
2019/08/08 06:42:00 BASE 10.89 233 14.35 220 -6.9 88 -8.5 0 0 983.5 NA 0.0000 9999 1480 0 0 0
2019/08/08 06:43:00 BASE 11.66 236 14.35 220 -7.0 89 -8.5 0 0 983.5 NA 0.0000 9999 1540 0 0 0
2019/08/08 06:44:00 BASE 11.23 237 14.35 220 -7.0 88 -8.6 0 0 983.5 NA 0.0000 9999 1540 0 0 0
2019/08/08 06:45:00 BASE 10.03 234 14.35 220 -7.0 88 -8.6 0 0 983.5 NA 0.0000 9999 1540 0 0 0
2019/08/08 06:46:00 BASE 9.55 230 14.35 220 -7.0 88 -8.6 0 0 983.5 NA 0.0000 9999 1540 0 0 0
2019/08/08 06:47:00 BASE 11.02 227 14.35 220 -7.0 88 -8.6 0 0 983.5 NA 0.0000 9999 1610 0 0 0
2019/08/08 06:48:00 BASE 11.29 225 14.35 220 -7.0 88 -8.6 0 0 983.6 NA 0.0000 9999 1540 0 0 0
2019/08/08 06:49:00 BASE 11.20 228 13.79 236 -7.0 89 -8.6 0 0 983.6 NA 0.0000 9999 1540 0 0 0
2019/08/08 06:50:00 BASE 11.51 229 13.79 236 -7.0 89 -8.5 0 0 983.6 NA 0.0000 9999 1480 0 0 0
2019/08/08 06:51:00 BASE 10.97 229 13.79 236 -7.0 89 -8.5 0 0 983.6 NA 0.0000 9999 1540 0 0 0
2019/08/08 06:52:00 BASE 10.60 230 13.12 223 -7.0 89 -8.5 0 0 983.7 NA 0.0000 9999 1570 0 0 0
2019/08/08 06:53:00 BASE 10.21 234 13.12 223 -7.0 89 -8.5 0 0 983.6 NA 0.0000 9999 1480 0 0 0
2019/08/08 06:54:00 BASE 8.84 233 13.12 223 -7.0 89 -8.5 0 0 983.7 NA 0.0000 9999 1610 0 0 0
2019/08/08 06:55:00 BASE 8.14 237 13.12 223 -7.0 89 -8.5 0 0 983.7 NA 0.0000 9999 1510 0 0 0
2019/08/08 06:56:00 BASE 9.48 246 13.12 223 -7.0 89 -8.6 0 0 983.7 NA 0.0000 9999 1540 0 0 0
2019/08/08 06:57:00 BASE 10.28 248 13.12 223 -7.0 89 -8.6 0 0 983.7 NA 0.0000 9999 1570 0 0 0
2019/08/08 06:58:00 BASE 10.87 241 13.12 223 -7.0 89 -8.5 0 0 983.7 NA 0.0000 9999 1540 0 0 0
2019/08/08 06:59:00 BASE 10.30 233 13.12 223 -7.0 89 -8.5 0 0 983.7 NA 0.0000 9999 1510 0 0 0
2019/08/08 07:00:00 BASE 8.72 231 12.86 231 -6.9 89 -8.5 0 0 983.7 NA 0.0000 9999 1440 0 0 0
2019/08/08 07:01:00 BASE 9.30 231 13.48 236 -6.9 89 -8.4 0 0 983.7 NA 0.0000 9999 1540 0 0 0
2019/08/08 07:02:00 BASE 10.59 235 13.48 236 -6.9 89 -8.4 0 0 983.8 NA 0.0000 9999 1480 0 0 0
2019/08/08 07:03:00 BASE 9.87 238 13.48 236 -6.9 89 -8.4 0 0 983.7 NA 0.0000 9999 1540 0 0 0
2019/08/08 07:04:00 BASE 9.54 238 13.48 236 -6.9 89 -8.4 0 0 983.8 NA 0.0000 9999 1510 0 0 0
2019/08/08 07:05:00 BASE 10.69 241 13.48 236 -6.9 89 -8.4 0 0 983.7 NA 0.0000 9999 1510 0 0 0
2019/08/08 07:06:00 BASE 10.31 242 13.48 236 -7.0 89 -8.5 0 0 983.8 NA 0.0000 9999 1480 0 0 0
2019/08/08 07:07:00 BASE 8.44 239 13.48 236 -7.0 89 -8.5 0 0 983.8 NA 0.0000 9999 1670 0 0 0
2019/08/08 07:08:00 BASE 9.50 238 13.53 234 -7.0 89 -8.5 0 0 983.8 NA 0.0000 9999 1670 0 0 0
2019/08/08 07:09:00 BASE 11.74 236 14.40 231 -7.0 89 -8.5 0 0 983.7 NA 0.0000 9999 1570 0 0 0
2019/08/08 07:10:00 BASE 11.72 234 14.40 231 -7.0 89 -8.5 0 0 983.8 NA 0.0000 9999 1670 0 0 0
2019/08/08 07:11:00 BASE 10.95 230 14.40 231 -7.0 89 -8.6 0 0 983.8 NA 0.0000 9999 1840 0 0 0
2019/08/08 07:12:00 BASE 10.80 228 14.40 231 -7.0 88 -8.6 0 0 983.8 NA 0.0000 9999 2100 0 0 0
2019/08/08 07:13:00 BASE 10.84 231 14.40 231 -7.0 88 -8.7 0 0 983.8 NA 0.0000 9999 1870 0 0 0
2019/08/08 07:14:00 BASE 10.48 230 14.40 231 -7.0 88 -8.7 0 0 983.8 NA 0.0000 9999 1670 0 0 0
2019/08/08 07:15:00 BASE 9.85 224 14.40 231 -7.0 88 -8.7 0 0 983.9 NA 0.0000 9999 1740 0 0 0
2019/08/08 07:16:00 BASE 10.97 219 14.40 231 -7.0 87 -8.7 0 0 983.8 NA 0.0000 9999 1800 0 0 0
2019/08/08 07:17:00 BASE 12.48 217 14.40 231 -7.0 87 -8.8 0 0 983.8 NA 0.0000 9999 1570 0 0 0
2019/08/08 07:18:00 BASE 10.82 219 14.40 231 -7.0 87 -8.8 0 0 983.9 NA 0.0000 9999 1670 0 0 0
2019/08/08 07:19:00 BASE 10.51 224 13.99 215 -7.0 87 -8.8 0 0 983.9 NA 0.0000 9999 1610 0 0 0
2019/08/08 07:20:00 BASE 11.10 218 13.99 215 -7.0 87 -8.8 0 0 983.9 NA 0.0000 9999 1740 0 0 0
2019/08/08 07:21:00 BASE 10.74 215 13.99 215 -7.0 87 -8.8 0 0 983.9 NA 0.0000 9999 1710 0 0 0
2019/08/08 07:22:00 BASE 11.55 224 13.99 215 -6.9 87 -8.8 0 0 983.9 NA 0.0000 9999 1800 0 0 0
2019/08/08 07:23:00 BASE 11.32 233 13.99 215 -6.9 87 -8.8 0 0 983.9 NA 0.0000 9999 1800 0 0 0
2019/08/08 07:24:00 BASE 10.55 230 13.99 215 -7.0 87 -8.8 0 0 983.9 NA 0.0000 9999 2170 0 0 0
2019/08/08 07:25:00 BASE 11.48 228 14.92 224 -7.0 87 -8.8 0 0 983.9 NA 0.0000 9999 0 0 0 0
2019/08/08 07:26:00 BASE 11.65 234 14.92 224 -7.0 87 -8.9 0 0 983.9 NA 0.0000 9999 1840 3020 0 0
2019/08/08 07:27:00 BASE 10.74 234 14.92 224 -7.0 86 -8.9 0 0 983.9 NA 0.0000 9999 1970 2430 0 0
2019/08/08 07:28:00 BASE 10.57 234 14.92 224 -7.1 86 -9.0 0 0 983.9 NA 0.0000 9999 1870 0 0 0
2019/08/08 07:29:00 BASE 11.15 237 14.92 224 -7.0 86 -9.0 0 0 983.9 NA 0.0000 9999 1710 0 0 0
2019/08/08 07:30:00 BASE 11.41 240 14.92 224 -7.0 86 -9.0 0 0 983.9 NA 0.0000 9999 1740 2260 0 0
2019/08/08 07:31:00 BASE 11.51 235 14.92 224 -7.1 86 -9.0 0 0 983.9 NA 0.0000 9999 1840 0 0 0
2019/08/08 07:32:00 BASE 11.22 228 14.92 224 -7.0 86 -9.0 0 0 984.0 NA 0.0000 9999 1870 0 0 0
2019/08/08 07:33:00 BASE 11.36 227 14.92 224 -7.0 86 -9.0 0 0 984.0 NA 0.0000 9999 1710 2170 0 0
2019/08/08 07:34:00 BASE 12.20 228 14.92 224 -7.0 86 -9.0 0 0 983.9 NA 0.0000 9999 1800 0 0 0
2019/08/08 07:35:00 BASE 12.22 227 14.51 223 -7.0 86 -9.0 0 0 984.0 NA 0.0000 9999 1870 0 0 0
2019/08/08 07:36:00 BASE 12.37 223 14.51 223 -7.0 86 -8.9 0 0 984.0 NA 0.0000 9999 2200 0 0 0
2019/08/08 07:37:00 BASE 12.00 227 14.51 223 -7.0 86 -8.9 0 0 984.0 NA 0.0000 9999 2330 0 0 0
2019/08/08 07:38:00 BASE 11.13 231 14.51 223 -7.0 86 -9.0 0 0 984.0 NA 0.0000 9999 2200 0 0 0
2019/08/08 07:39:00 BASE 9.77 226 14.51 223 -7.0 85 -9.0 0 0 984.0 NA 0.0000 9999 1840 2590 0 0
2019/08/08 07:40:00 BASE 9.54 225 14.51 223 -7.0 85 -9.1 0 0 984.0 NA 0.0000 9999 1670 0 0 0
2019/08/08 07:41:00 BASE 10.38 224 14.51 223 -7.0 85 -9.1 0 0 984.0 NA 0.0000 9999 1970 0 0 0
2019/08/08 07:42:00 BASE 9.72 221 14.51 223 -7.0 85 -9.1 0 0 984.0 NA 0.0000 9999 1800 0 0 0
2019/08/08 07:43:00 BASE 9.07 222 14.51 223 -7.0 85 -9.1 0 0 984.0 NA 0.0000 9999 1800 0 0 0
2019/08/08 07:44:00 BASE 10.46 227 14.10 228 -7.0 85 -9.0 0 0 984.0 NA 0.0000 9999 1800 0 0 0
2019/08/08 07:45:00 BASE 11.20 235 13.58 220 -7.0 85 -9.0 0 0 984.0 NA 0.0000 9999 2850 0 0 0
2019/08/08 07:46:00 BASE 11.42 235 14.97 215 -7.0 85 -9.1 0 0 983.9 NA 0.0000 9999 1800 0 0 0
2019/08/08 07:47:00 BASE 12.70 230 14.97 220 -7.0 85 -9.1 0 0 984.0 NA 0.0000 9999 1770 0 0 0
2019/08/08 07:48:00 BASE 13.11 226 14.97 220 -7.0 85 -9.1 0 0 984.0 NA 0.0000 9999 1800 0 0 0
2019/08/08 07:49:00 BASE 13.64 227 16.05 228 -7.0 85 -9.1 0 0 984.0 NA 0.0000 9999 1900 0 0 0
2019/08/08 07:50:00 BASE 13.10 228 16.05 228 -7.0 85 -9.1 0 0 984.0 NA 0.0000 9999 1900 0 0 0
2019/08/08 07:51:00 BASE 11.49 229 16.05 228 -7.0 85 -9.1 0 0 984.0 NA 0.0000 9999 1900 0 0 0
2019/08/08 07:52:00 BASE 11.34 228 16.05 228 -7.0 85 -9.1 0 0 984.0 NA 0.0000 9999 1900 0 0 0
2019/08/08 07:53:00 BASE 11.34 229 16.05 228 -7.0 85 -9.1 0 0 984.1 NA 0.0000 9999 1870 0 0 0
2019/08/08 07:54:00 BASE 11.84 228 16.05 228 -7.0 85 -9.1 0 0 984.1 NA 0.0000 9999 1970 0 0 0
2019/08/08 07:55:00 BASE 11.33 228 16.05 228 -7.0 84 -9.1 0 0 984.1 NA 0.0000 9999 2230 0 0 0
2019/08/08 07:56:00 BASE 9.85 230 16.05 228 -6.9 84 -9.2 0 0 984.1 NA 0.0000 9999 1970 0 0 0
2019/08/08 07:57:00 BASE 9.29 233 16.05 228 -6.9 84 -9.2 0 0 984.1 NA 0.0000 9999 1800 0 0 0
2019/08/08 07:58:00 BASE 10.74 229 16.05 228 -6.9 84 -9.1 0 0 984.1 NA 0.0000 9999 1770 0 0 0
2019/08/08 07:59:00 BASE 12.81 223 14.66 223 -6.8 84 -9.1 0 0 984.2 NA 0.0000 9999 1840 0 0 0
2019/08/08 08:00:00 BASE 11.42 227 14.66 223 -6.8 84 -9.1 0 0 984.2 NA 0.0000 9999 1800 0 0 0
2019/08/08 08:01:00 BASE 10.82 228 14.66 223 -6.9 84 -9.1 0 0 984.2 NA 0.0000 9999 0 0 0 0
2019/08/08 08:02:00 BASE 11.97 225 14.66 223 -6.9 84 -9.1 0 0 984.2 NA 0.0000 9999 2260 0 0 0
2019/08/08 08:03:00 BASE 12.41 226 14.92 238 -7.0 84 -9.2 0 0 984.2 NA 0.0000 9999 1970 0 0 0
2019/08/08 08:04:00 BASE 12.83 228 14.92 238 -7.0 84 -9.2 0 0 984.2 NA 0.0000 9999 2030 0 0 0
2019/08/08 08:05:00 BASE 12.68 227 14.92 238 -7.0 84 -9.3 0 0 984.2 NA 0.0000 9999 1940 0 0 0
2019/08/08 08:06:00 BASE 12.81 218 14.92 238 -7.0 84 -9.3 0 0 984.1 NA 0.0000 9999 1900 0 0 0
2019/08/08 08:07:00 BASE 12.55 213 14.92 238 -7.0 83 -9.4 0 0 984.1 NA 0.0000 9999 1940 0 0 0
2019/08/08 08:08:00 BASE 10.60 214 14.92 238 -7.0 83 -9.4 0 0 984.2 NA 0.0000 9999 1870 0 0 0
2019/08/08 08:09:00 BASE 9.80 215 14.92 238 -7.1 83 -9.5 0 0 984.1 NA 0.0000 9999 1900 0 0 0
2019/08/08 08:10:00 BASE 11.80 219 14.97 227 -7.0 83 -9.5 0 0 984.1 NA 0.0000 9999 1840 0 0 0
2019/08/08 08:11:00 BASE 13.33 221 15.33 219 -7.0 82 -9.5 0 0 984.1 NA 0.0000 9999 2000 0 0 0
2019/08/08 08:12:00 BASE 12.41 218 15.33 219 -7.0 82 -9.5 0 0 984.1 NA 0.0000 9999 2030 0 0 0
2019/08/08 08:13:00 BASE 10.61 222 15.33 219 -7.0 82 -9.6 0 0 984.2 NA 0.0000 9999 2070 0 0 0
2019/08/08 08:14:00 BASE 10.02 224 15.33 219 -7.0 82 -9.5 0 0 984.1 NA 0.0000 9999 1970 0 0 0
2019/08/08 08:15:00 BASE 11.42 224 15.33 219 -7.0 82 -9.5 0 0 984.1 NA 0.0000 9999 2030 0 0 0
2019/08/08 08:16:00 BASE 11.81 230 15.33 219 -6.9 82 -9.4 0 0 984.1 NA 0.0000 9999 1900 0 0 0
2019/08/08 08:17:00 BASE 11.50 228 15.33 219 -6.9 83 -9.4 0 0 984.1 NA 0.0000 9999 1970 0 0 0
2019/08/08 08:18:00 BASE 11.95 221 15.33 219 -6.9 83 -9.3 0 0 984.1 NA 0.0000 9999 1800 0 0 0
2019/08/08 08:19:00 BASE 12.16 218 15.33 219 -6.9 83 -9.3 0 0 984.1 NA 0.0000 9999 1800 0 0 0
2019/08/08 08:20:00 BASE 12.31 219 15.33 219 -7.0 83 -9.4 0 0 984.1 NA 0.0000 9999 1870 0 0 0
2019/08/08 08:21:00 BASE 11.08 221 13.63 223 -7.0 83 -9.4 0 0 984.2 NA 0.0000 9999 1900 0 0 0
2019/08/08 08:22:00 BASE 10.67 225 13.63 223 -7.0 83 -9.4 0 0 984.2 NA 0.0000 9999 1970 0 0 0
2019/08/08 08:23:00 BASE 11.43 232 13.63 223 -7.0 83 -9.4 0 0 984.1 NA 0.0000 9999 1940 0 0 0
2019/08/08 08:24:00 BASE 10.98 231 13.63 223 -7.0 83 -9.3 0 0 984.2 NA 0.0000 9999 1840 0 0 0
2019/08/08 08:25:00 BASE 9.30 229 13.48 219 -7.0 84 -9.3 0 0 984.2 NA 0.0000 9999 1900 0 0 0
2019/08/08 08:26:00 BASE 8.37 233 13.48 219 -7.0 84 -9.3 0 0 984.2 NA 0.0000 9999 1840 0 0 0
2019/08/08 08:27:00 BASE 9.56 234 13.48 219 -7.0 84 -9.3 0 0 984.1 NA 0.0000 9999 1940 0 0 0
2019/08/08 08:28:00 BASE 10.80 231 13.48 219 -7.0 84 -9.3 0 0 984.2 NA 0.0000 9999 1900 0 0 0
2019/08/08 08:29:00 BASE 10.68 228 12.91 215 -7.1 84 -9.3 0 0 984.2 NA 0.0000 9999 2200 0 0 0
2019/08/08 08:30:00 BASE 9.55 232 12.81 229 -7.1 84 -9.3 0 0 984.2 NA 0.0000 9999 2030 0 0 0
2019/08/08 08:31:00 BASE 8.75 239 12.81 229 -7.1 84 -9.3 0 0 984.2 NA 0.0000 9999 1940 0 0 0
2019/08/08 08:32:00 BASE 9.57 230 12.81 229 -7.1 84 -9.4 0 0 984.1 NA 0.0000 9999 1900 2400 0 0
2019/08/08 08:33:00 BASE 9.66 215 12.81 229 -7.1 84 -9.4 0 0 984.2 NA 0.0000 9999 1770 0 0 0
2019/08/08 08:34:00 BASE 8.91 226 12.81 229 -7.2 84 -9.4 0 0 984.2 NA 0.0000 9999 1900 0 0 0
2019/08/08 08:35:00 BASE 9.15 241 12.81 229 -7.2 84 -9.5 0 0 984.2 NA 0.0000 9999 1870 0 0 0
2019/08/08 08:36:00 BASE 8.49 240 12.81 229 -7.2 84 -9.5 0 0 984.2 NA 0.0000 9999 2030 0 0 0
2019/08/08 08:37:00 BASE 8.66 234 12.60 230 -7.2 83 -9.6 0 0 984.2 NA 0.0000 9999 1900 0 0 0
2019/08/08 08:38:00 BASE 9.32 224 11.88 223 -7.2 83 -9.6 0 0 984.2 NA 0.0000 9999 1870 0 0 0
2019/08/08 08:39:00 BASE 8.69 216 11.73 220 -7.2 83 -9.6 0 0 984.2 NA 0.0000 9999 1800 0 0 0
2019/08/08 08:40:00 BASE 7.35 220 11.73 220 -7.2 83 -9.6 0 0 984.3 NA 0.0000 9999 1840 0 0 0
2019/08/08 08:41:00 BASE 7.18 231 11.73 220 -7.2 83 -9.6 0 0 984.3 NA 0.0000 9999 1870 0 0 0
2019/08/08 08:42:00 BASE 7.68 234 11.32 222 -7.1 83 -9.5 0 0 984.3 NA 0.0000 9999 1840 0 0 0
2019/08/08 08:43:00 BASE 7.26 227 11.32 222 -7.1 83 -9.5 0 0 984.3 NA 0.0000 9999 1900 0 0 0
2019/08/08 08:44:00 BASE 8.86 225 11.78 228 -7.1 83 -9.5 0 0 984.3 NA 0.0000 9999 1940 0 0 0
2019/08/08 08:45:00 BASE 9.78 225 11.78 228 -7.1 83 -9.4 0 0 984.3 NA 0.0000 9999 2130 0 0 0
2019/08/08 08:46:00 BASE 8.61 225 11.78 228 -7.1 84 -9.4 0 0 984.3 NA 0.0000 9999 2030 0 0 0
2019/08/08 08:47:00 BASE 8.05 230 11.78 228 -7.1 84 -9.4 0 0 984.3 NA 0.0000 9999 2000 0 0 0
2019/08/08 08:48:00 BASE 7.38 233 11.78 228 -7.2 84 -9.4 0 0 984.4 NA 0.0000 9999 2030 0 0 0
2019/08/08 08:49:00 BASE 6.36 232 11.78 228 -7.2 84 -9.5 0 0 984.5 NA 0.0000 9999 2030 0 0 0
2019/08/08 08:50:00 BASE 6.01 234 11.78 228 -7.2 84 -9.5 0 0 984.5 NA 0.0000 9999 1710 0 0 0
2019/08/08 08:51:00 BASE 6.25 233 11.78 228 -7.2 83 -9.5 0 0 984.5 NA 0.0000 9999 1740 0 0 0
2019/08/08 08:52:00 BASE 7.14 232 11.78 228 -7.2 83 -9.6 0 0 984.5 NA 0.0000 9999 1770 0 0 0
2019/08/08 08:53:00 BASE 8.31 239 11.78 228 -7.2 83 -9.6 0 0 984.5 NA 0.0000 9999 1800 0 0 0
2019/08/08 08:54:00 BASE 8.63 243 10.44 239 -7.2 83 -9.6 0 0 984.5 NA 0.0000 9999 1840 0 0 0
2019/08/08 08:55:00 BASE 8.27 243 10.44 239 -7.2 83 -9.5 0 0 984.6 NA 0.0000 9999 1670 0 0 0
2019/08/08 08:56:00 BASE 7.72 247 10.44 239 -7.1 83 -9.5 0 0 984.6 NA 0.0000 9999 1740 0 0 0
2019/08/08 08:57:00 BASE 7.58 249 10.44 239 -7.1 83 -9.5 0 0 984.6 NA 0.0000 9999 1800 0 0 0
2019/08/08 08:58:00 BASE 7.84 253 10.44 239 -7.1 83 -9.5 0 0 984.6 NA 0.0000 9999 1740 0 0 0
2019/08/08 08:59:00 BASE 7.12 252 10.44 239 -7.2 84 -9.5 0 0 984.6 NA 0.0000 9999 1740 0 0 0
2019/08/08 09:00:00 BASE 6.04 250 10.44 239 -7.2 84 -9.4 0 0 984.7 NA 0.0000 9999 1740 0 0 0
2019/08/08 09:01:00 BASE 6.65 241 10.44 239 -7.2 84 -9.4 0 0 984.7 NA 0.0000 9999 1710 0 0 0
2019/08/08 09:02:00 BASE 7.03 236 10.44 239 -7.2 84 -9.4 0 0 984.7 NA 0.0000 9999 1740 0 0 0
2019/08/08 09:03:00 BASE 8.17 231 11.21 220 -7.2 84 -9.4 0 0 984.6 NA 0.0000 9999 1670 0 0 0
2019/08/08 09:04:00 BASE 9.54 217 11.21 220 -7.1 84 -9.4 0 0 984.6 NA 0.0000 9999 1610 0 0 0
2019/08/08 09:05:00 BASE 8.98 213 11.21 220 -7.1 84 -9.3 0 0 984.7 NA 0.0000 9999 1540 0 0 0
2019/08/08 09:06:00 BASE 7.86 210 11.21 220 -7.1 85 -9.3 0 0 984.7 NA 0.0000 9999 1640 0 0 0
2019/08/08 09:07:00 BASE 6.98 204 11.21 220 -7.2 85 -9.3 0 0 984.7 NA 0.0000 9999 1570 0 0 0
2019/08/08 09:08:00 BASE 7.74 207 11.21 220 -7.2 85 -9.3 0 0 984.7 NA 0.0000 9999 1540 0 0 0
2019/08/08 09:09:00 BASE 9.23 211 11.27 208 -7.2 85 -9.3 0 0 984.6 NA 0.0000 9999 1640 0 0 0
2019/08/08 09:10:00 BASE 10.13 214 11.27 208 -7.1 85 -9.2 0 0 984.6 NA 0.0000 9999 1640 0 0 0
2019/08/08 09:11:00 BASE 9.89 222 11.27 208 -7.1 85 -9.2 0 0 984.6 NA 0.0000 9999 1610 0 0 0
2019/08/08 09:12:00 BASE 9.80 215 11.27 208 -7.1 86 -9.1 0 0 984.6 NA 0.0000 9999 1610 0 0 0
2019/08/08 09:13:00 BASE 9.67 209 11.27 208 -7.1 86 -9.1 0 0 984.6 NA 0.0000 9999 1570 0 0 0
2019/08/08 09:14:00 BASE 8.79 222 11.27 208 -7.1 86 -9.0 0 0 984.6 NA 0.0000 9999 1570 0 0 0
2019/08/08 09:15:00 BASE 8.74 220 11.27 208 -7.1 86 -9.0 0 0 984.6 NA 0.0000 9999 1570 0 0 0
2019/08/08 09:16:00 BASE 8.90 204 11.27 208 -7.1 87 -8.9 0 0 984.6 NA 0.0000 9999 1540 0 0 0
2019/08/08 09:17:00 BASE 8.91 201 11.27 208 -7.1 87 -8.9 0 0 984.6 NA 0.0000 9999 1610 0 0 0
2019/08/08 09:18:00 BASE 9.06 215 11.27 208 -7.1 87 -8.9 0 0 984.6 NA 0.0000 9999 1670 0 0 0
2019/08/08 09:19:00 BASE 9.66 229 11.27 232 -7.1 87 -8.8 0 0 984.6 NA 0.0000 9999 1670 0 0 0
2019/08/08 09:20:00 BASE 10.00 229 11.47 214 -7.1 87 -8.9 0 0 984.6 NA 0.0000 9999 1670 0 0 0
2019/08/08 09:21:00 BASE 10.37 222 11.94 220 -7.2 87 -8.9 0 0 984.6 NA 0.0000 9999 1710 0 0 0
2019/08/08 09:22:00 BASE 11.57 221 13.63 225 -7.2 87 -8.9 0 0 984.6 NA 0.0000 9999 1740 0 0 0
2019/08/08 09:23:00 BASE 11.11 224 13.63 225 -7.2 87 -9.0 0 0 984.6 NA 0.0000 9999 1740 0 0 0
2019/08/08 09:24:00 BASE 8.10 225 13.63 225 -7.2 87 -9.0 0 0 984.6 NA 0.0000 9999 1610 0 0 0
2019/08/08 09:25:00 BASE 5.97 224 13.63 225 -7.3 87 -9.1 0 0 984.6 NA 0.0000 9999 1640 0 0 0
2019/08/08 09:26:00 BASE 7.29 221 13.63 225 -7.3 87 -9.1 0 0 984.6 NA 0.0000 9999 1610 0 0 0
2019/08/08 09:27:00 BASE 8.35 216 13.63 225 -7.3 87 -9.1 0 0 984.6 NA 0.0000 9999 1610 0 0 0
2019/08/08 09:28:00 BASE 8.14 220 13.63 225 -7.3 87 -9.1 0 0 984.6 NA 0.0000 9999 1670 0 0 0
2019/08/08 09:29:00 BASE 9.37 230 13.63 225 -7.3 87 -9.1 0 0 984.6 NA 0.0000 9999 1740 0 0 0
2019/08/08 09:30:00 BASE 8.75 235 13.63 225 -7.3 87 -9.1 0 0 984.7 NA 0.0000 9999 1670 0 0 0
2019/08/08 09:31:00 BASE 7.17 236 13.63 225 -7.3 87 -9.1 0 0 984.7 NA 0.0000 9999 1670 0 0 0
2019/08/08 09:32:00 BASE 7.88 238 12.40 227 -7.3 87 -9.1 0 0 984.6 NA 0.0000 9999 1710 0 0 0
2019/08/08 09:33:00 BASE 8.34 244 11.88 234 -7.3 87 -9.1 0 0 984.7 NA 0.0000 9999 1740 0 0 0
2019/08/08 09:34:00 BASE 7.90 238 11.88 234 -7.3 87 -9.1 0 0 984.7 NA 0.0000 9999 1770 0 0 0
2019/08/08 09:35:00 BASE 7.35 234 11.88 234 -7.3 87 -9.1 0 0 984.7 NA 0.0000 9999 1740 0 0 0
2019/08/08 09:36:00 BASE 6.00 239 11.88 234 -7.3 87 -9.1 0 0 984.7 NA 0.0000 9999 1610 0 0 0
2019/08/08 09:37:00 BASE 5.73 234 11.88 234 -7.3 87 -9.1 0 0 984.7 NA 0.0000 9999 1640 0 0 0
2019/08/08 09:38:00 BASE 7.38 222 11.88 234 -7.3 87 -9.1 0 0 984.7 NA 0.0000 9999 1570 0 0 0
2019/08/08 09:39:00 BASE 8.40 217 10.60 237 -7.3 87 -9.1 0 0 984.7 NA 0.0000 9999 1510 0 0 0
2019/08/08 09:40:00 BASE 8.00 217 10.60 237 -7.3 87 -9.1 0 0 984.7 NA 0.0000 9999 1510 0 0 0
2019/08/08 09:41:00 BASE 7.04 213 10.60 237 -7.4 87 -9.2 0 0 984.7 NA 0.0000 9999 1610 0 0 0
2019/08/08 09:42:00 BASE 7.18 215 10.55 222 -7.3 87 -9.1 0 0 984.7 NA 0.0000 9999 1640 0 0 0
2019/08/08 09:43:00 BASE 7.36 214 10.55 222 -7.3 87 -9.1 0 0 984.7 NA 0.0000 9999 1570 0 0 0
2019/08/08 09:44:00 BASE 6.46 215 10.55 222 -7.3 87 -9.2 0 0 984.7 NA 0.0000 9999 1640 0 0 0
2019/08/08 09:45:00 BASE 6.36 214 10.55 222 -7.3 87 -9.2 0 0 984.7 NA 0.0000 9999 1610 0 0 0
2019/08/08 09:46:00 BASE 7.67 206 10.55 222 -7.3 86 -9.2 0 0 984.7 NA 0.0000 9999 1640 0 0 0
2019/08/08 09:47:00 BASE 8.31 211 10.55 222 -7.4 86 -9.3 0 0 984.7 NA 0.0000 9999 1570 0 0 0
2019/08/08 09:48:00 BASE 7.72 221 10.55 222 -7.4 86 -9.3 0 0 984.7 NA 0.0000 9999 1570 0 0 0
2019/08/08 09:49:00 BASE 6.94 218 9.67 204 -7.4 86 -9.3 0 0 984.7 NA 0.0000 9999 1440 0 0 0
2019/08/08 09:50:00 BASE 6.90 208 9.67 204 -7.4 86 -9.3 0 0 984.7 NA 0.0000 9999 1440 0 0 0
2019/08/08 09:51:00 BASE 6.98 205 9.67 204 -7.4 86 -9.3 0 0 984.7 NA 0.0000 9999 1480 0 0 0
2019/08/08 09:52:00 BASE 7.04 206 9.67 204 -7.4 86 -9.3 0 0 984.7 NA 0.0000 9999 1540 0 0 0
2019/08/08 09:53:00 BASE 6.53 204 9.67 204 -7.4 86 -9.3 0 0 984.6 NA 0.0000 9999 1480 0 0 0
2019/08/08 09:54:00 BASE 5.08 204 9.67 204 -7.4 86 -9.3 0 0 984.6 NA 0.0000 9999 1440 0 0 0
2019/08/08 09:55:00 BASE 6.61 206 9.67 206 -7.4 86 -9.3 0 0 984.6 NA 0.0000 9999 1510 0 0 0
2019/08/08 09:56:00 BASE 8.45 202 9.67 206 -7.4 86 -9.3 0 0 984.6 NA 0.0000 9999 1610 0 0 0
2019/08/08 09:57:00 BASE 8.02 199 9.67 206 -7.4 87 -9.2 0 0 984.6 NA 0.0000 9999 1480 0 0 0
2019/08/08 09:58:00 BASE 6.96 202 9.67 206 -7.4 87 -9.2 0 0 984.6 NA 0.0000 9999 1440 0 0 0
2019/08/08 09:59:00 BASE 5.57 196 9.67 206 -7.4 87 -9.2 0 0 984.6 NA 0.0000 9999 1480 0 0 0
2019/08/08 10:00:00 BASE 4.96 185 9.67 206 -7.4 87 -9.2 0 0 984.6 NA 0.0000 9999 1480 0 0 0
2019/08/08 10:01:00 BASE 5.36 189 9.67 206 -7.5 87 -9.2 0 0 984.6 NA 0.0000 9999 1510 0 0 0
2019/08/08 10:02:00 BASE 6.35 201 9.67 206 -7.5 87 -9.3 0 0 984.6 NA 0.0000 9999 1480 0 0 0
2019/08/08 10:03:00 BASE 7.24 202 9.67 206 -7.5 87 -9.3 0 0 984.6 NA 0.0000 9999 1510 0 0 0
2019/08/08 10:04:00 BASE 7.24 201 9.67 206 -7.4 87 -9.2 0 0 984.6 NA 0.0000 9999 1540 0 0 0
2019/08/08 10:05:00 BASE 7.13 206 8.80 198 -7.4 87 -9.2 0 0 984.6 NA 0.0000 9999 1480 0 0 0
2019/08/08 10:06:00 BASE 7.52 213 8.49 196 -7.4 87 -9.2 0 0 984.6 NA 0.0000 9999 1510 0 0 0
2019/08/08 10:07:00 BASE 7.58 222 8.49 237 -7.3 87 -9.1 0 0 984.7 NA 0.0000 9999 1570 0 0 0
2019/08/08 10:08:00 BASE 6.78 228 8.49 237 -7.3 87 -9.1 0 0 984.7 NA 0.0000 9999 1570 0 0 0
2019/08/08 10:09:00 BASE 5.20 231 8.49 237 -7.3 87 -9.0 0 0 984.7 NA 0.0000 9999 1570 0 0 0
2019/08/08 10:10:00 BASE 4.39 228 8.49 237 -7.3 88 -9.0 0 0 984.7 NA 0.0000 9999 1570 0 0 0
2019/08/08 10:11:00 BASE 5.28 214 8.49 237 -7.3 88 -8.9 0 0 984.6 NA 0.0000 9999 1540 0 0 0
2019/08/08 10:12:00 BASE 6.51 213 8.85 227 -7.3 88 -8.9 0 0 984.6 NA 0.0000 9999 1440 0 0 0
2019/08/08 10:13:00 BASE 7.18 226 8.85 227 -7.3 88 -8.9 0 0 984.6 NA 0.0000 9999 1440 0 0 0
2019/08/08 10:14:00 BASE 7.02 234 8.85 227 -7.3 88 -8.9 0 0 984.6 NA 0.0000 9999 1510 0 0 0
2019/08/08 10:15:00 BASE 5.69 239 8.85 227 -7.3 88 -8.9 0 0 984.7 NA 0.0000 9999 1480 0 0 0
2019/08/08 10:16:00 BASE 4.41 242 8.85 227 -7.3 88 -8.9 0 0 984.7 NA 0.0000 9999 1540 0 0 0
2019/08/08 10:17:00 BASE 4.39 236 8.85 227 -7.3 88 -9.0 0 0 984.7 NA 0.0000 9999 1540 0 0 0
2019/08/08 10:18:00 BASE 6.02 223 8.85 227 -7.3 88 -9.0 0 0 984.6 NA 0.0000 9999 1540 0 0 0
2019/08/08 10:19:00 BASE 7.33 215 8.85 227 -7.4 88 -9.0 0 0 984.6 NA 0.0000 9999 1610 0 0 0
2019/08/08 10:20:00 BASE 7.08 213 8.85 227 -7.4 88 -9.0 0 0 984.6 NA 0.0000 9999 1540 0 0 0
2019/08/08 10:21:00 BASE 6.54 218 8.85 227 -7.4 88 -9.0 0 0 984.6 NA 0.0000 9999 1510 0 0 0
2019/08/08 10:22:00 BASE 7.15 222 9.77 222 -7.4 88 -9.0 0 0 984.6 NA 0.0000 9999 1510 0 0 0
2019/08/08 10:23:00 BASE 8.12 222 9.77 222 -7.4 88 -9.0 0 0 984.6 NA 0.0000 9999 1570 0 0 0
2019/08/08 10:24:00 BASE 7.29 221 9.77 222 -7.4 88 -9.1 0 0 984.6 NA 0.0000 9999 1640 0 0 0
2019/08/08 10:25:00 BASE 6.79 218 9.77 222 -7.4 88 -9.1 0 0 984.6 NA 0.0000 9999 1350 0 0 0
2019/08/08 10:26:00 BASE 7.28 225 9.77 222 -7.5 88 -9.1 0 0 984.6 NA 0.0000 9999 1440 0 0 0
2019/08/08 10:27:00 BASE 6.81 236 9.77 222 -7.5 88 -9.2 0 0 984.6 NA 0.0000 9999 1440 0 0 0
2019/08/08 10:28:00 BASE 6.06 236 9.77 222 -7.5 88 -9.2 0 0 984.6 NA 0.0000 9999 1610 0 0 0
2019/08/08 10:29:00 BASE 5.18 231 9.77 222 -7.5 87 -9.2 0 0 984.6 NA 0.0000 9999 1440 0 0 0
2019/08/08 10:30:00 BASE 5.92 233 9.77 222 -7.5 87 -9.3 0 0 984.5 NA 0.0000 9999 1440 0 0 0
2019/08/08 10:31:00 BASE 5.56 237 9.77 222 -7.5 87 -9.3 0 0 984.6 NA 0.0000 9999 1350 0 0 0
2019/08/08 10:32:00 BASE 4.04 237 9.21 225 -7.5 87 -9.3 0 0 984.6 NA 0.0000 9999 1510 0 0 0
2019/08/08 10:33:00 BASE 4.73 233 8.75 231 -7.5 87 -9.3 0 0 984.6 NA 0.0000 9999 1510 0 0 0
2019/08/08 10:34:00 BASE 4.84 228 8.75 231 -7.5 87 -9.3 0 0 984.6 NA 0.0000 9999 1510 0 0 0
2019/08/08 10:35:00 BASE 4.14 232 8.75 231 -7.5 87 -9.3 0 0 984.6 NA 0.0000 9999 1440 0 0 0
2019/08/08 10:36:00 BASE 3.77 233 8.59 240 -7.5 87 -9.3 0 0 984.6 NA 0.0000 9999 1610 0 0 0
2019/08/08 10:37:00 BASE 3.85 229 8.59 240 -7.5 87 -9.3 0 0 984.6 NA 0.0000 9999 1610 0 0 0
2019/08/08 10:38:00 BASE 4.64 222 8.59 240 -7.4 86 -9.3 0 0 984.6 NA 0.0000 9999 1540 0 0 0
2019/08/08 10:39:00 BASE 6.33 216 8.59 240 -7.4 86 -9.3 0 0 984.5 NA 0.0000 9999 1570 0 0 0
2019/08/08 10:40:00 BASE 7.51 217 9.31 217 -7.4 86 -9.3 0 0 984.5 NA 0.0000 9999 1540 0 0 0
2019/08/08 10:41:00 BASE 7.55 219 9.31 217 -7.4 86 -9.2 0 0 984.5 NA 0.0000 9999 1540 0 0 0
2019/08/08 10:42:00 BASE 6.74 217 9.31 217 -7.4 87 -9.2 0 0 984.6 NA 0.0000 9999 1440 0 0 0
2019/08/08 10:43:00 BASE 6.68 219 9.31 217 -7.4 87 -9.2 0 0 984.6 NA 0.0000 9999 1380 0 0 0
2019/08/08 10:44:00 BASE 7.00 219 9.31 217 -7.4 87 -9.2 0 0 984.6 NA 0.0000 9999 1570 2460 0 0
2019/08/08 10:45:00 BASE 6.15 223 9.31 217 -7.4 87 -9.2 0 0 984.6 NA 0.0000 9999 1710 0 0 0
2019/08/08 10:46:00 BASE 5.20 226 9.31 217 -7.4 87 -9.2 0 0 984.6 NA 0.0000 9999 1970 0 0 0
2019/08/08 10:47:00 BASE 4.72 232 9.31 217 -7.4 87 -9.2 0 0 984.6 NA 0.0000 9999 1800 0 0 0
2019/08/08 10:48:00 BASE 4.26 229 9.31 217 -7.4 87 -9.2 0 0 984.6 NA 0.0000 9999 1710 0 0 0
2019/08/08 10:49:00 BASE 3.95 223 9.31 217 -7.5 87 -9.3 0 0 984.6 NA 0.0000 9999 1640 0 0 0
2019/08/08 10:50:00 BASE 4.49 212 9.11 217 -7.5 87 -9.3 0 0 984.6 NA 0.0000 9999 1640 0 0 0
2019/08/08 10:51:00 BASE 4.73 200 7.87 212 -7.5 87 -9.3 0 0 984.6 NA 0.0000 9999 1640 0 0 0
2019/08/08 10:52:00 BASE 5.48 205 7.87 212 -7.5 87 -9.3 0 0 984.6 NA 0.0000 9999 1510 0 0 0
2019/08/08 10:53:00 BASE 6.34 204 7.87 212 -7.5 87 -9.3 0 0 984.6 NA 0.0000 9999 1510 0 0 0
2019/08/08 10:54:00 BASE 5.94 204 7.25 202 -7.5 87 -9.3 0 0 984.6 NA 0.0000 9999 1540 0 0 0
2019/08/08 10:55:00 BASE 5.22 210 7.25 202 -7.5 87 -9.3 0 0 984.6 NA 0.0000 9999 1480 0 0 0
2019/08/08 10:56:00 BASE 4.54 213 7.25 202 -7.5 87 -9.2 0 0 984.6 NA 0.0000 9999 1480 0 0 0
2019/08/08 10:57:00 BASE 4.21 216 7.25 202 -7.5 87 -9.2 0 0 984.7 NA 0.0000 9999 1440 0 0 0
2019/08/08 10:58:00 BASE 4.03 209 7.25 202 -7.5 88 -9.2 0 0 984.7 NA 0.0000 9999 1440 0 0 0
2019/08/08 10:59:00 BASE 5.44 203 7.97 218 -7.5 88 -9.2 0 0 984.6 NA 0.0000 9999 1440 0 0 0
2019/08/08 11:00:00 BASE 5.87 214 7.97 218 -7.5 88 -9.1 0 0 984.6 NA 0.0000 9999 1510 0 0 0
2019/08/08 11:01:00 BASE 4.74 214 7.97 218 -7.5 88 -9.1 0 0 984.6 NA 0.0000 9999 1250 0 0 0
2019/08/08 11:02:00 BASE 4.24 209 7.97 218 -7.5 88 -9.1 0 0 984.6 NA 0.0000 9999 1250 0 0 0
2019/08/08 11:03:00 BASE 3.96 211 7.97 218 -7.5 88 -9.1 0 0 984.6 NA 0.0000 9999 1380 0 0 0
2019/08/08 11:04:00 BASE 4.33 205 7.97 218 -7.5 88 -9.1 0 0 984.6 NA 0.0000 9999 1540 0 0 0
2019/08/08 11:05:00 BASE 5.15 199 7.97 218 -7.5 88 -9.1 0 0 984.6 NA 0.0000 9999 1510 0 0 0
2019/08/08 11:06:00 BASE 5.80 199 7.97 218 -7.5 88 -9.1 0 0 984.7 NA 0.0000 9999 1610 0 0 0
2019/08/08 11:07:00 BASE 6.42 202 8.28 199 -7.5 88 -9.1 0 0 984.7 NA 0.0000 9999 1440 0 0 0
2019/08/08 11:08:00 BASE 7.08 204 8.39 202 -7.5 88 -9.1 0 0 984.7 NA 0.0000 9999 1480 0 0 0
2019/08/08 11:09:00 BASE 6.74 200 8.39 202 -7.5 88 -9.2 0 0 984.7 NA 0.0000 9999 1410 0 0 0
2019/08/08 11:10:00 BASE 5.35 186 8.39 202 -7.5 87 -9.2 0 0 984.6 NA 0.0000 9999 1280 0 0 0
2019/08/08 11:11:00 BASE 4.14 182 8.39 202 -7.5 87 -9.3 0 0 984.6 NA 0.0000 9999 1380 0 0 0
2019/08/08 11:12:00 BASE 4.01 191 8.39 202 -7.5 87 -9.3 0 0 984.7 NA 0.0000 9999 1480 0 0 0
2019/08/08 11:13:00 BASE 4.73 193 8.39 202 -7.6 87 -9.3 0 0 984.7 NA 0.0000 9999 1280 0 0 0
2019/08/08 11:14:00 BASE 5.01 196 8.39 202 -7.6 87 -9.4 0 0 984.7 NA 0.0000 9999 1350 0 0 0
2019/08/08 11:15:00 BASE 4.30 198 8.39 202 -7.6 87 -9.4 0 0 984.7 NA 0.0000 9999 1250 0 0 0
2019/08/08 11:16:00 BASE 3.28 192 8.39 202 -7.6 87 -9.3 0 0 984.7 NA 0.0000 9999 1380 0 0 0
2019/08/08 11:17:00 BASE 2.69 186 8.39 202 -7.6 87 -9.3 0 0 984.7 NA 0.0000 9999 1410 0 0 0
2019/08/08 11:18:00 BASE 2.97 186 7.05 195 -7.6 87 -9.3 0 0 984.7 NA 0.0000 9999 1440 0 0 0
2019/08/08 11:19:00 BASE 3.81 187 6.48 192 -7.6 87 -9.3 0 0 984.7 NA 0.0000 9999 1570 0 0 0
2019/08/08 11:20:00 BASE 4.30 184 6.48 192 -7.6 88 -9.3 0 0 984.7 NA 0.0000 9999 1440 0 0 0
2019/08/08 11:21:00 BASE 4.90 187 6.48 192 -7.6 88 -9.3 0 0 984.7 NA 0.0000 9999 1480 0 0 0
2019/08/08 11:22:00 BASE 5.37 194 6.48 192 -7.6 88 -9.2 0 0 984.7 NA 0.0000 9999 1440 0 0 0
2019/08/08 11:23:00 BASE 4.47 213 6.28 186 -7.6 88 -9.2 0 0 984.8 NA 0.0000 9999 1480 0 0 0
2019/08/08 11:24:00 BASE 3.42 240 6.28 186 -7.6 88 -9.2 0 0 984.8 NA 0.0000 9999 1510 0 0 0
2019/08/08 11:25:00 BASE 3.31 247 6.28 186 -7.6 88 -9.2 0 0 984.8 NA 0.0000 9999 1540 0 0 0
2019/08/08 11:26:00 BASE 3.08 245 6.28 186 -7.6 88 -9.2 0 0 984.8 NA 0.0000 9999 1480 0 0 0
2019/08/08 11:27:00 BASE 3.14 241 6.28 186 -7.6 88 -9.2 0 0 984.7 NA 0.0000 9999 1510 0 0 0
2019/08/08 11:28:00 BASE 3.76 241 6.28 186 -7.6 88 -9.2 0 0 984.7 NA 0.0000 9999 1280 0 0 0
2019/08/08 11:29:00 BASE 3.52 234 6.28 186 -7.6 88 -9.2 0 0 984.7 NA 0.0000 9999 1410 0 0 0
2019/08/08 11:30:00 BASE 3.86 223 6.28 186 -7.6 88 -9.2 0 0 984.7 NA 0.0000 9999 1480 0 0 0
2019/08/08 11:31:00 BASE 4.79 220 5.71 193 -7.6 88 -9.2 0 0 984.7 NA 0.0000 9999 1510 0 0 0
2019/08/08 11:32:00 BASE 4.77 228 5.56 205 -7.6 88 -9.1 0 0 984.7 NA 0.0000 9999 1380 0 0 0
2019/08/08 11:33:00 BASE 4.19 236 5.56 205 -7.6 89 -9.1 0 0 984.7 NA 0.0000 9999 1440 0 0 0
2019/08/08 11:34:00 BASE 3.78 234 5.56 205 -7.6 89 -9.1 0 0 984.7 NA 0.0000 9999 1280 0 0 0
2019/08/08 11:35:00 BASE 3.06 237 5.56 205 -7.6 89 -9.1 0 0 984.7 NA 0.0000 9999 1480 0 0 0
2019/08/08 11:36:00 BASE 2.19 242 5.56 205 -7.6 89 -9.1 0 0 984.7 NA 0.0000 9999 1380 0 0 0
2019/08/08 11:37:00 BASE 2.71 239 5.56 205 -7.6 89 -9.1 0 0 984.7 NA 0.0000 9999 1350 0 0 0
2019/08/08 11:38:00 BASE 3.61 234 5.56 205 -7.6 89 -9.1 0 0 984.7 NA 0.0000 9999 1310 0 0 0
2019/08/08 11:39:00 BASE 3.57 227 5.56 205 -7.6 89 -9.1 0 0 984.7 NA 0.0000 9999 1380 0 0 0
2019/08/08 11:40:00 BASE 4.11 218 8.49 213 -7.6 89 -9.1 0 0 984.7 NA 0.0000 9999 1380 0 0 0
2019/08/08 11:41:00 BASE 5.55 223 8.49 213 -7.5 89 -9.0 0 0 984.7 NA 0.0000 9999 1410 0 0 0
2019/08/08 11:42:00 BASE 6.17 229 8.49 213 -7.5 89 -9.0 0 0 984.8 NA 0.0000 9999 1440 0 0 0
2019/08/08 11:43:00 BASE 6.17 220 8.49 213 -7.5 89 -9.0 0 0 984.8 NA 0.0000 9999 1250 0 0 0
2019/08/08 11:44:00 BASE 5.20 216 8.49 213 -7.5 89 -9.0 0 0 984.8 NA 0.0000 9999 1210 0 0 0
2019/08/08 11:45:00 BASE 4.24 205 8.49 213 -7.6 89 -9.1 0 0 984.8 NA 0.0000 9999 1180 0 0 0
2019/08/08 11:46:00 BASE 4.39 191 8.49 213 -7.6 89 -9.1 0 0 984.8 NA 0.0000 9999 1350 0 0 0
2019/08/08 11:47:01 BASE 5.24 192 8.49 213 -7.6 89 -9.1 0 0 984.8 NA 0.0000 9999 1380 0 0 0
2019/08/08 11:48:01 BASE 6.00 198 8.49 213 -7.7 89 -9.1 0 0 984.8 NA 0.0000 9999 1380 0 0 0
2019/08/08 11:49:01 BASE 6.30 207 8.49 213 -7.7 89 -9.1 0 0 984.8 NA 0.0000 9999 1350 0 0 0
2019/08/08 11:50:01 BASE 6.11 206 7.72 219 -7.7 90 -9.1 0 0 984.8 NA 0.0000 9999 1350 0 0 0
2019/08/08 11:51:01 BASE 5.10 203 7.15 205 -7.7 90 -9.1 0 0 984.8 NA 0.0000 9999 1380 0 0 0
2019/08/08 11:52:01 BASE 4.26 198 7.15 205 -7.7 90 -9.1 0 0 984.8 NA 0.0000 9999 1350 0 0 0
2019/08/08 11:53:01 BASE 4.66 191 7.15 205 -7.7 90 -9.1 0 0 984.8 NA 0.0000 9999 1410 0 0 0
2019/08/08 11:54:01 BASE 5.70 195 7.15 205 -7.7 90 -9.1 0 0 984.8 NA 0.0000 9999 1410 0 0 0
2019/08/08 11:55:01 BASE 5.94 202 7.15 203 -7.7 90 -9.0 0 0 984.8 NA 0.0000 9999 1410 0 0 0
2019/08/08 11:56:01 BASE 6.10 206 7.15 203 -7.6 90 -9.0 0 0 984.8 NA 0.0000 9999 1380 0 0 0
2019/08/08 11:57:01 BASE 6.81 206 8.03 204 -7.6 90 -9.0 0 0 984.8 NA 0.0000 9999 1310 0 0 0
2019/08/08 11:58:01 BASE 6.71 211 8.03 204 -7.6 90 -9.0 0 0 984.8 NA 0.0000 9999 1350 0 0 0
2019/08/08 11:59:01 BASE 5.50 206 8.03 204 -7.6 90 -9.0 0 0 984.8 NA 0.0000 9999 1310 0 0 0
2019/08/08 12:00:01 BASE 5.18 196 8.03 204 -7.6 90 -9.0 0 0 984.8 NA 0.0000 9999 1380 0 0 0
2019/08/08 12:01:01 BASE 6.10 208 8.03 204 -7.7 90 -9.0 0 0 984.8 NA 0.0000 9999 1380 0 0 0
2019/08/08 12:02:01 BASE 6.34 222 8.03 204 -7.7 90 -9.0 0 0 984.8 NA 0.0000 9999 1380 0 0 0
2019/08/08 12:03:01 BASE 6.35 230 8.03 204 -7.7 90 -9.1 0 0 984.8 NA 0.0000 9999 1210 0 0 0
2019/08/08 12:04:01 BASE 6.99 233 8.03 204 -7.7 90 -9.1 0 0 984.8 NA 0.0000 9999 1250 0 0 0
2019/08/08 12:05:01 BASE 6.52 233 8.03 204 -7.7 90 -9.1 0 0 984.8 NA 0.0000 9999 1280 0 0 0
2019/08/08 12:06:01 BASE 5.67 230 8.03 204 -7.8 90 -9.1 1 0 984.8 NA 0.0000 9999 1410 0 0 0
2019/08/08 12:07:01 BASE 4.86 224 7.82 226 -7.8 90 -9.1 1 0 984.8 NA 0.0000 9999 1440 0 0 0
2019/08/08 12:08:01 BASE 3.35 213 7.82 226 -7.8 90 -9.1 1 0 984.8 NA 0.0000 9999 1150 0 0 0
2019/08/08 12:09:01 BASE 2.35 202 7.82 226 -7.8 90 -9.2 1 0 984.8 NA 0.0000 9999 1180 0 0 0
2019/08/08 12:10:01 BASE 1.71 187 7.82 226 -7.8 90 -9.2 1 0 984.8 NA 0.0000 9999 1210 0 0 0
2019/08/08 12:11:01 BASE 0.64 165 7.77 230 -7.8 90 -9.2 1 0 984.8 NA 0.0000 9999 1250 0 0 0
2019/08/08 12:12:01 BASE 0.26 174 7.77 230 -7.8 90 -9.2 1 0 984.8 NA 0.0000 9999 1280 0 0 0
2019/08/08 12:13:01 BASE 0.98 205 7.77 230 -7.8 90 -9.2 1 0 984.8 NA 0.0000 9999 1280 0 0 0
2019/08/08 12:14:01 BASE 1.11 221 6.58 227 -7.8 90 -9.2 1 0 984.7 NA 0.0000 9999 1250 0 0 0
2019/08/08 12:15:01 BASE 0.39 212 6.58 227 -7.8 90 -9.2 1 0 984.7 NA 0.0000 9999 1280 0 0 0
2019/08/08 12:16:01 BASE 0.00 185 4.68 232 -7.8 90 -9.1 1 0 984.7 NA 0.0000 9999 1280 0 0 0
2019/08/08 12:17:01 BASE 0.00 179 3.19 216 -7.8 91 -9.1 1 0 984.7 NA 0.0000 9999 1250 0 0 0
2019/08/08 12:18:01 BASE 0.00 192 2.52 200 -7.8 91 -9.0 1 0 984.7 NA 0.0000 9999 1250 0 0 0
2019/08/08 12:19:01 BASE 0.14 212 1.90 180 -7.8 91 -9.0 1 0 984.7 NA 0.0000 9999 1280 0 0 0
2019/08/08 12:20:01 BASE 0.98 217 4.53 204 -7.8 91 -9.0 1 0 984.6 NA 0.0000 9999 1280 0 0 0
2019/08/08 12:21:01 BASE 3.16 204 5.25 177 -7.8 91 -9.0 1 0 984.6 NA 0.0000 9999 1310 0 0 0
2019/08/08 12:22:01 BASE 4.10 208 5.25 177 -7.8 91 -9.0 1 0 984.6 NA 0.0000 9999 1310 0 0 0
2019/08/08 12:23:01 BASE 3.30 215 5.25 177 -7.8 91 -9.0 2 0 984.6 NA 0.0000 9999 1350 0 0 0
2019/08/08 12:24:01 BASE 3.12 222 5.25 177 -7.7 91 -8.9 2 0 984.6 NA 0.0000 9999 1350 0 0 0
2019/08/08 12:25:01 BASE 3.17 230 5.25 177 -7.7 91 -8.9 2 0 984.6 NA 0.0000 9999 1310 0 0 0
2019/08/08 12:26:01 BASE 3.17 216 5.25 177 -7.7 91 -8.9 2 0 984.6 NA 0.0000 9999 1280 0 0 0
2019/08/08 12:27:01 BASE 4.05 200 5.71 199 -7.7 91 -8.9 2 0 984.6 NA 0.0000 9999 1280 0 0 0
2019/08/08 12:28:01 BASE 5.22 201 6.02 215 -7.7 92 -8.9 2 0 984.6 NA 0.0000 9999 1180 0 0 0
2019/08/08 12:29:01 BASE 4.48 205 6.02 215 -7.7 92 -8.8 2 0 984.6 NA 0.0000 9999 1120 0 0 0
2019/08/08 12:30:01 BASE 2.58 205 6.02 215 -7.8 92 -8.8 2 0 984.6 NA 0.0000 9999 1250 0 0 0
2019/08/08 12:31:00 BASE 1.82 198 6.02 215 -7.8 92 -8.9 2 0 984.6 NA 0.0000 9999 1380 0 0 0
2019/08/08 12:32:01 BASE 1.53 183 6.02 215 -7.8 92 -8.9 2 0 984.6 NA 0.0000 9999 1280 0 0 0
2019/08/08 12:33:01 BASE 1.31 177 6.02 215 -7.8 92 -8.9 2 0 984.6 NA 0.0000 9999 1250 0 0 0
2019/08/08 12:34:01 BASE 1.76 185 6.02 215 -7.8 91 -8.9 2 0 984.6 NA 0.0000 9999 1210 0 0 0
2019/08/08 12:35:01 BASE 2.30 200 6.02 215 -7.8 91 -9.0 2 0 984.6 NA 0.0000 9999 1210 0 0 0
2019/08/08 12:36:01 BASE 1.94 191 6.02 215 -7.8 91 -9.0 2 0 984.6 NA 0.0000 9999 1150 0 0 0
2019/08/08 12:37:01 BASE 0.88 167 6.02 215 -7.8 91 -9.0 3 0 984.6 NA 0.0000 9999 1250 0 0 0
2019/08/08 12:38:01 BASE 0.25 153 4.99 208 -7.8 91 -9.0 3 0 984.6 NA 0.0000 9999 1120 0 0 0
2019/08/08 12:39:01 BASE 0.13 148 3.45 210 -7.7 91 -9.0 3 0 984.6 NA 0.0000 9999 1250 0 0 0
2019/08/08 12:40:01 BASE 0.38 156 3.45 210 -7.7 91 -9.0 3 0 984.6 NA 0.0000 9999 1280 0 0 0
2019/08/08 12:41:01 BASE 0.58 180 3.45 210 -7.7 91 -9.0 3 0 984.6 NA 0.0000 9999 1210 0 0 0
2019/08/08 12:42:01 BASE 0.84 205 3.45 210 -7.7 91 -8.9 3 0 984.6 NA 0.0000 9999 1150 0 0 0
2019/08/08 12:43:01 BASE 1.28 241 3.45 210 -7.8 91 -8.9 4 0 984.6 NA 0.0000 9999 1250 0 0 0
2019/08/08 12:44:01 BASE 1.46 270 3.45 210 -7.8 92 -8.9 4 0 984.6 NA 0.0000 9999 1210 0 0 0
2019/08/08 12:45:01 BASE 1.16 266 2.16 178 -7.8 92 -8.9 4 0 984.6 NA 0.0000 9999 1250 0 0 0
2019/08/08 12:46:01 BASE 0.44 239 1.85 201 -7.8 92 -8.8 4 0 984.6 NA 0.0000 9999 1280 0 0 0
2019/08/08 12:47:01 BASE 0.00 194 1.85 201 -7.8 92 -8.8 4 0 984.6 NA 0.0000 9999 1280 0 0 0
2019/08/08 12:48:01 BASE 0.00 172 1.85 201 -7.8 92 -8.8 4 0 984.5 NA 0.0000 9999 1180 0 0 0
2019/08/08 12:49:01 BASE 0.00 172 1.85 201 -7.7 92 -8.8 4 0 984.5 NA 0.0000 9999 1250 0 0 0
2019/08/08 12:50:01 BASE 0.00 225 1.85 201 -7.7 92 -8.8 4 0 984.5 NA 0.0000 9999 1280 0 0 0
2019/08/08 12:51:01 BASE 0.00 288 1.85 201 -7.7 92 -8.8 5 0 984.5 NA 0.0000 9999 1310 0 0 0
2019/08/08 12:52:01 BASE 0.00 291 1.75 264 -7.7 92 -8.8 5 0 984.5 NA 0.0000 9999 1310 0 0 0
2019/08/08 12:53:01 BASE 0.00 294 1.75 264 -7.7 92 -8.8 5 0 984.5 NA 0.0000 9999 1310 0 0 0
2019/08/08 12:54:01 BASE 0.00 300 1.65 268 -7.7 92 -8.8 5 0 984.5 NA 0.0000 9999 1210 0 0 0
2019/08/08 12:55:01 BASE 0.00 298 M M -7.7 92 -8.8 5 0 984.5 NA 0.0000 9999 1280 0 0 0
2019/08/08 12:56:01 BASE 0.17 253 1.54 146 -7.7 92 -8.8 5 0 984.5 NA 0.0000 9999 1280 0 0 0
2019/08/08 12:57:01 BASE 0.70 153 1.65 145 -7.7 92 -8.8 5 0 984.5 NA 0.0000 9999 1280 0 0 0
2019/08/08 12:58:01 BASE 1.52 139 2.62 174 -7.7 92 -8.8 5 0 984.5 NA 0.0000 9999 1280 0 0 0
2019/08/08 12:59:01 BASE 2.56 161 3.45 180 -7.7 92 -8.8 6 0 984.5 NA 0.0000 9999 1280 0 0 0
2019/08/08 13:00:01 BASE 3.26 187 4.12 189 -7.7 92 -8.8 6 0 984.5 NA 0.0000 9999 1250 0 0 0
2019/08/08 13:01:01 BASE 2.86 191 4.12 189 -7.7 92 -8.8 6 0 984.6 NA 0.0000 9999 1280 0 0 0
2019/08/08 13:02:01 BASE 2.69 186 4.12 189 -7.8 92 -8.8 7 0 984.6 NA 0.0000 9999 1280 0 0 0
2019/08/08 13:03:01 BASE 2.88 183 4.12 189 -7.8 92 -8.8 7 0 984.6 NA 0.0000 9999 1310 0 0 0
2019/08/08 13:04:01 BASE 2.66 194 4.12 189 -7.8 92 -8.9 8 0 984.6 NA 0.0000 9999 1350 0 0 0
2019/08/08 13:05:01 BASE 2.73 215 4.12 189 -7.8 92 -8.8 8 0 984.6 NA 0.0000 9999 1350 0 0 0
2019/08/08 13:06:01 BASE 2.76 244 4.12 189 -7.8 92 -8.8 9 0 984.6 NA 0.0000 9999 1350 0 0 0
2019/08/08 13:07:01 BASE 2.30 264 4.12 189 -7.8 93 -8.7 9 0 984.6 NA 0.0000 9999 1350 0 0 0
2019/08/08 13:08:01 BASE 2.51 258 4.84 257 -7.7 93 -8.7 9 0 984.6 NA 0.0000 9999 1310 0 0 0
2019/08/08 13:09:01 BASE 3.25 243 4.84 257 -7.7 93 -8.7 9 0 984.6 NA 0.0000 9999 1350 0 0 0
2019/08/08 13:10:01 BASE 3.41 245 4.84 257 -7.7 93 -8.6 9 0 984.6 NA 0.0000 9999 1280 0 0 0
2019/08/08 13:11:01 BASE 3.52 264 4.84 257 -7.7 93 -8.6 9 0 984.6 NA 0.0000 9999 1280 0 0 0
2019/08/08 13:12:01 BASE 3.33 269 4.84 257 -7.7 93 -8.6 10 0 984.6 NA 0.0000 9999 1280 0 0 0
2019/08/08 13:13:01 BASE 3.15 254 4.84 257 -7.7 93 -8.6 10 0 984.7 NA 0.0000 9999 1310 0 0 0
2019/08/08 13:14:01 BASE 3.01 237 4.84 257 -7.7 93 -8.6 11 0 984.7 NA 0.0000 9999 1210 0 0 0
2019/08/08 13:15:01 BASE 2.15 226 4.84 257 -7.7 93 -8.6 12 0 984.7 NA 0.0000 9999 1180 0 0 0
2019/08/08 13:16:01 BASE 1.68 219 4.84 257 -7.7 93 -8.6 12 0 984.7 NA 0.0000 9999 1210 0 0 0
2019/08/08 13:17:01 BASE 1.55 214 4.84 257 -7.7 93 -8.6 12 0 984.7 NA 0.0000 9999 1280 0 0 0
2019/08/08 13:18:01 BASE 1.29 222 4.48 232 -7.7 93 -8.6 12 0 984.7 NA 0.0000 9999 1280 0 0 0
2019/08/08 13:19:01 BASE 1.27 232 4.12 259 -7.7 93 -8.6 12 0 984.7 NA 0.0000 9999 1250 0 0 0
2019/08/08 13:20:01 BASE 1.67 237 4.12 259 -7.7 93 -8.6 12 0 984.7 NA 0.0000 9999 1280 0 0 0
2019/08/08 13:21:01 BASE 2.21 251 3.91 233 -7.7 93 -8.6 12 0 984.7 NA 0.0000 9999 1280 0 0 0
2019/08/08 13:22:01 BASE 2.66 267 3.91 233 -7.7 93 -8.6 13 0 984.7 NA 0.0000 9999 1280 0 0 0
2019/08/08 13:23:01 BASE 3.22 268 4.32 255 -7.7 93 -8.6 13 0 984.7 NA 0.0000 9999 1250 0 0 0
2019/08/08 13:24:01 BASE 3.67 257 5.04 257 -7.7 93 -8.6 13 0 984.7 NA 0.0000 9999 1250 0 0 0
2019/08/08 13:25:01 BASE 3.50 251 5.04 257 -7.7 93 -8.6 13 0 984.8 NA 0.0000 9999 1250 0 0 0
2019/08/08 13:26:01 BASE 2.64 256 5.04 257 -7.7 93 -8.6 13 0 984.8 NA 0.0000 9999 1280 0 0 0
2019/08/08 13:27:01 BASE 2.40 262 5.04 257 -7.7 93 -8.6 12 0 984.8 NA 0.0000 9999 1350 0 0 0
2019/08/08 13:28:01 BASE 3.17 262 5.04 257 -7.7 93 -8.7 12 0 984.8 NA 0.0000 9999 1310 0 0 0
2019/08/08 13:29:01 BASE 3.84 258 5.04 257 -7.7 93 -8.7 13 0 984.8 NA 0.0000 9999 1380 0 0 0
2019/08/08 13:30:01 BASE 4.80 250 6.48 250 -7.7 93 -8.7 13 0 984.8 NA 0.0000 9999 1380 0 0 0
2019/08/08 13:31:01 BASE 5.59 252 6.48 250 -7.7 93 -8.6 14 0 984.8 NA 0.0000 9999 1380 0 0 0
2019/08/08 13:32:01 BASE 5.79 252 6.53 239 -7.7 93 -8.6 14 0 984.8 NA 0.0000 9999 1410 0 0 0
2019/08/08 13:33:01 BASE 6.05 253 6.74 258 -7.7 93 -8.6 14 0 984.7 NA 0.0000 9999 1410 0 0 0
2019/08/08 13:34:01 BASE 5.67 254 6.74 258 -7.7 93 -8.6 15 0 984.8 NA 0.0000 9999 1380 0 0 0
2019/08/08 13:35:01 BASE 5.52 251 6.74 258 -7.7 93 -8.7 15 0 984.7 NA 0.0000 9999 1380 0 0 0
2019/08/08 13:36:01 BASE 6.00 249 6.74 258 -7.8 93 -8.7 16 0 984.7 NA 0.0000 9999 1380 0 0 0
2019/08/08 13:37:01 BASE 5.46 247 6.74 258 -7.8 93 -8.7 16 0 984.7 NA 0.0000 9999 1350 0 0 0
2019/08/08 13:38:01 BASE 4.70 246 6.74 258 -7.8 93 -8.8 16 0 984.6 NA 0.0000 9999 1310 0 0 0
2019/08/08 13:39:01 BASE 4.65 241 6.74 258 -7.8 93 -8.8 17 0 984.7 NA 0.0000 9999 1280 0 0 0
2019/08/08 13:40:01 BASE 4.11 240 6.74 258 -7.8 92 -8.8 18 0 984.7 NA 0.0000 9999 1180 0 0 0
2019/08/08 13:41:01 BASE 3.02 244 6.74 258 -7.8 92 -8.8 18 0 984.7 NA 0.0000 9999 1150 0 0 0
2019/08/08 13:42:01 BASE 2.74 242 6.74 258 -7.8 92 -8.9 19 0 984.7 NA 0.0000 9999 1180 0 0 0
2019/08/08 13:43:01 BASE 2.92 235 6.58 248 -7.8 92 -8.9 20 0 984.7 NA 0.0000 9999 1180 0 0 0
2019/08/08 13:44:01 BASE 2.57 224 6.58 248 -7.8 92 -8.9 20 0 984.7 NA 0.0000 9999 1180 0 0 0
2019/08/08 13:45:01 BASE 2.21 215 6.58 248 -7.8 92 -8.9 22 0 984.6 NA 0.0000 9999 1210 0 0 0
2019/08/08 13:46:01 BASE 2.35 222 5.81 245 -7.8 92 -8.9 24 0 984.6 NA 0.0000 9999 1150 0 0 0
2019/08/08 13:47:01 BASE 1.35 219 5.25 245 -7.8 91 -9.0 27 0 984.6 NA 0.0000 9999 1280 0 0 0
2019/08/08 13:48:01 BASE 0.09 135 5.14 235 -7.8 91 -9.0 29 0 984.6 NA 0.0000 9999 1280 0 0 0
2019/08/08 13:49:01 BASE 0.04 73 4.73 238 -7.8 91 -9.0 30 0 984.5 NA 0.0000 9999 1280 0 0 0
2019/08/08 13:50:01 BASE 0.00 38 3.45 225 -7.8 91 -9.0 30 0 984.5 NA 0.0000 9999 1280 0 0 0
2019/08/08 13:51:01 BASE 0.00 303 3.45 225 -7.8 91 -9.0 30 0 984.5 NA 0.0000 9999 1310 0 0 0
2019/08/08 13:52:01 BASE 0.00 275 3.45 225 -7.8 91 -9.0 28 0 984.5 NA 0.0000 9999 1310 0 0 0
2019/08/08 13:53:01 BASE 0.00 269 3.45 225 -7.8 91 -9.0 28 0 984.5 NA 0.0000 9999 1310 0 0 0
2019/08/08 13:54:01 BASE 0.00 261 3.45 225 -7.8 91 -9.0 27 0 984.5 NA 0.0000 9999 1350 0 0 0
2019/08/08 13:55:01 BASE 0.54 200 3.45 225 -7.8 91 -9.0 28 0 984.5 NA 0.0000 9999 1380 0 0 0
2019/08/08 13:56:01 BASE 1.40 145 2.31 134 -7.8 91 -9.0 30 0 984.5 NA 0.0000 9999 1350 0 0 0
2019/08/08 13:57:01 BASE 2.23 139 3.29 140 -7.8 91 -9.0 32 0 984.5 NA 0.0000 9999 1410 0 0 0
2019/08/08 13:58:01 BASE 2.75 139 3.29 140 -7.8 91 -9.0 35 0 984.4 NA 0.0000 9999 1410 0 0 0
2019/08/08 13:59:01 BASE 2.73 141 3.29 140 -7.8 91 -9.1 38 0 984.5 NA 0.0000 9999 1410 0 0 0
2019/08/08 14:00:01 BASE 2.39 141 3.29 140 -7.9 91 -9.1 39 0 984.6 NA 0.0000 9999 1380 0 0 0
2019/08/08 14:01:01 BASE 1.79 146 3.29 140 -7.9 91 -9.1 39 0 984.6 NA 0.0000 9999 1380 22540 0 0
2019/08/08 14:02:01 BASE 1.57 155 3.29 140 -7.9 91 -9.2 38 0 984.6 NA 0.0000 9999 1350 0 0 0
2019/08/08 14:03:01 BASE 1.79 172 3.29 140 -8.0 91 -9.2 36 0 984.6 NA 0.0000 9999 1350 0 0 0
2019/08/08 14:04:01 BASE 1.96 196 3.65 226 -8.0 91 -9.2 35 0 984.5 NA 0.0000 9999 1380 0 0 0
2019/08/08 14:05:01 BASE 1.82 220 3.65 226 -7.9 91 -9.1 33 0 984.5 NA 0.0000 9999 1380 0 0 0
2019/08/08 14:06:01 BASE 1.66 249 3.65 226 -7.9 91 -9.1 33 0 984.6 NA 0.0000 9999 1350 0 0 0
2019/08/08 14:07:01 BASE 0.99 257 3.65 226 -7.8 91 -9.1 33 0 984.6 NA 0.0000 9999 1310 0 0 0
2019/08/08 14:08:01 BASE 0.24 247 3.65 226 -7.8 91 -9.0 32 0 984.6 NA 0.0000 9999 1280 0 0 0
2019/08/08 14:09:01 BASE 0.26 253 3.65 226 -7.8 91 -9.0 32 0 984.6 NA 0.0000 9999 1280 0 0 0
2019/08/08 14:10:01 BASE 0.70 286 3.65 226 -7.8 91 -9.0 32 0 984.6 NA 0.0000 9999 1310 0 0 0
2019/08/08 14:11:01 BASE 0.98 319 3.65 226 -7.7 91 -9.0 33 0 984.6 NA 0.0000 9999 1310 0 0 0
2019/08/08 14:12:01 BASE 1.25 321 3.65 226 -7.7 91 -9.0 33 0 984.6 NA 0.0000 9999 1280 0 0 0
2019/08/08 14:13:01 BASE 1.58 317 3.65 226 -7.7 91 -8.9 34 0 984.6 NA 0.0000 9999 1350 0 0 0
2019/08/08 14:14:01 BASE 0.79 316 2.31 255 -7.7 91 -8.9 35 0 984.5 NA 0.0000 9999 1380 0 0 0
2019/08/08 14:15:01 BASE 0.00 315 2.31 255 -7.7 92 -8.9 36 0 984.5 NA 0.0000 9999 1310 0 0 0
2019/08/08 14:16:01 BASE 0.00 325 1.95 324 -7.7 92 -8.8 37 0 984.5 NA 0.0000 9999 1280 0 0 0
2019/08/08 14:17:01 BASE 0.76 312 2.01 284 -7.7 92 -8.8 37 0 984.5 NA 0.0000 9999 1280 0 0 0
2019/08/08 14:18:01 BASE 1.57 280 2.31 273 -7.7 92 -8.8 36 0 984.5 NA 0.0000 9999 1280 0 0 0
2019/08/08 14:19:01 BASE 1.55 281 2.31 273 -7.7 92 -8.7 35 0 984.5 NA 0.0000 9999 1280 0 0 0
2019/08/08 14:20:01 BASE 1.77 300 2.47 306 -7.7 92 -8.7 35 0 984.5 NA 0.0000 9999 1250 0 0 0
2019/08/08 14:21:01 BASE 2.12 304 3.96 262 -7.7 92 -8.7 35 0 984.5 NA 0.0000 9999 1250 0 0 0
2019/08/08 14:22:01 BASE 2.19 251 3.96 262 -7.7 92 -8.7 35 0 984.5 NA 0.0000 9999 1280 0 0 0
2019/08/08 14:23:01 BASE 2.17 201 3.96 262 -7.7 92 -8.7 36 0 984.6 NA 0.0000 9999 1250 0 0 0
2019/08/08 14:24:01 BASE 1.28 185 3.96 262 -7.7 92 -8.7 37 0 984.5 NA 0.0000 9999 1250 0 0 0
2019/08/08 14:25:01 BASE 0.80 132 3.96 262 -7.7 92 -8.8 38 0 984.5 NA 0.0000 9999 1280 0 0 0
2019/08/08 14:26:01 BASE 1.22 117 3.96 262 -7.7 92 -8.8 39 0 984.4 NA 0.0000 9999 1310 0 0 0
2019/08/08 14:27:01 BASE 0.77 135 3.96 262 -7.7 92 -8.8 39 0 984.5 NA 0.0000 9999 1310 0 0 0
2019/08/08 14:28:01 BASE 0.14 123 3.96 262 -7.8 92 -8.9 39 0 984.5 NA 0.0000 9999 1350 0 0 0
2019/08/08 14:29:01 BASE 0.60 144 3.96 262 -7.8 92 -8.9 39 0 984.5 NA 0.0000 9999 1350 0 0 0
2019/08/08 14:30:01 BASE 1.96 217 3.96 262 -7.8 92 -8.9 39 0 984.5 NA 0.0000 9999 1310 0 0 0
2019/08/08 14:31:01 BASE 3.25 239 6.22 243 -7.8 92 -8.9 39 0 984.4 NA 0.0000 9999 1310 0 0 0
2019/08/08 14:32:01 BASE 4.16 251 6.22 243 -7.8 92 -8.8 38 0 984.4 NA 0.0000 9999 1280 0 0 0
2019/08/08 14:33:01 BASE 4.42 240 6.22 243 -7.8 93 -8.8 38 0 984.4 NA 0.0000 9999 1310 0 0 0
2019/08/08 14:34:01 BASE 4.34 224 6.22 243 -7.8 93 -8.8 38 0 984.3 NA 0.0000 9999 1150 0 0 0
2019/08/08 14:35:01 BASE 4.47 219 6.22 243 -7.8 93 -8.7 38 0 984.3 NA 0.0000 9999 1150 0 0 0
2019/08/08 14:36:01 BASE 3.96 216 6.22 243 -7.8 93 -8.8 39 0 984.3 NA 0.0000 9999 1180 0 0 0
2019/08/08 14:37:01 BASE 2.44 203 6.22 243 -7.8 93 -8.8 40 0 984.3 NA 0.0000 9999 1250 0 0 0
2019/08/08 14:38:01 BASE 0.75 188 6.22 243 -7.8 92 -8.8 41 0 984.3 NA 0.0000 9999 1150 0 0 0
2019/08/08 14:39:01 BASE 0.00 237 6.22 243 -7.8 92 -8.8 41 0 984.3 NA 0.0000 9999 1250 0 0 0
2019/08/08 14:40:01 BASE 0.05 294 6.22 243 -7.8 92 -8.9 42 0 984.3 NA 0.0000 9999 1310 0 0 0
2019/08/08 14:41:01 BASE 0.09 298 5.30 254 -7.8 92 -8.9 43 0 984.3 NA 0.0000 9999 1350 0 0 0
2019/08/08 14:42:01 BASE 0.04 281 5.04 225 -7.8 92 -8.9 45 0 984.3 NA 0.0000 9999 1310 0 0 0
2019/08/08 14:43:01 BASE 0.58 280 5.04 225 -7.8 92 -8.9 47 0 984.3 NA 0.0000 9999 1350 0 0 0
2019/08/08 14:44:01 BASE 2.08 266 4.99 213 -7.8 92 -8.9 49 0 984.3 NA 0.0000 9999 1310 0 0 0
2019/08/08 14:45:01 BASE 3.38 253 4.68 261 -7.8 92 -8.9 49 0 984.2 NA 0.0000 9999 1250 0 0 0
2019/08/08 14:46:01 BASE 3.29 261 4.68 261 -7.8 92 -8.9 49 0 984.2 NA 0.0000 9999 1210 0 0 0
2019/08/08 14:47:01 BASE 2.63 271 4.68 261 -7.8 92 -8.9 48 0 984.2 NA 0.0000 9999 1250 0 0 0
2019/08/08 14:48:01 BASE 2.65 269 4.68 261 -7.9 92 -8.9 48 0 984.2 NA 0.0000 9999 1310 0 0 0
2019/08/08 14:49:01 BASE 2.43 264 4.68 261 -7.9 92 -8.9 48 0 984.2 NA 0.0000 9999 1310 0 0 0
2019/08/08 14:50:01 BASE 1.72 269 4.68 261 -7.9 92 -9.0 48 0 984.2 NA 0.0000 9999 1280 0 0 0
2019/08/08 14:51:01 BASE 1.86 269 4.68 261 -7.9 92 -9.0 48 0 984.2 NA 0.0000 9999 1180 0 0 0
2019/08/08 14:52:01 BASE 2.50 276 4.68 261 -7.9 92 -8.9 49 0 984.2 NA 0.0000 9999 1180 0 0 0
2019/08/08 14:53:01 BASE 2.87 285 4.68 261 -7.8 92 -8.9 50 0 984.2 NA 0.0000 9999 1180 0 0 0
2019/08/08 14:54:01 BASE 2.86 286 4.68 261 -7.8 92 -8.9 51 0 984.2 NA 0.0000 9999 1180 0 0 0
2019/08/08 14:55:01 BASE 2.57 287 3.96 279 -7.8 92 -8.9 51 0 984.2 NA 0.0000 9999 1310 0 0 0
2019/08/08 14:56:01 BASE 2.84 273 3.96 279 -7.8 92 -8.9 51 0 984.2 NA 0.0000 9999 1350 0 0 0
2019/08/08 14:57:01 BASE 3.42 262 4.01 260 -7.8 92 -8.9 51 0 984.2 NA 0.0000 9999 1280 0 0 0
2019/08/08 14:58:01 BASE 3.51 275 4.06 295 -7.8 92 -8.9 50 0 984.2 NA 0.0000 9999 1310 0 0 0
2019/08/08 14:59:01 BASE 3.17 288 4.06 295 -7.8 92 -8.9 49 0 984.3 NA 0.0000 9999 1280 0 0 0
2019/08/08 15:00:01 BASE 2.86 276 4.06 295 -7.8 92 -8.9 48 0 984.3 NA 0.0000 9999 1280 0 0 0
2019/08/08 15:01:01 BASE 3.04 243 4.37 223 -7.8 92 -8.9 48 0 984.3 NA 0.0000 9999 1210 22470 0 0
2019/08/08 15:02:01 BASE 1.68 205 4.37 223 -7.8 92 -8.9 48 0 984.3 NA 0.0000 9999 1120 0 0 0
2019/08/08 15:03:01 BASE 0.19 180 4.37 223 -7.8 92 -8.9 48 0 984.3 NA 0.0000 9999 1080 0 0 0
2019/08/08 15:04:01 BASE 0.14 202 4.37 223 -7.8 92 -8.9 49 0 984.3 NA 0.0000 9999 1150 0 0 0
2019/08/08 15:05:01 BASE 0.32 187 4.37 223 -7.8 92 -8.9 50 0 984.3 NA 0.0000 9999 1280 0 0 0
2019/08/08 15:06:01 BASE 1.12 131 4.37 223 -7.8 92 -8.9 51 0 984.2 NA 0.0000 9999 1310 0 0 0
2019/08/08 15:07:01 BASE 1.35 110 4.37 223 -7.8 92 -8.9 52 0 984.2 NA 0.0000 9999 1310 0 0 0
2019/08/08 15:08:01 BASE 1.18 109 4.37 223 -7.9 92 -8.9 53 0 984.2 NA 0.0000 9999 1310 0 0 0
2019/08/08 15:09:01 BASE 0.62 118 4.37 223 -7.9 92 -8.9 55 0 984.2 NA 0.0000 9999 1380 0 0 0
2019/08/08 15:10:01 BASE 0.00 114 4.37 223 -7.9 92 -8.9 56 0 984.2 NA 0.0000 9999 1350 0 0 0
2019/08/08 15:11:01 BASE 0.00 101 2.11 83 -7.8 92 -8.9 57 0 984.1 NA 0.0000 9999 1350 0 0 0
2019/08/08 15:12:01 BASE 0.47 119 2.11 83 -7.8 92 -8.9 58 0 984.1 NA 0.0000 9999 1380 0 0 0
2019/08/08 15:13:01 BASE 1.08 142 2.11 83 -7.8 92 -8.9 60 0 984.1 NA 0.0000 9999 1350 0 0 0
2019/08/08 15:14:01 BASE 1.58 132 2.37 143 -7.8 92 -8.9 62 0 984.1 NA 0.0000 9999 1350 0 0 0
2019/08/08 15:15:01 BASE 2.03 128 2.52 141 -7.8 92 -8.9 62 0 984.1 NA 0.0000 9999 1310 0 0 0
2019/08/08 15:16:01 BASE 2.24 130 2.93 133 -7.8 92 -9.0 63 0 984.1 NA 0.0000 9999 1310 0 0 0
2019/08/08 15:17:01 BASE 2.50 132 3.14 136 -7.8 92 -9.0 65 0 984.1 NA 0.0000 9999 1310 0 0 0
2019/08/08 15:18:01 BASE 2.38 135 3.14 136 -7.9 92 -9.0 65 0 984.1 NA 0.0000 9999 1310 0 0 0
2019/08/08 15:19:01 BASE 2.07 135 3.14 136 -7.9 92 -9.0 65 0 984.0 NA 0.0000 9999 1310 0 0 0
2019/08/08 15:20:01 BASE 1.77 149 3.14 136 -7.9 92 -9.0 65 0 984.1 NA 0.0000 9999 1350 0 0 0
2019/08/08 15:21:01 BASE 1.65 173 3.14 136 -7.9 92 -8.9 65 0 984.1 NA 0.0000 9999 1310 0 0 0
2019/08/08 15:22:01 BASE 2.06 208 3.55 236 -7.8 92 -8.9 64 0 984.1 NA 0.0000 9999 1280 0 0 0
2019/08/08 15:23:01 BASE 2.53 232 3.55 236 -7.8 92 -8.9 64 0 984.1 NA 0.0000 9999 1210 0 0 0
2019/08/08 15:24:01 BASE 2.24 232 3.55 236 -7.8 92 -8.9 64 0 984.0 NA 0.0000 9999 1210 0 0 0
2019/08/08 15:25:01 BASE 1.85 231 3.55 236 -7.8 92 -8.9 64 0 984.0 NA 0.0000 9999 1210 0 0 0
2019/08/08 15:26:01 BASE 1.83 230 3.55 236 -7.8 92 -8.9 64 0 984.0 NA 0.0000 9999 1210 0 0 0
2019/08/08 15:27:01 BASE 2.24 222 3.55 236 -7.8 92 -8.8 64 0 984.0 NA 0.0000 9999 1280 0 0 0
2019/08/08 15:28:01 BASE 2.27 218 3.55 236 -7.8 92 -8.8 63 0 984.0 NA 0.0000 9999 1310 0 0 0
2019/08/08 15:29:01 BASE 1.68 221 3.55 236 -7.7 92 -8.8 62 0 984.0 NA 0.0000 9999 1280 0 0 0
2019/08/08 15:30:01 BASE 1.79 225 3.55 236 -7.7 92 -8.8 62 0 984.0 NA 0.0000 9999 1210 0 0 0
2019/08/08 15:31:01 BASE 2.15 217 3.55 236 -7.7 92 -8.8 62 0 984.0 NA 0.0000 9999 1250 0 0 0
2019/08/08 15:32:01 BASE 1.94 206 3.45 227 -7.7 92 -8.8 61 0 984.0 NA 0.0000 9999 1280 0 0 0
2019/08/08 15:33:01 BASE 1.65 220 3.24 226 -7.8 92 -8.8 61 0 984.0 NA 0.0000 9999 1280 0 0 0
2019/08/08 15:34:01 BASE 1.82 232 3.24 226 -7.8 92 -8.8 63 0 984.0 NA 0.0000 9999 1280 0 0 0
2019/08/08 15:35:01 BASE 2.29 217 3.24 226 -7.8 92 -8.8 64 0 984.0 NA 0.0000 9999 1280 0 0 0
2019/08/08 15:36:01 BASE 3.07 207 4.37 204 -7.8 92 -8.8 64 0 984.0 NA 0.0000 9999 1250 0 0 0
2019/08/08 15:37:01 BASE 4.30 205 5.92 199 -7.8 92 -8.8 64 0 983.9 NA 0.0000 9999 1280 0 0 0
2019/08/08 15:38:01 BASE 5.82 191 7.61 177 -7.8 92 -8.8 64 0 983.9 NA 0.0000 9999 1280 0 0 0
2019/08/08 15:39:01 BASE 5.30 177 7.61 177 -7.8 92 -8.8 65 0 983.9 NA 0.0000 9999 1250 0 0 0
2019/08/08 15:40:01 BASE 3.82 174 7.61 177 -7.8 92 -8.9 66 0 983.9 NA 0.0000 9999 1250 0 0 0
2019/08/08 15:41:01 BASE 3.54 170 7.61 177 -7.9 92 -8.9 67 0 983.9 NA 0.0000 9999 1250 0 0 0
2019/08/08 15:42:01 BASE 2.77 164 7.61 177 -7.9 92 -8.9 67 0 983.9 NA 0.0000 9999 1210 0 0 0
2019/08/08 15:43:01 BASE 1.36 168 7.61 177 -7.9 92 -8.9 68 0 983.9 NA 0.0000 9999 1280 0 0 0
2019/08/08 15:44:01 BASE 0.34 179 7.61 177 -7.9 92 -8.9 68 0 983.9 NA 0.0000 9999 1250 0 0 0
2019/08/08 15:45:01 BASE 0.00 173 7.61 177 -7.9 92 -8.9 68 0 983.9 NA 0.0000 9999 1280 0 0 0
2019/08/08 15:46:01 BASE 1.50 172 7.61 177 -7.8 92 -8.9 69 0 983.9 NA 0.0000 9999 1280 0 0 0
2019/08/08 15:47:01 BASE 4.02 168 7.61 177 -7.8 92 -8.9 69 0 983.9 NA 0.0000 9999 1280 0 0 0
2019/08/08 15:48:01 BASE 3.94 159 7.10 164 -7.8 92 -8.9 68 0 983.9 NA 0.0000 9999 1250 0 0 0
2019/08/08 15:49:01 BASE 3.01 156 7.10 164 -7.9 92 -8.9 67 0 983.9 NA 0.0000 9999 1180 0 0 0
2019/08/08 15:50:01 BASE 3.18 144 7.10 164 -7.9 92 -8.9 66 0 983.9 NA 0.0000 9999 1150 0 0 0
2019/08/08 15:51:01 BASE 3.00 128 7.10 164 -7.9 92 -9.0 64 0 983.9 NA 0.0000 9999 1180 0 0 0
2019/08/08 15:52:01 BASE 2.23 129 7.10 164 -7.9 92 -8.9 63 0 983.9 NA 0.0000 9999 1180 0 0 0
2019/08/08 15:53:01 BASE 1.87 159 7.10 164 -7.9 92 -8.9 61 0 983.9 NA 0.0000 9999 1150 0 0 0
2019/08/08 15:54:01 BASE 2.42 188 7.10 164 -7.9 93 -8.9 61 0 983.9 NA 0.0000 9999 1210 0 0 0
2019/08/08 15:55:01 BASE 3.14 199 7.10 164 -7.9 93 -8.9 61 0 983.8 NA 0.0000 9999 1210 0 0 0
2019/08/08 15:56:01 BASE 3.77 207 7.10 164 -7.9 93 -8.8 61 0 983.8 NA 0.0000 9999 1310 0 0 0
2019/08/08 15:57:01 BASE 3.68 214 4.73 208 -7.9 93 -8.8 61 0 983.8 NA 0.0000 9999 1180 0 0 0
2019/08/08 15:58:01 BASE 3.25 218 4.73 208 -7.9 93 -8.8 60 0 983.8 NA 0.0000 9999 1150 0 0 0
2019/08/08 15:59:01 BASE 3.25 210 4.73 208 -7.9 93 -8.8 59 0 983.8 NA 0.0000 9999 1120 0 0 0
2019/08/08 16:00:01 BASE 3.88 190 4.94 175 -7.9 93 -8.8 57 0 983.8 NA 0.0000 9999 1150 0 0 0
2019/08/08 16:01:01 BASE 4.23 186 4.99 184 -7.9 93 -8.9 56 0 983.9 NA 0.0000 9999 1120 0 0 0
2019/08/08 16:02:01 BASE 3.68 192 4.99 184 -8.0 93 -8.9 54 0 983.9 NA 0.0000 9999 1150 0 0 0
2019/08/08 16:03:01 BASE 3.52 197 5.09 211 -8.0 93 -8.9 53 0 983.9 NA 0.0000 9999 1410 0 0 0
2019/08/08 16:04:01 BASE 4.30 202 5.45 204 -8.0 93 -8.9 53 0 983.8 NA 0.0000 9999 1380 0 0 0
2019/08/08 16:05:01 BASE 4.00 206 5.45 204 -8.0 93 -8.9 53 0 983.9 NA 0.0000 9999 1410 0 0 0
2019/08/08 16:06:01 BASE 2.87 223 5.45 204 -7.9 93 -8.9 53 0 983.9 NA 0.0000 9999 1280 0 0 0
2019/08/08 16:07:01 BASE 1.66 235 5.45 204 -7.9 93 -8.9 54 0 983.9 NA 0.0000 9999 1380 0 0 0
2019/08/08 16:08:01 BASE 0.69 217 5.45 204 -7.9 93 -8.9 55 0 983.9 NA 0.0000 9999 1310 0 0 0
2019/08/08 16:09:01 BASE 0.81 197 5.45 204 -8.0 93 -8.9 55 0 983.9 NA 0.0000 9999 1120 0 0 0
2019/08/08 16:10:01 BASE 0.50 199 5.45 204 -8.0 93 -9.0 56 0 983.9 NA 0.0000 9999 1150 0 0 0
2019/08/08 16:11:01 BASE 0.00 229 5.45 204 -8.0 92 -9.0 56 0 983.9 NA 0.0000 9999 1210 0 0 0
2019/08/08 16:12:01 BASE 0.00 316 5.45 204 -8.0 92 -9.1 56 0 983.9 NA 0.0000 9999 1210 0 0 0
2019/08/08 16:13:01 BASE 0.09 341 5.45 204 -8.0 92 -9.1 56 0 983.9 NA 0.0000 9999 1150 0 0 0
2019/08/08 16:14:01 BASE 0.09 340 3.55 227 -8.1 92 -9.1 57 0 983.9 NA 0.0000 9999 1120 0 0 0
2019/08/08 16:15:01 BASE 0.00 356 3.55 227 -8.1 92 -9.1 58 0 983.9 NA 0.0000 9999 1250 0 0 0
2019/08/08 16:16:01 BASE 0.00 92 2.06 183 -8.1 92 -9.2 58 0 983.9 NA 0.0000 9999 1250 0 0 0
2019/08/08 16:17:01 BASE 0.00 122 2.06 183 -8.1 92 -9.2 58 0 983.8 NA 0.0000 9999 1180 0 0 0
2019/08/08 16:18:01 BASE 0.00 124 2.06 183 -8.1 92 -9.1 58 0 983.8 NA 0.0000 9999 1350 0 0 0
2019/08/08 16:19:01 BASE 0.00 80 1.08 340 -8.1 92 -9.1 58 0 983.9 NA 0.0000 9999 1310 0 0 0
2019/08/08 16:20:01 BASE 0.48 111 1.75 117 -8.1 92 -9.1 59 0 983.9 NA 0.0000 9999 1350 0 0 0
2019/08/08 16:21:01 BASE 1.17 131 1.85 134 -8.1 92 -9.1 59 0 983.9 NA 0.0000 9999 1380 0 0 0
2019/08/08 16:22:01 BASE 1.49 132 1.90 140 -8.1 92 -9.1 61 0 983.9 NA 0.0000 9999 1150 0 0 0
2019/08/08 16:23:01 BASE 1.84 137 2.47 138 -8.1 92 -9.2 62 0 983.8 NA 0.0000 9999 1180 0 0 0
2019/08/08 16:24:01 BASE 2.27 141 2.93 137 -8.1 92 -9.2 64 0 983.9 NA 0.0000 9999 1250 0 0 0
2019/08/08 16:25:00 BASE 2.00 144 2.93 137 -8.1 92 -9.2 65 0 983.9 NA 0.0000 9999 1380 0 0 0
2019/08/08 16:26:01 BASE 1.71 137 3.04 142 -8.1 92 -9.2 67 0 983.9 NA 0.0000 9999 0 0 0 0
2019/08/08 16:27:01 BASE 2.18 134 3.04 142 -8.1 92 -9.2 69 0 983.9 NA 0.0000 9999 1350 0 0 0
2019/08/08 16:28:01 BASE 1.96 133 3.04 142 -8.1 92 -9.2 70 0 983.9 NA 0.0000 9999 1280 0 0 0
2019/08/08 16:29:01 BASE 1.03 128 3.04 142 -8.1 92 -9.2 70 0 983.9 NA 0.0000 9999 1120 0 0 0
2019/08/08 16:30:00 BASE 0.54 139 3.04 142 -8.1 92 -9.2 70 0 983.8 NA 0.0000 9999 1150 0 0 0
2019/08/08 16:31:00 BASE 0.65 139 3.04 142 -8.1 92 -9.1 70 0 983.9 NA 0.0000 9999 1080 0 0 0
2019/08/08 16:32:01 BASE 0.74 115 3.04 142 -8.0 92 -9.1 71 0 983.9 NA 0.0000 9999 1080 0 0 0
2019/08/08 16:33:00 BASE 0.33 95 3.04 142 -8.0 92 -9.1 73 0 983.9 NA 0.0000 9999 1180 0 0 0
2019/08/08 16:34:00 BASE 0.04 101 3.04 142 -8.0 92 -9.1 76 0 983.8 NA 0.0000 9999 1280 0 0 0
2019/08/08 16:35:00 BASE 1.23 152 3.91 174 -8.1 92 -9.1 79 0 983.7 NA 0.0000 9999 1510 0 0 0
2019/08/08 16:36:01 BASE 1.59 173 3.91 174 -8.1 92 -9.1 81 0 983.7 NA 0.0000 9999 1380 0 0 0
2019/08/08 16:37:00 BASE 0.61 146 3.91 174 -8.1 92 -9.1 81 0 983.7 NA 0.0000 9999 1120 0 0 0
2019/08/08 16:38:00 BASE 0.84 128 3.91 174 -8.1 92 -9.1 82 0 983.7 NA 0.0000 9999 1150 0 0 0
2019/08/08 16:39:00 BASE 1.18 139 3.91 174 -8.0 92 -9.1 82 0 983.7 NA 0.0000 9999 1180 0 0 0
2019/08/08 16:40:01 BASE 1.39 164 3.91 174 -8.0 92 -9.1 82 0 983.7 NA 0.0000 9999 1120 0 0 0
2019/08/08 16:41:00 BASE 1.68 172 3.91 174 -8.0 92 -9.1 82 0 983.7 NA 0.0000 9999 1150 0 0 0
2019/08/08 16:42:00 BASE 1.49 172 3.91 174 -8.0 92 -9.1 83 0 983.7 NA 0.0000 9999 1210 0 0 0
2019/08/08 16:43:00 BASE 1.31 162 3.91 174 -8.0 92 -9.1 86 0 983.7 NA 0.0000 9999 1210 0 0 0
2019/08/08 16:44:00 BASE 1.39 135 3.91 174 -8.0 92 -9.1 89 0 983.7 NA 0.0000 9999 1210 0 0 0
2019/08/08 16:45:00 BASE 0.80 115 2.52 181 -8.0 92 -9.1 93 0 983.7 NA 0.0000 9999 1210 0 0 0
2019/08/08 16:46:00 BASE 0.09 118 2.52 181 -8.0 92 -9.1 98 0 983.7 NA 0.0000 9999 1210 0 0 0
2019/08/08 16:47:00 BASE 0.05 127 2.52 181 -8.0 92 -9.1 101 0 983.7 NA 0.0000 9999 1210 0 0 0
2019/08/08 16:48:01 BASE 0.10 119 2.52 181 -8.0 92 -9.1 102 0 983.6 NA 0.0000 9999 1250 0 0 0
2019/08/08 16:49:00 BASE 1.08 128 2.52 181 -8.0 92 -9.1 100 0 983.5 NA 0.0000 9999 1250 0 0 0
2019/08/08 16:50:00 BASE 2.06 152 2.37 171 -8.0 92 -9.1 98 0 983.5 NA 0.0000 9999 1180 0 0 0
2019/08/08 16:51:00 BASE 2.18 157 2.98 146 -8.0 92 -9.1 94 0 983.5 NA 0.0000 9999 1180 0 0 0
2019/08/08 16:52:00 BASE 2.26 147 2.98 146 -8.0 92 -9.1 90 0 983.5 NA 0.0000 9999 1180 0 0 0
2019/08/08 16:53:00 BASE 2.34 147 2.98 146 -8.0 92 -9.1 85 0 983.5 NA 0.0000 9999 1120 0 0 0
2019/08/08 16:54:01 BASE 2.24 147 2.98 146 -8.0 92 -9.1 82 0 983.5 NA 0.0000 9999 1120 0 0 0
2019/08/08 16:55:00 BASE 2.25 135 3.09 139 -8.0 92 -9.1 78 0 983.5 NA 0.0000 9999 1120 0 0 0
2019/08/08 16:56:00 BASE 2.42 124 3.09 139 -8.0 92 -9.1 76 0 983.5 NA 0.0000 9999 1150 0 0 0
2019/08/08 16:57:00 BASE 2.56 124 3.91 119 -8.0 92 -9.0 74 0 983.5 NA 0.0000 9999 1050 0 0 0
2019/08/08 16:58:00 BASE 1.33 151 3.91 119 -8.0 92 -9.0 72 0 983.4 NA 0.0000 9999 1080 0 0 0
2019/08/08 16:59:00 BASE 0.00 171 3.91 119 -8.0 93 -9.0 70 0 983.4 NA 0.0000 9999 1120 0 0 0
2019/08/08 17:00:00 BASE 0.89 162 3.91 119 -8.0 93 -8.9 69 0 983.4 NA 0.0000 9999 1150 0 0 0
2019/08/08 17:01:00 BASE 2.02 156 3.91 119 -8.0 93 -8.9 69 0 983.4 NA 0.0000 9999 1120 0 0 0
2019/08/08 17:02:01 BASE 2.27 143 3.91 119 -8.0 93 -8.9 68 0 983.3 NA 0.0000 9999 1120 0 0 0
2019/08/08 17:03:00 BASE 2.27 136 3.91 119 -8.0 93 -8.9 68 0 983.4 NA 0.0000 9999 1150 0 0 0
2019/08/08 17:04:00 BASE 2.15 139 3.91 119 -8.0 93 -9.0 68 0 983.4 NA 0.0000 9999 1180 0 0 0
2019/08/08 17:05:01 BASE 2.18 148 3.91 119 -8.1 93 -9.0 67 0 983.4 NA 0.0000 9999 1120 0 0 0
2019/08/08 17:06:00 BASE 2.18 176 3.91 119 -8.1 93 -9.0 65 0 983.4 NA 0.0000 9999 1050 0 0 0
2019/08/08 17:07:00 BASE 1.37 194 2.68 172 -8.1 93 -9.0 62 0 983.3 NA 0.0000 9999 1180 0 0 0
2019/08/08 17:08:00 BASE 0.82 203 2.68 172 -8.0 93 -9.0 61 0 983.3 NA 0.0000 9999 1250 0 0 0
2019/08/08 17:09:00 BASE 0.57 200 2.68 172 -8.0 93 -8.9 60 0 983.3 NA 0.0000 9999 1280 0 0 0
2019/08/08 17:10:00 BASE 0.87 154 2.68 172 -8.0 93 -8.9 60 0 983.3 NA 0.0000 9999 1280 0 0 0
2019/08/08 17:11:00 BASE 1.92 127 2.68 172 -8.0 93 -8.9 59 0 983.3 NA 0.0000 9999 1250 20900 0 0
2019/08/08 17:12:00 BASE 1.97 136 2.68 172 -8.0 93 -9.0 57 0 983.3 NA 0.0000 9999 1210 0 0 0
2019/08/08 17:13:00 BASE 1.84 150 2.68 172 -8.1 93 -9.0 56 0 983.3 NA 0.0000 9999 1210 0 0 0
2019/08/08 17:14:00 BASE 2.65 171 4.89 186 -8.1 93 -9.1 54 0 983.3 NA 0.0000 9999 1210 0 0 0
2019/08/08 17:15:00 BASE 3.60 187 4.89 186 -8.2 93 -9.1 53 0 983.3 NA 0.0000 9999 1180 0 0 0
2019/08/08 17:16:01 BASE 3.27 193 4.89 186 -8.2 93 -9.1 53 0 983.2 NA 0.0000 9999 1150 0 0 0
2019/08/08 17:17:00 BASE 2.23 186 4.89 186 -8.1 93 -9.1 52 0 983.2 NA 0.0000 9999 1210 0 0 0
2019/08/08 17:18:00 BASE 1.72 178 4.89 186 -8.1 93 -9.0 51 0 983.2 NA 0.0000 9999 1210 0 0 0
2019/08/08 17:19:00 BASE 2.42 173 4.89 186 -8.0 93 -9.0 50 0 983.2 NA 0.0000 9999 1210 0 0 0
2019/08/08 17:20:00 BASE 3.49 171 4.89 186 -8.0 93 -8.9 49 0 983.2 NA 0.0000 9999 1210 0 0 0
2019/08/08 17:21:00 BASE 4.11 170 4.89 165 -8.0 93 -8.9 49 0 983.2 NA 0.0000 9999 1250 0 0 0
2019/08/08 17:22:00 BASE 4.58 166 5.14 163 -8.0 93 -8.9 49 0 983.2 NA 0.0000 9999 1250 0 0 0
2019/08/08 17:23:00 BASE 5.04 168 5.86 175 -8.1 93 -9.0 49 0 983.1 NA 0.0000 9999 1250 0 0 0
2019/08/08 17:24:00 BASE 4.75 171 5.86 175 -8.1 93 -9.0 49 0 983.2 NA 0.0000 9999 1250 0 0 0
2019/08/08 17:25:00 BASE 4.07 170 5.86 175 -8.1 93 -9.0 48 0 983.2 NA 0.0000 9999 1210 0 0 0
2019/08/08 17:26:00 BASE 4.00 171 5.86 175 -8.1 93 -9.0 48 0 983.2 NA 0.0000 9999 1180 0 0 0
2019/08/08 17:27:00 BASE 3.44 173 5.86 175 -8.1 93 -9.0 47 0 983.2 NA 0.0000 9999 1180 0 0 0
2019/08/08 17:28:01 BASE 2.44 173 5.86 175 -8.1 93 -9.0 47 0 983.2 NA 0.0000 9999 1180 0 0 0
2019/08/08 17:29:00 BASE 2.34 162 5.86 175 -8.1 93 -9.0 46 0 983.2 NA 0.0000 9999 1150 0 0 0
2019/08/08 17:30:00 BASE 2.22 161 5.86 175 -8.1 93 -9.0 47 0 983.2 NA 0.0000 9999 1150 0 0 0
2019/08/08 17:31:00 BASE 1.60 162 5.86 175 -8.0 93 -9.0 47 0 983.1 NA 0.0000 9999 1150 0 0 0
2019/08/08 17:32:00 BASE 1.36 152 5.86 175 -8.0 93 -9.0 48 0 983.1 NA 0.0000 9999 1080 0 0 0
2019/08/08 17:33:00 BASE 1.44 152 5.35 169 -8.0 93 -8.9 48 0 983.1 NA 0.0000 9999 1120 0 0 0
2019/08/08 17:34:00 BASE 1.97 153 5.35 169 -8.0 93 -8.9 47 0 983.2 NA 0.0000 9999 1050 0 0 0
2019/08/08 17:35:00 BASE 2.48 155 5.35 169 -8.0 93 -9.0 46 0 983.2 NA 0.0000 9999 1080 0 0 0
2019/08/08 17:36:00 BASE 2.81 159 4.22 147 -8.1 93 -9.0 45 0 983.2 NA 0.0000 9999 1180 0 0 0
2019/08/08 17:37:00 BASE 3.01 158 4.22 147 -8.1 93 -9.0 44 0 983.2 NA 0.0000 9999 1080 0 0 0
2019/08/08 17:38:00 BASE 2.68 153 4.22 147 -8.1 93 -9.0 44 0 983.2 NA 0.0000 9999 1050 0 0 0
2019/08/08 17:39:01 BASE 2.44 150 3.65 160 -8.1 93 -9.0 44 0 983.2 NA 0.0000 9999 1080 0 0 0
2019/08/08 17:40:00 BASE 2.20 142 3.65 160 -8.1 93 -9.0 44 0 983.2 NA 0.0000 9999 1080 0 0 0
2019/08/08 17:41:00 BASE 2.23 132 3.65 160 -8.0 93 -9.0 44 0 983.2 NA 0.0000 9999 1120 0 0 0
2019/08/08 17:42:00 BASE 2.52 135 3.65 160 -8.0 93 -8.9 45 0 983.2 NA 0.0000 9999 1150 0 0 0
2019/08/08 17:43:00 BASE 2.40 141 3.65 160 -8.0 93 -9.0 45 0 983.2 NA 0.0000 9999 1120 0 0 0
2019/08/08 17:44:01 BASE 1.92 155 3.65 160 -8.0 93 -9.0 46 0 983.1 NA 0.0000 9999 1080 0 0 0
2019/08/08 17:45:00 BASE 1.17 159 3.65 160 -8.1 93 -9.0 46 0 983.1 NA 0.0000 9999 1080 0 0 0
2019/08/08 17:46:01 BASE 0.87 144 3.65 160 -8.1 93 -9.0 47 0 983.1 NA 0.0000 9999 1080 0 0 0
2019/08/08 17:47:00 BASE 0.79 139 3.09 137 -8.1 93 -9.0 48 0 983.1 NA 0.0000 9999 1120 0 0 0
2019/08/08 17:48:00 BASE 0.92 136 3.09 137 -8.1 93 -9.0 47 0 983.0 NA 0.0000 9999 1150 0 0 0
2019/08/08 17:49:00 BASE 1.21 127 3.09 137 -8.1 93 -9.0 46 0 983.0 NA 0.0000 9999 1120 0 0 0
2019/08/08 17:50:00 BASE 1.63 121 3.09 137 -8.1 93 -9.0 47 0 983.0 NA 0.0000 9999 1080 0 0 0
2019/08/08 17:51:00 BASE 1.94 121 2.68 143 -8.1 93 -9.0 49 0 983.1 NA 0.0000 9999 1120 0 0 0
2019/08/08 17:52:00 BASE 2.07 122 2.57 141 -8.1 93 -9.0 51 0 983.1 NA 0.0000 9999 1120 0 0 0
2019/08/08 17:53:00 BASE 2.31 122 2.62 133 -8.1 93 -9.1 52 0 983.0 NA 0.0000 9999 1080 0 0 0
2019/08/08 17:54:00 BASE 2.43 125 2.88 137 -8.2 93 -9.1 54 0 983.0 NA 0.0000 9999 1150 0 0 0
2019/08/08 17:55:00 BASE 2.48 133 2.98 133 -8.2 93 -9.1 55 0 983.0 NA 0.0000 9999 1120 0 0 0
2019/08/08 17:56:00 BASE 2.29 138 2.98 133 -8.2 93 -9.1 55 0 983.0 NA 0.0000 9999 1080 0 0 0
2019/08/08 17:57:00 BASE 1.98 134 2.98 133 -8.2 93 -9.2 55 0 982.9 NA 0.0000 9999 1050 0 0 0
2019/08/08 17:58:00 BASE 1.65 121 2.98 133 -8.2 93 -9.2 55 0 982.9 NA 0.0000 9999 1150 0 0 0
2019/08/08 17:59:00 BASE 1.88 106 2.98 133 -8.2 93 -9.2 53 0 982.9 NA 0.0000 9999 1120 0 0 0
2019/08/08 18:00:00 BASE 2.36 111 2.98 133 -8.2 93 -9.2 51 0 982.9 NA 0.0000 9999 1210 0 0 0
2019/08/08 18:01:00 BASE 2.35 121 2.98 133 -8.2 93 -9.1 48 0 982.9 NA 0.0000 9999 1150 0 0 0
2019/08/08 18:02:00 BASE 2.52 123 2.98 133 -8.2 93 -9.2 46 0 982.9 NA 0.0000 9999 1150 0 0 0
2019/08/08 18:03:00 BASE 2.53 120 2.98 133 -8.2 93 -9.2 43 0 982.9 NA 0.0000 9999 1180 0 0 0
2019/08/08 18:04:01 BASE 2.71 122 3.34 129 -8.3 93 -9.2 41 0 982.9 NA 0.0000 9999 1210 0 0 0
2019/08/08 18:05:00 BASE 2.93 138 3.34 155 -8.3 93 -9.2 40 0 982.9 NA 0.0000 9999 1180 0 0 0
2019/08/08 18:06:00 BASE 2.09 141 3.34 155 -8.3 93 -9.2 40 0 982.9 NA 0.0000 9999 1180 0 0 0
2019/08/08 18:07:00 BASE 1.75 126 3.34 155 -8.2 93 -9.1 40 0 982.9 NA 0.0000 9999 1250 0 0 0
2019/08/08 18:08:00 BASE 2.03 124 3.34 155 -8.2 93 -9.1 41 0 982.9 NA 0.0000 9999 1210 0 0 0
2019/08/08 18:09:00 BASE 1.98 123 3.34 155 -8.2 93 -9.1 41 0 982.9 NA 0.0000 9999 1210 0 0 0
2019/08/08 18:10:00 BASE 2.23 111 3.34 155 -8.2 93 -9.0 43 0 982.9 NA 0.0000 9999 1180 0 0 0
2019/08/08 18:11:00 BASE 2.20 105 3.34 155 -8.1 94 -9.0 44 0 982.9 NA 0.0000 9999 1210 0 0 0
2019/08/08 18:12:00 BASE 1.81 104 3.34 155 -8.1 94 -9.0 45 0 982.9 NA 0.0000 9999 1210 0 0 0
2019/08/08 18:13:00 BASE 1.94 101 3.34 155 -8.2 94 -9.0 44 0 982.9 NA 0.0000 9999 1050 0 0 0
2019/08/08 18:14:00 BASE 2.02 94 3.34 155 -8.1 94 -8.9 43 0 982.9 NA 0.0000 9999 1080 0 0 0
2019/08/08 18:15:00 BASE 2.38 95 3.81 107 -8.1 94 -8.9 41 0 982.9 NA 0.0000 9999 1180 0 0 0
2019/08/08 18:16:00 BASE 2.89 105 3.81 98 -8.1 94 -8.9 39 0 982.9 NA 0.0000 9999 1150 0 0 0
2019/08/08 18:17:00 BASE 2.06 120 3.81 98 -8.1 94 -8.9 37 0 982.9 NA 0.0000 9999 1180 0 0 0
2019/08/08 18:18:00 BASE 1.38 122 3.81 98 -8.1 94 -8.9 36 0 982.9 NA 0.0000 9999 1180 0 0 0
2019/08/08 18:19:00 BASE 1.82 109 3.81 98 -8.2 94 -9.0 35 0 982.9 NA 0.0000 9999 1180 0 0 0
2019/08/08 18:20:00 BASE 2.26 98 3.81 98 -8.2 94 -9.0 35 0 982.8 NA 0.0000 9999 1150 0 0 0
2019/08/08 18:21:00 BASE 2.20 104 3.81 98 -8.3 94 -9.0 35 0 982.7 NA 0.0000 9999 1180 0 0 0
2019/08/08 18:22:00 BASE 2.23 118 3.81 98 -8.3 94 -9.1 35 0 982.8 NA 0.0000 9999 1180 0 0 0
2019/08/08 18:23:00 BASE 2.15 130 3.81 98 -8.3 94 -9.1 35 0 982.8 NA 0.0000 9999 1180 0 0 0
2019/08/08 18:24:00 BASE 1.64 133 3.81 98 -8.3 94 -9.1 34 0 982.8 NA 0.0000 9999 1180 0 0 0
2019/08/08 18:25:00 BASE 1.53 127 3.81 98 -8.3 94 -9.1 33 0 982.8 NA 0.0000 9999 1150 0 0 0
2019/08/08 18:26:00 BASE 1.02 138 2.93 118 -8.3 94 -9.1 32 0 982.8 NA 0.0000 9999 1150 0 0 0
2019/08/08 18:27:00 BASE 0.19 168 2.93 118 -8.2 94 -9.0 32 0 982.8 NA 0.0000 9999 1120 0 0 0
2019/08/08 18:28:00 BASE 0.00 228 2.93 118 -8.2 94 -9.0 31 0 982.8 NA 0.0000 9999 1180 0 0 0
2019/08/08 18:29:00 BASE 0.00 278 2.93 118 -8.2 94 -9.0 31 0 982.7 NA 0.0000 9999 1180 0 0 0
2019/08/08 18:30:00 BASE 0.00 289 2.93 118 -8.2 95 -9.0 31 0 982.7 NA 0.0000 9999 1180 0 0 0
2019/08/08 18:31:00 BASE 0.00 288 2.93 118 -8.3 95 -8.9 31 0 982.7 NA 0.0000 9999 1180 0 0 0
2019/08/08 18:32:00 BASE 0.00 276 2.52 128 -8.3 95 -9.0 30 0 982.7 NA 0.0000 9999 1180 0 0 0
2019/08/08 18:33:00 BASE 0.00 267 2.06 136 -8.2 95 -8.9 30 0 982.7 NA 0.0000 9999 1120 0 0 0
2019/08/08 18:34:00 BASE 0.00 265 2.06 136 -8.2 95 -8.8 30 0 982.7 NA 0.0000 9999 1120 0 0 0
2019/08/08 18:35:00 BASE 0.00 263 1.29 161 -8.2 95 -8.8 29 0 982.7 NA 0.0000 9999 1120 0 0 0
2019/08/08 18:36:00 BASE 0.00 262 M M -8.1 95 -8.8 30 0 982.7 NA 0.0000 9999 1150 0 0 0
2019/08/08 18:37:00 BASE 0.25 244 1.85 126 -8.1 95 -8.8 30 0 982.7 NA 0.0000 9999 1080 0 0 0
2019/08/08 18:38:00 BASE 1.47 123 2.78 140 -8.1 95 -8.8 30 0 982.7 NA 0.0000 9999 1080 0 0 0
2019/08/08 18:39:00 BASE 2.78 122 3.91 128 -8.3 95 -9.0 30 0 982.7 NA 0.0000 9999 1120 0 0 0
2019/08/08 18:40:00 BASE 2.64 107 3.91 128 -8.4 95 -9.1 30 0 982.6 NA 0.0000 9999 1080 0 0 0
2019/08/08 18:41:00 BASE 2.57 86 3.91 128 -8.6 95 -9.3 28 0 982.6 NA 0.0000 9999 1080 0 0 0
2019/08/08 18:42:00 BASE 3.25 86 4.37 84 -8.8 95 -9.5 27 0 982.6 NA 0.0000 9999 1050 0 0 0
2019/08/08 18:43:00 BASE 3.30 92 4.37 84 -8.9 95 -9.6 26 0 982.5 NA 0.0000 9999 980 0 0 0
2019/08/08 18:44:00 BASE 3.11 89 4.37 84 -8.9 95 -9.6 25 0 982.4 NA 0.0000 9999 1080 0 0 0
2019/08/08 18:45:00 BASE 3.48 83 4.37 84 -8.9 95 -9.6 25 0 982.4 NA 0.0000 9999 1080 0 0 0
2019/08/08 18:46:00 BASE 4.29 82 4.99 84 -8.9 95 -9.6 25 0 982.4 NA 0.0000 9999 1020 0 0 0
2019/08/08 18:47:00 BASE 4.78 83 5.25 85 -8.9 95 -9.6 24 0 982.4 NA 0.0000 9999 1050 0 0 0
2019/08/08 18:48:00 BASE 4.82 83 5.30 81 -9.0 95 -9.6 24 0 982.4 NA 0.0000 9999 980 0 0 0
2019/08/08 18:49:00 BASE 4.46 82 5.30 81 -9.0 95 -9.6 24 0 982.4 NA 0.0000 9999 1050 0 0 0
2019/08/08 18:50:00 BASE 4.39 84 5.30 81 -9.0 96 -9.6 24 0 982.4 NA 0.0000 9999 950 0 0 0
2019/08/08 18:51:00 BASE 4.65 84 5.30 81 -9.0 96 -9.6 24 0 982.4 NA 0.0000 9999 1050 0 0 0
2019/08/08 18:52:00 BASE 4.57 82 5.30 81 -9.0 96 -9.5 24 0 982.4 NA 0.0000 9999 1080 0 0 0
2019/08/08 18:53:00 BASE 4.66 83 5.30 81 -9.0 96 -9.5 24 0 982.4 NA 0.0000 9999 1020 0 0 0
2019/08/08 18:54:00 BASE 4.61 86 5.30 81 -9.0 96 -9.5 23 0 982.4 NA 0.0000 9999 1080 0 0 0
2019/08/08 18:55:00 BASE 4.44 90 5.30 81 -9.1 96 -9.6 23 0 982.4 NA 0.0000 9999 1050 0 0 0
2019/08/08 18:56:00 BASE 4.58 90 5.35 90 -9.1 96 -9.6 23 0 982.4 NA 0.0000 9999 1050 0 0 0
2019/08/08 18:57:00 BASE 4.51 93 5.35 90 -9.1 96 -9.6 23 0 982.4 NA 0.0000 9999 1050 0 0 0
2019/08/08 18:58:00 BASE 4.41 94 5.35 90 -9.1 97 -9.6 22 0 982.4 NA 0.0000 9999 1050 0 0 0
2019/08/08 18:59:00 BASE 4.05 91 5.35 90 -9.1 97 -9.5 22 0 982.4 NA 0.0000 9999 1080 0 0 0
2019/08/08 19:00:00 BASE 3.61 91 5.35 90 -9.0 97 -9.4 23 0 982.4 NA 0.0000 9999 1080 0 0 0
2019/08/08 19:01:00 BASE 3.27 89 5.35 90 -8.9 97 -9.3 22 0 982.4 NA 0.0000 9999 1020 0 0 0
2019/08/08 19:02:00 BASE 3.32 82 5.35 90 -8.8 97 -9.2 22 0 982.4 NA 0.0000 9999 1050 0 0 0
2019/08/08 19:03:00 BASE 3.51 82 5.35 90 -8.8 97 -9.2 22 0 982.4 NA 0.0000 9999 1080 0 0 0
2019/08/08 19:04:00 BASE 3.41 88 5.35 90 -8.8 97 -9.2 21 0 982.4 NA 0.0000 9999 1020 0 0 0
2019/08/08 19:05:00 BASE 3.55 91 5.35 90 -8.9 97 -9.2 21 0 982.4 NA 0.0000 9999 1020 0 0 0
2019/08/08 19:06:00 BASE 4.00 95 5.14 91 -9.0 97 -9.4 22 0 982.4 NA 0.0000 9999 1050 0 0 0
2019/08/08 19:07:00 BASE 4.40 101 5.14 91 -9.1 97 -9.5 22 0 982.4 NA 0.0000 9999 1020 0 0 0
2019/08/08 19:08:00 BASE 4.28 101 4.78 96 -9.2 97 -9.6 22 0 982.4 NA 0.0000 9999 1080 0 0 0
2019/08/08 19:09:00 BASE 4.22 98 4.78 96 -9.2 97 -9.6 21 0 982.4 NA 0.0000 9999 1050 0 0 0
2019/08/08 19:10:00 BASE 4.12 102 4.89 102 -9.2 97 -9.5 21 0 982.3 NA 0.0000 9999 1020 0 0 0
2019/08/08 19:11:00 BASE 4.17 108 5.09 110 -9.2 98 -9.5 20 0 982.3 NA 0.0000 9999 1020 0 0 0
2019/08/08 19:12:00 BASE 4.29 118 5.35 129 -9.2 98 -9.5 20 0 982.3 NA 0.0000 9999 980 0 0 0
2019/08/08 19:13:00 BASE 4.09 120 5.35 129 -9.3 98 -9.6 19 0 982.3 NA 0.0000 9999 980 0 0 0
2019/08/08 19:14:00 BASE 3.98 105 5.35 129 -9.3 98 -9.6 19 0 982.3 NA 0.0000 9999 0 0 0 0
2019/08/08 19:15:00 BASE 4.11 95 5.35 129 -9.3 98 -9.6 18 0 982.3 NA 0.0000 9999 0 0 0 0
2019/08/08 19:16:00 BASE 4.22 91 5.35 129 -9.4 97 -9.7 18 0 982.3 NA 0.0000 9999 0 0 0 0
2019/08/08 19:17:00 BASE 4.42 88 5.35 129 -9.4 97 -9.8 18 0 982.3 NA 0.0000 9999 1150 0 0 0
2019/08/08 19:18:00 BASE 4.53 86 5.35 129 -9.5 97 -9.8 18 0 982.3 NA 0.0000 9999 1120 0 0 0
2019/08/08 19:19:00 BASE 4.72 85 5.35 129 -9.6 97 -9.9 18 0 982.3 NA 0.0000 9999 1120 0 0 0
2019/08/08 19:20:00 BASE 4.82 86 5.35 129 -9.7 97 -10.0 18 0 982.3 NA 0.0000 9999 1050 0 0 0
2019/08/08 19:21:00 BASE 4.77 89 5.45 96 -9.7 98 -10.0 18 0 982.3 NA 0.0000 9999 1020 0 0 0
2019/08/08 19:22:00 BASE 5.04 94 5.45 95 -9.7 98 -10.0 17 0 982.3 NA 0.0000 9999 1020 0 0 0
2019/08/08 19:23:01 BASE 4.84 93 5.45 95 -9.7 98 -9.9 17 0 982.3 NA 0.0000 9999 1050 0 0 0
2019/08/08 19:24:00 BASE 4.63 90 5.45 95 -9.6 98 -9.9 17 0 982.3 NA 0.0000 9999 1050 0 0 0
2019/08/08 19:25:00 BASE 4.61 89 5.45 95 -9.7 98 -10.0 17 0 982.3 NA 0.0000 9999 1050 0 0 0
2019/08/08 19:26:00 BASE 4.44 88 5.45 95 -9.8 98 -10.0 16 0 982.3 NA 0.0000 9999 1050 0 0 0
2019/08/08 19:27:00 BASE 4.40 89 5.45 95 -9.8 98 -10.0 16 0 982.3 NA 0.0000 9999 1050 0 0 0
2019/08/08 19:28:00 BASE 4.49 89 5.45 95 -9.8 98 -10.0 16 0 982.3 NA 0.0000 9999 1080 0 0 0
2019/08/08 19:29:00 BASE 4.82 91 5.45 92 -9.8 98 -10.1 16 0 982.3 NA 0.0000 9999 1050 0 0 0
2019/08/08 19:30:00 BASE 5.27 93 5.61 92 -9.8 98 -10.0 15 0 982.3 NA 0.0000 9999 1020 0 0 0
2019/08/08 19:31:00 BASE 5.50 95 5.71 93 -9.8 98 -10.1 15 0 982.3 NA 0.0000 9999 1050 0 0 0
2019/08/08 19:32:00 BASE 5.54 94 5.71 93 -9.8 98 -10.0 14 0 982.3 NA 0.0000 9999 1020 0 0 0
2019/08/08 19:33:00 BASE 5.42 93 5.71 93 -9.8 98 -10.0 14 0 982.3 NA 0.0000 9999 1020 0 0 0
2019/08/08 19:34:00 BASE 5.42 91 6.02 92 -9.8 99 -10.0 13 0 982.3 NA 0.0000 9999 1020 0 0 0
2019/08/08 19:35:00 BASE 5.51 92 6.02 92 -9.8 99 -9.9 13 0 982.3 NA 0.0000 9999 1120 0 0 0
2019/08/08 19:36:00 BASE 5.51 92 6.02 92 -9.7 99 -9.8 13 0 982.3 NA 0.0000 9999 1080 0 0 0
2019/08/08 19:37:00 BASE 5.69 92 6.02 92 -9.7 99 -9.8 12 0 982.3 NA 0.0000 9999 1080 0 0 0
2019/08/08 19:38:00 BASE 5.80 92 6.12 89 -9.7 99 -9.9 12 0 982.3 NA 0.0000 9999 1020 0 0 0
2019/08/08 19:39:00 BASE 5.59 91 6.12 89 -9.7 99 -9.9 11 0 982.3 NA 0.0000 9999 1020 0 0 0
2019/08/08 19:40:00 BASE 5.70 91 6.28 93 -9.7 99 -9.9 11 0 982.3 NA 0.0000 9999 1080 0 0 0
2019/08/08 19:41:00 BASE 6.12 90 6.64 89 -9.8 99 -9.9 10 0 982.3 NA 0.0000 9999 1080 0 0 0
2019/08/08 19:42:00 BASE 6.16 89 6.64 89 -9.8 99 -9.9 10 0 982.3 NA 0.0000 9999 980 0 0 0
2019/08/08 19:43:00 BASE 5.81 88 6.64 89 -9.8 99 -9.9 9 0 982.2 NA 0.0000 9999 1020 0 0 0
2019/08/08 19:44:00 BASE 5.29 88 6.64 89 -9.8 99 -10.0 9 0 982.2 NA 0.0000 9999 980 0 0 0
2019/08/08 19:45:00 BASE 4.96 90 6.64 89 -9.9 99 -10.0 8 0 982.2 NA 0.0000 9999 1020 0 0 0
2019/08/08 19:46:00 BASE 4.92 90 6.64 89 -10.0 99 -10.1 8 0 982.2 NA 0.0000 9999 950 0 0 0
2019/08/08 19:47:00 BASE 4.86 88 6.64 89 -10.0 99 -10.1 8 0 982.2 NA 0.0000 9999 980 0 0 0
2019/08/08 19:48:00 BASE 4.70 89 6.64 89 -10.0 99 -10.1 7 0 982.2 NA 0.0000 9999 980 0 0 0
2019/08/08 19:49:00 BASE 4.55 91 6.64 89 -10.0 99 -10.1 7 0 982.2 NA 0.0000 9999 0 0 0 0
2019/08/08 19:50:00 BASE 4.56 91 6.64 89 -10.0 99 -10.0 7 0 982.2 NA 0.0000 9999 0 0 0 0
2019/08/08 19:51:00 BASE 4.46 93 6.64 89 -10.0 99 -10.1 7 0 982.2 NA 0.0000 9999 0 0 0 0
2019/08/08 19:52:00 BASE 4.11 95 6.12 86 -10.0 100 -10.0 6 0 982.2 NA 0.0000 9999 0 0 0 0
2019/08/08 19:53:00 BASE 3.77 98 5.25 90 -9.9 100 -10.0 6 0 982.2 NA 0.0000 9999 0 0 0 0
2019/08/08 19:54:00 BASE 3.57 99 5.25 90 -9.9 100 -10.0 6 0 982.2 NA 0.0000 9999 0 0 0 0
2019/08/08 19:55:00 BASE 3.48 101 5.25 90 -9.9 100 -9.9 6 0 982.1 NA 0.0000 9999 0 0 0 0
2019/08/08 19:56:00 BASE 3.50 106 5.04 88 -9.8 100 -9.8 5 0 982.1 NA 0.0000 9999 0 0 0 0
2019/08/08 19:57:00 BASE 3.55 107 4.84 92 -9.7 100 -9.7 5 0 982.1 NA 0.0000 9999 0 0 0 0
2019/08/08 19:58:00 BASE 3.45 106 4.84 92 -9.6 100 -9.6 5 0 982.1 NA 0.0000 9999 0 0 0 0
2019/08/08 19:59:00 BASE 3.38 108 4.84 92 -9.5 100 -9.5 5 0 982.2 NA 0.0000 9999 0 0 0 0
2019/08/08 20:00:00 BASE 3.50 110 4.48 96 -9.5 100 -9.5 4 0 982.2 NA 0.0000 9999 0 0 0 0
2019/08/08 20:01:00 BASE 3.53 109 4.22 90 -9.4 100 -9.4 4 0 982.1 NA 0.0000 9999 0 0 0 0
2019/08/08 20:02:00 BASE 3.38 109 4.01 110 -9.5 100 -9.5 4 0 982.1 NA 0.0000 9999 0 0 0 0
2019/08/08 20:03:00 BASE 3.22 108 4.01 110 -9.5 100 -9.5 4 0 982.1 NA 0.0000 9999 0 0 0 0
2019/08/08 20:04:00 BASE 3.05 106 4.01 110 -9.6 100 -9.6 4 0 982.1 NA 0.0000 9999 0 0 0 0
2019/08/08 20:05:00 BASE 2.74 104 4.01 110 -9.7 100 -9.7 3 0 982.2 NA 0.0000 9999 0 0 0 0
2019/08/08 20:06:00 BASE 2.56 98 4.01 110 -9.7 100 -9.7 3 0 982.2 NA 0.0000 9999 0 0 0 0
2019/08/08 20:07:00 BASE 2.67 96 4.01 110 -9.7 100 -9.7 3 0 982.2 NA 0.0000 9999 0 0 0 0
2019/08/08 20:08:00 BASE 2.88 99 4.01 110 -9.7 100 -9.7 3 0 982.2 NA 0.0000 9999 0 0 0 0
2019/08/08 20:09:00 BASE 3.01 102 4.01 110 -9.6 100 -9.6 3 0 982.2 NA 0.0000 9999 0 0 0 0
2019/08/08 20:10:00 BASE 2.88 94 3.91 109 -9.6 100 -9.6 3 0 982.2 NA 0.0000 9999 0 0 0 0
2019/08/08 20:11:00 BASE 2.72 83 3.45 107 -9.6 100 -9.6 3 0 982.2 NA 0.0000 9999 0 0 0 0
2019/08/08 20:12:00 BASE 2.81 79 3.24 104 -9.6 100 -9.6 2 0 982.2 NA 0.0000 9999 0 0 0 0
2019/08/08 20:13:00 BASE 3.10 77 3.34 77 -9.7 100 -9.7 2 0 982.1 NA 0.0000 9999 0 0 0 0
2019/08/08 20:14:00 BASE 3.16 78 3.34 77 -9.7 100 -9.7 2 0 982.1 NA 0.0000 9999 0 0 0 0
2019/08/08 20:15:00 BASE 3.08 77 3.60 71 -9.8 100 -9.8 2 0 982.1 NA 0.0000 9999 0 0 0 0
2019/08/08 20:16:00 BASE 3.42 76 3.96 75 -9.8 100 -9.8 2 0 982.1 NA 0.0000 9999 0 0 0 0
2019/08/08 20:17:00 BASE 3.77 77 3.96 75 -9.9 100 -9.9 2 0 982.1 NA 0.0000 9999 0 0 0 0
2019/08/08 20:18:00 BASE 3.65 75 3.96 75 -9.9 100 -9.9 2 0 982.1 NA 0.0000 9999 0 0 0 0
2019/08/08 20:19:00 BASE 3.53 72 3.96 75 -9.9 100 -9.9 2 0 982.0 NA 0.0000 9999 0 0 0 0
2019/08/08 20:20:00 BASE 3.34 69 3.96 75 -9.9 100 -9.9 2 0 982.0 NA 0.0000 9999 0 0 0 0
2019/08/08 20:21:00 BASE 3.04 64 3.96 75 -9.9 100 -9.9 2 0 982.0 NA 0.0000 9999 0 0 0 0
2019/08/08 20:22:00 BASE 2.95 60 3.96 75 -9.9 100 -9.9 1 0 982.1 NA 0.0000 9999 0 0 0 0
2019/08/08 20:23:00 BASE 2.75 58 3.96 75 -9.9 100 -9.9 1 0 982.1 NA 0.0000 9999 0 0 0 0
2019/08/08 20:24:00 BASE 2.30 56 3.96 75 -9.9 100 -9.9 1 0 982.0 NA 0.0000 9999 0 0 0 0
2019/08/08 20:25:00 BASE 1.88 57 3.96 75 -9.8 100 -9.8 1 0 982.0 NA 0.0000 9999 0 0 0 0
2019/08/08 20:26:00 BASE 1.49 60 3.91 75 -9.8 100 -9.8 1 0 982.0 NA 0.0000 9999 0 0 0 0
2019/08/08 20:27:00 BASE 1.35 53 3.81 73 -9.8 100 -9.8 1 0 982.0 NA 0.0000 9999 0 0 0 0
2019/08/08 20:28:00 BASE 1.54 50 3.81 73 -9.8 100 -9.8 1 0 982.0 NA 0.0000 9999 0 0 0 0
2019/08/08 20:29:00 BASE 1.90 58 3.65 73 -9.8 99 -9.9 1 0 982.0 NA 0.0000 9999 0 0 0 0
2019/08/08 20:30:00 BASE 2.08 58 3.24 63 -9.9 99 -10.0 1 0 982.0 NA 0.0000 9999 0 0 0 0
2019/08/08 20:31:00 BASE 2.05 58 3.09 52 -9.9 99 -10.1 1 0 982.0 NA 0.0000 9999 0 0 0 0
2019/08/08 20:32:00 BASE 2.28 61 3.09 57 -10.0 99 -10.1 1 0 981.9 NA 0.0000 9999 0 0 0 0
2019/08/08 20:33:00 BASE 2.73 59 3.09 51 -10.0 99 -10.2 1 0 982.0 NA 0.0000 9999 0 0 0 0
2019/08/08 20:34:00 BASE 2.96 54 3.14 53 -10.1 98 -10.3 1 0 982.0 NA 0.0000 9999 0 0 0 0
2019/08/08 20:35:00 BASE 2.61 48 3.14 53 -10.1 98 -10.3 1 0 982.0 NA 0.0000 9999 0 0 0 0
2019/08/08 20:36:00 BASE 2.09 47 3.14 53 -10.1 97 -10.4 0 0 982.0 NA 0.0000 9999 0 0 0 0
2019/08/08 20:37:00 BASE 1.52 47 3.14 53 -10.1 97 -10.5 0 0 981.9 NA 0.0000 9999 0 0 0 0
2019/08/08 20:38:00 BASE 0.60 35 3.14 53 -10.1 96 -10.5 0 0 981.8 NA 0.0000 9999 0 0 0 0
2019/08/08 20:39:00 BASE 0.13 34 3.14 53 -10.1 96 -10.6 0 0 981.8 NA 0.0000 9999 0 0 0 0
2019/08/08 20:40:00 BASE 0.61 49 3.14 53 -10.0 95 -10.7 0 0 981.8 NA 0.0000 9999 0 0 0 0
2019/08/08 20:41:00 BASE 1.24 63 3.14 53 -10.0 94 -10.8 0 0 981.8 NA 0.0000 9999 0 0 0 0
2019/08/08 20:42:00 BASE 1.40 61 3.14 53 -10.0 93 -10.9 0 0 981.8 NA 0.0000 9999 0 0 0 0
2019/08/08 20:43:00 BASE 1.45 51 3.14 53 -10.0 93 -11.0 0 0 981.8 NA 0.0000 9999 0 0 0 0
2019/08/08 20:44:00 BASE 1.32 42 2.57 47 -9.9 92 -11.0 0 0 981.8 NA 0.0000 9999 0 0 0 0
2019/08/08 20:45:00 BASE 1.08 40 2.21 52 -9.9 91 -11.1 0 0 981.8 NA 0.0000 9999 0 0 0 0
2019/08/08 20:46:00 BASE 1.11 34 1.90 59 -9.9 91 -11.1 0 0 981.8 NA 0.0000 9999 0 0 0 0
2019/08/08 20:47:00 BASE 1.21 30 1.75 70 -9.9 90 -11.2 0 0 981.8 NA 0.0000 9999 0 0 0 0
2019/08/08 20:48:00 BASE 1.47 29 1.90 28 -9.9 90 -11.3 0 0 981.9 NA 0.0000 9999 0 0 0 0
2019/08/08 20:49:00 BASE 1.84 16 2.21 17 -9.9 89 -11.3 0 0 981.9 NA 0.0000 9999 0 0 0 0
2019/08/08 20:50:00 BASE 1.82 6 2.21 17 -9.9 89 -11.4 0 0 981.8 NA 0.0000 9999 0 0 0 0
2019/08/08 20:51:00 BASE 1.69 2 2.21 17 -9.9 88 -11.5 0 0 981.8 NA 0.0000 9999 0 0 0 0
2019/08/08 20:52:00 BASE 1.82 357 2.21 17 -10.0 88 -11.7 0 0 981.8 NA 0.0000 9999 0 0 0 0
2019/08/08 20:53:00 BASE 1.84 358 2.21 17 -10.0 87 -11.8 0 0 981.8 NA 0.0000 9999 0 0 0 0
2019/08/08 20:54:00 BASE 1.84 2 2.21 17 -10.0 86 -11.8 0 0 981.8 NA 0.0000 9999 0 0 0 0
2019/08/08 20:55:00 BASE 2.00 1 2.57 360 -10.0 86 -12.0 0 0 981.8 NA 0.0000 9999 0 0 0 0
2019/08/08 20:56:00 BASE 2.41 8 3.04 17 -10.0 85 -12.0 0 0 981.7 NA 0.0000 9999 0 0 0 0
2019/08/08 20:57:00 BASE 2.87 19 3.70 35 -9.9 85 -12.1 0 0 981.7 NA 0.0000 9999 0 0 0 0
2019/08/08 20:58:00 BASE 3.41 28 4.01 38 -9.9 84 -12.1 0 0 981.7 NA 0.0000 9999 0 0 0 0
2019/08/08 20:59:00 BASE 3.37 35 4.01 38 -10.0 83 -12.3 0 0 981.7 NA 0.0000 9999 0 0 0 0
2019/08/08 21:00:00 BASE 2.93 39 4.01 38 -10.0 83 -12.3 0 0 981.7 NA 0.0000 9999 0 0 0 0
2019/08/08 21:01:00 BASE 2.79 41 4.01 38 -10.0 82 -12.5 0 0 981.6 NA 0.0000 9999 0 0 0 0
2019/08/08 21:02:00 BASE 2.62 51 4.01 38 -10.1 82 -12.6 0 0 981.6 NA 0.0000 9999 0 0 0 0
2019/08/08 21:03:00 BASE 2.70 57 4.01 38 -10.1 81 -12.7 0 0 981.6 NA 0.0000 9999 0 0 0 0
2019/08/08 21:04:00 BASE 2.91 53 4.01 38 -10.0 81 -12.7 0 0 981.6 NA 0.0000 9999 0 0 0 0
2019/08/08 21:05:00 BASE 3.25 54 4.01 38 -10.0 80 -12.8 0 0 981.6 NA 0.0000 9999 0 0 0 0
2019/08/08 21:06:00 BASE 3.59 55 4.01 38 -10.0 80 -12.8 0 0 981.5 NA 0.0000 9999 0 0 0 0
2019/08/08 21:07:00 BASE 3.62 57 4.01 38 -9.9 80 -12.8 0 0 981.5 NA 0.0000 9999 0 0 0 0
2019/08/08 21:08:00 BASE 3.55 61 3.86 56 -9.9 79 -12.8 0 0 981.4 NA 0.0000 9999 0 0 0 0
2019/08/08 21:09:00 BASE 3.64 64 3.91 63 -9.9 79 -12.8 0 0 981.4 NA 0.0000 9999 0 0 0 0
2019/08/08 21:10:00 BASE 4.04 63 4.68 57 -9.8 78 -12.9 0 0 981.4 NA 0.0000 9999 0 0 0 0
2019/08/08 21:11:00 BASE 4.48 59 5.09 57 -9.8 78 -12.9 0 0 981.4 NA 0.0000 9999 0 0 0 0
2019/08/08 21:12:00 BASE 4.53 54 5.09 57 -9.8 78 -12.9 0 0 981.4 NA 0.0000 9999 0 0 0 0
2019/08/08 21:13:00 BASE 4.36 52 5.09 57 -9.8 78 -12.9 0 0 981.4 NA 0.0000 9999 0 0 0 0
2019/08/08 21:14:00 BASE 4.28 45 5.09 57 -9.8 78 -12.9 0 0 981.4 NA 0.0000 9999 0 0 0 0
2019/08/08 21:15:00 BASE 4.86 37 6.48 34 -9.8 78 -12.9 0 0 981.4 NA 0.0000 9999 0 0 0 0
2019/08/08 21:16:00 BASE 5.55 29 6.48 34 -9.9 78 -12.9 0 0 981.4 NA 0.0000 9999 0 0 0 0
2019/08/08 21:17:00 BASE 5.03 17 6.48 34 -9.9 79 -13.0 0 0 981.4 NA 0.0000 9999 0 0 0 0
2019/08/08 21:18:00 BASE 4.05 3 6.48 34 -10.0 79 -12.9 0 0 981.4 NA 0.0000 9999 0 0 0 0
2019/08/08 21:19:00 BASE 3.28 357 6.48 34 -9.9 80 -12.8 0 0 981.4 NA 0.0000 9999 0 0 0 0
2019/08/08 21:20:01 BASE 2.94 353 6.48 34 -9.9 80 -12.6 0 0 981.4 NA 0.0000 9999 0 0 0 0
2019/08/08 21:21:00 BASE 3.20 355 6.48 34 -9.8 81 -12.5 0 0 981.4 NA 0.0000 9999 0 0 0 0
2019/08/08 21:22:00 BASE 3.49 358 6.48 34 -9.7 81 -12.2 0 0 981.4 NA 0.0000 9999 0 0 0 0
2019/08/08 21:23:00 BASE 3.55 349 6.48 34 -9.6 82 -12.1 0 0 981.5 NA 0.0000 9999 0 0 0 0
2019/08/08 21:24:00 BASE 3.35 347 6.48 34 -9.5 82 -12.0 0 0 981.5 NA 0.0000 9999 0 0 0 0
2019/08/08 21:25:00 BASE 3.23 345 6.17 31 -9.5 82 -12.0 0 0 981.5 NA 0.0000 9999 0 0 0 0
2019/08/08 21:26:00 BASE 3.22 340 4.89 9 -9.4 82 -11.9 0 0 981.5 NA 0.0000 9999 0 0 0 0
2019/08/08 21:27:00 BASE 3.33 335 4.22 346 -9.4 82 -11.9 0 0 981.5 NA 0.0000 9999 0 0 0 0
2019/08/08 21:28:00 BASE 3.42 331 4.22 346 -9.4 82 -11.9 0 0 981.5 NA 0.0000 9999 0 0 0 0
2019/08/08 21:29:00 BASE 3.40 331 4.22 346 -9.4 82 -11.9 0 0 981.5 NA 0.0000 9999 0 0 0 0
2019/08/08 21:30:00 BASE 3.40 331 4.22 346 -9.4 82 -11.9 0 0 981.4 NA 0.0000 9999 0 0 0 0
2019/08/08 21:31:00 BASE 3.49 334 4.22 346 -9.5 82 -12.0 0 0 981.4 NA 0.0000 9999 0 0 0 0
2019/08/08 21:32:00 BASE 3.65 340 4.27 348 -9.5 82 -12.0 0 0 981.4 NA 0.0000 9999 0 0 0 0
2019/08/08 21:33:00 BASE 3.91 345 4.37 348 -9.4 82 -11.9 0 0 981.4 NA 0.0000 9999 0 0 0 0
2019/08/08 21:34:00 BASE 4.15 344 4.58 343 -9.4 82 -11.9 0 0 981.3 NA 0.0000 9999 0 0 0 0
2019/08/08 21:35:01 BASE 4.65 338 5.97 336 -9.4 82 -11.8 0 0 981.2 NA 0.0000 9999 0 0 0 0
2019/08/08 21:36:00 BASE 5.51 341 6.43 347 -9.3 82 -11.8 0 0 981.2 NA 0.0000 9999 0 0 0 0
2019/08/08 21:37:00 BASE 6.00 344 6.43 347 -9.3 82 -11.8 0 0 981.2 NA 0.0000 9999 0 0 0 0
2019/08/08 21:38:00 BASE 6.15 342 6.64 345 -9.4 82 -11.8 0 0 981.2 NA 0.0000 9999 0 0 0 0
2019/08/08 21:39:00 BASE 6.26 343 6.69 346 -9.4 82 -11.8 0 0 981.2 NA 0.0000 9999 0 0 0 0
2019/08/08 21:40:00 BASE 5.93 346 6.69 346 -9.4 82 -11.8 0 0 981.2 NA 0.0000 9999 0 0 0 0
2019/08/08 21:41:00 BASE 5.68 347 6.69 346 -9.3 83 -11.8 0 0 981.2 NA 0.0000 9999 0 0 0 0
2019/08/08 21:42:00 BASE 5.79 351 6.69 346 -9.3 83 -11.7 0 0 981.2 NA 0.0000 9999 0 0 0 0
2019/08/08 21:43:00 BASE 5.23 359 6.69 346 -9.3 83 -11.6 0 0 981.2 NA 0.0000 9999 0 0 0 0
2019/08/08 21:44:00 BASE 4.42 5 6.69 346 -9.3 83 -11.6 0 0 981.2 NA 0.0000 9999 0 0 0 0
2019/08/08 21:45:00 BASE 3.55 9 6.69 346 -9.3 84 -11.6 0 0 981.2 NA 0.0000 9999 0 0 0 0
2019/08/08 21:46:00 BASE 2.46 13 6.69 346 -9.4 84 -11.6 0 0 981.2 NA 0.0000 9999 0 0 0 0
2019/08/08 21:47:00 BASE 2.11 12 6.69 346 -9.4 84 -11.6 0 0 981.2 NA 0.0000 9999 0 0 0 0
2019/08/08 21:48:00 BASE 1.56 21 6.69 346 -9.5 85 -11.6 0 0 981.2 NA 0.0000 9999 0 0 0 0
2019/08/08 21:49:00 BASE 1.19 29 6.17 350 -9.6 85 -11.6 0 0 981.1 NA 0.0000 9999 0 0 0 0
2019/08/08 21:50:00 BASE 1.24 34 6.17 350 -9.6 85 -11.6 0 0 981.0 NA 0.0000 9999 0 0 0 0
2019/08/08 21:51:00 BASE 1.57 28 6.17 350 -9.6 86 -11.5 0 0 981.0 NA 0.0000 9999 0 0 0 0
2019/08/08 21:52:00 BASE 2.38 13 5.50 1 -9.5 86 -11.5 0 0 981.0 NA 0.0000 9999 0 0 0 0
2019/08/08 21:53:00 BASE 2.81 0 4.68 6 -9.4 86 -11.4 0 0 981.0 NA 0.0000 9999 0 0 0 0
2019/08/08 21:54:00 BASE 3.13 355 3.81 346 -9.4 86 -11.3 0 0 981.0 NA 0.0000 9999 0 0 0 0
2019/08/08 21:55:00 BASE 3.39 356 4.01 7 -9.3 86 -11.2 0 0 981.0 NA 0.0000 9999 0 0 0 0
2019/08/08 21:56:00 BASE 3.41 352 4.01 7 -9.2 86 -11.1 0 0 981.0 NA 0.0000 9999 0 0 0 0
2019/08/08 21:57:00 BASE 2.78 349 4.01 7 -9.2 86 -11.1 0 0 981.0 NA 0.0000 9999 0 0 0 0
2019/08/08 21:58:00 BASE 2.19 1 4.01 7 -9.1 86 -11.0 0 0 981.0 NA 0.0000 9999 0 0 0 0
2019/08/08 21:59:00 BASE 1.65 18 4.01 7 -9.1 86 -11.0 0 0 981.0 NA 0.0000 9999 0 0 0 0
2019/08/08 22:00:00 BASE 1.31 45 4.01 7 -9.1 86 -11.0 0 0 981.0 NA 0.0000 9999 0 0 0 0
2019/08/08 22:01:00 BASE 1.18 64 4.01 7 -9.1 86 -11.0 0 0 981.0 NA 0.0000 9999 0 0 0 0
2019/08/08 22:02:00 BASE 0.71 80 4.01 7 -9.1 85 -11.2 0 0 980.9 NA 0.0000 9999 0 0 0 0
2019/08/08 22:03:00 BASE 0.21 95 4.01 7 -9.2 85 -11.3 0 0 981.0 NA 0.0000 9999 0 0 0 0
2019/08/08 22:04:00 BASE 0.00 98 4.01 7 -9.2 84 -11.4 0 0 981.0 NA 0.0000 9999 0 0 0 0
2019/08/08 22:05:00 BASE 0.00 132 3.81 338 -9.2 84 -11.4 0 0 980.9 NA 0.0000 9999 0 0 0 0
2019/08/08 22:06:00 BASE 0.00 179 2.78 346 -9.2 84 -11.4 0 0 980.9 NA 0.0000 9999 0 0 0 0
2019/08/08 22:07:00 BASE 0.00 224 2.42 3 -9.1 83 -11.4 0 0 980.9 NA 0.0000 9999 0 0 0 0
2019/08/08 22:08:00 BASE 0.00 274 1.80 17 -9.0 83 -11.4 0 0 980.9 NA 0.0000 9999 0 0 0 0
2019/08/08 22:09:00 BASE 0.00 286 1.65 76 -9.0 82 -11.5 0 0 980.9 NA 0.0000 9999 0 0 0 0
2019/08/08 22:10:00 BASE 0.00 286 1.65 76 -9.0 82 -11.5 0 0 980.8 NA 0.0000 9999 0 0 0 0
2019/08/08 22:11:00 BASE 0.00 284 1.39 97 -9.0 81 -11.6 0 0 980.8 NA 0.0000 9999 0 0 0 0
2019/08/08 22:12:00 BASE 0.00 239 M M -9.1 81 -11.7 0 0 980.8 NA 0.0000 9999 0 0 0 0
2019/08/08 22:13:00 BASE 0.00 157 M M -9.2 81 -11.9 0 0 980.8 NA 0.0000 9999 0 0 0 0
2019/08/08 22:14:00 BASE 0.00 150 M M -9.2 80 -12.0 0 0 980.8 NA 0.0000 9999 0 0 0 0
2019/08/08 22:15:00 BASE 0.00 154 M M -9.3 80 -12.1 0 0 980.8 NA 0.0000 9999 0 0 0 0
2019/08/08 22:16:00 BASE 0.09 151 1.03 145 -9.4 80 -12.2 0 0 980.8 NA 0.0000 9999 0 0 0 0
2019/08/08 22:17:00 BASE 0.17 148 1.08 127 -9.4 80 -12.3 0 0 980.8 NA 0.0000 9999 0 0 0 0
2019/08/08 22:18:00 BASE 0.66 133 1.34 116 -9.4 80 -12.2 0 0 980.8 NA 0.0000 9999 0 0 0 0
2019/08/08 22:19:00 BASE 0.62 122 1.34 116 -9.4 80 -12.2 0 0 980.8 NA 0.0000 9999 0 0 0 0
2019/08/08 22:20:00 BASE 0.56 126 2.31 126 -9.3 80 -12.2 0 0 980.8 NA 0.0000 9999 0 0 0 0
2019/08/08 22:21:00 BASE 1.44 131 2.31 126 -9.2 80 -12.0 0 0 980.8 NA 0.0000 9999 0 0 0 0
2019/08/08 22:22:00 BASE 1.77 135 2.52 138 -9.2 80 -11.9 0 0 980.7 NA 0.0000 9999 0 0 0 0
2019/08/08 22:23:00 BASE 1.45 138 2.52 138 -9.1 80 -11.9 0 0 980.8 NA 0.0000 9999 0 0 0 0
2019/08/08 22:24:00 BASE 1.34 134 2.52 138 -9.1 81 -11.9 0 0 980.8 NA 0.0000 9999 0 0 0 0
2019/08/08 22:25:00 BASE 1.79 126 2.62 127 -9.2 81 -11.9 0 0 980.8 NA 0.0000 9999 0 0 0 0
2019/08/08 22:26:00 BASE 2.01 123 2.62 127 -9.3 81 -11.9 0 0 980.8 NA 0.0000 9999 0 0 0 0
2019/08/08 22:27:00 BASE 1.41 116 2.62 127 -9.3 82 -11.9 0 0 980.8 NA 0.0000 9999 0 0 0 0
2019/08/08 22:28:00 BASE 0.66 96 2.62 127 -9.3 82 -11.8 0 0 980.8 NA 0.0000 9999 0 0 0 0
2019/08/08 22:29:00 BASE 0.80 85 2.62 127 -9.2 82 -11.6 0 0 980.8 NA 0.0000 9999 0 0 0 0
2019/08/08 22:30:00 BASE 1.11 87 2.62 127 -9.1 83 -11.5 0 0 980.8 NA 0.0000 9999 0 0 0 0
2019/08/08 22:31:00 BASE 1.72 86 2.68 80 -9.2 83 -11.5 0 0 980.7 NA 0.0000 9999 0 0 0 0
2019/08/08 22:32:00 BASE 2.39 89 2.78 105 -9.3 83 -11.7 0 0 980.7 NA 0.0000 9999 0 0 0 0
2019/08/08 22:33:00 BASE 2.10 104 2.78 105 -9.3 82 -11.8 0 0 980.7 NA 0.0000 9999 0 0 0 0
2019/08/08 22:34:00 BASE 1.34 111 2.78 105 -9.4 82 -11.9 0 0 980.7 NA 0.0000 9999 0 0 0 0
2019/08/08 22:35:00 BASE 0.59 117 2.78 105 -9.4 81 -12.0 0 0 980.7 NA 0.0000 9999 0 0 0 0
2019/08/08 22:36:00 BASE 0.84 132 2.78 105 -9.4 81 -12.0 0 0 980.7 NA 0.0000 9999 0 0 0 0
2019/08/08 22:37:00 BASE 1.43 139 2.78 105 -9.4 81 -12.0 0 0 980.7 NA 0.0000 9999 0 0 0 0
2019/08/08 22:38:00 BASE 1.28 151 2.78 105 -9.4 81 -12.1 0 0 980.7 NA 0.0000 9999 0 0 0 0
2019/08/08 22:39:00 BASE 1.17 148 2.78 105 -9.5 81 -12.2 0 0 980.6 NA 0.0000 9999 0 0 0 0
2019/08/08 22:40:00 BASE 1.65 131 2.78 105 -9.6 81 -12.3 0 0 980.6 NA 0.0000 9999 0 0 0 0
2019/08/08 22:41:00 BASE 1.99 129 2.78 105 -9.7 81 -12.3 0 0 980.6 NA 0.0000 9999 0 0 0 0
2019/08/08 22:42:00 BASE 2.07 135 2.52 96 -9.8 81 -12.4 0 0 980.6 NA 0.0000 9999 0 0 0 0
2019/08/08 22:43:00 BASE 2.34 140 2.68 146 -9.9 82 -12.4 0 0 980.5 NA 0.0000 9999 0 0 0 0
2019/08/08 22:44:00 BASE 2.34 142 2.68 146 -9.8 82 -12.3 0 0 980.5 NA 0.0000 9999 0 0 0 0
2019/08/08 22:45:00 BASE 2.03 139 2.68 146 -9.8 83 -12.1 0 0 980.6 NA 0.0000 9999 0 0 0 0
2019/08/08 22:46:00 BASE 1.71 133 2.68 146 -9.7 83 -12.0 0 0 980.6 NA 0.0000 9999 0 0 0 0
2019/08/08 22:47:00 BASE 0.91 130 2.68 146 -9.5 84 -11.7 0 0 980.6 NA 0.0000 9999 0 0 0 0
2019/08/08 22:48:00 BASE 0.13 129 2.68 146 -9.4 84 -11.5 0 0 980.6 NA 0.0000 9999 0 0 0 0
2019/08/08 22:49:00 BASE 0.00 126 2.68 146 -9.2 85 -11.3 0 0 980.6 NA 0.0000 9999 0 0 0 0
2019/08/08 22:50:00 BASE 0.00 123 2.68 146 -9.0 85 -11.1 0 0 980.6 NA 0.0000 9999 0 0 0 0
2019/08/08 22:51:00 BASE 0.00 123 2.68 146 -8.9 85 -11.0 0 0 980.6 NA 0.0000 9999 0 0 0 0
2019/08/08 22:52:00 BASE 0.00 121 2.68 146 -8.8 85 -10.8 0 0 980.6 NA 0.0000 9999 0 0 0 0
2019/08/08 22:53:00 BASE 0.00 121 2.52 145 -8.7 85 -10.7 0 0 980.5 NA 0.0000 9999 0 0 0 0
2019/08/08 22:54:00 BASE 0.00 114 2.01 137 -8.6 85 -10.7 0 0 980.4 NA 0.0000 9999 0 0 0 0
2019/08/08 22:55:00 BASE 0.72 82 2.01 61 -8.7 85 -10.7 0 0 980.4 NA 0.0000 9999 0 0 0 0
2019/08/08 22:56:00 BASE 1.82 56 2.37 52 -8.7 85 -10.8 0 0 980.4 NA 0.0000 9999 0 0 0 0
2019/08/08 22:57:00 BASE 2.45 51 2.98 42 -8.8 85 -10.9 0 0 980.5 NA 0.0000 9999 0 0 0 0
2019/08/08 22:58:00 BASE 2.83 41 3.45 48 -8.9 85 -11.0 0 0 980.6 NA 0.0000 9999 0 0 0 0
2019/08/08 22:59:00 BASE 2.95 30 3.50 27 -9.0 84 -11.1 0 0 980.6 NA 0.0000 9999 0 0 0 0
2019/08/08 23:00:00 BASE 2.98 26 3.50 27 -9.1 84 -11.3 0 0 980.6 NA 0.0000 9999 0 0 0 0
2019/08/08 23:01:00 BASE 2.66 21 3.50 27 -9.2 83 -11.5 0 0 980.6 NA 0.0000 9999 0 0 0 0
2019/08/08 23:02:00 BASE 2.11 16 3.50 27 -9.3 82 -11.7 0 0 980.5 NA 0.0000 9999 0 0 0 0
2019/08/08 23:03:00 BASE 1.83 17 3.50 27 -9.4 82 -11.9 0 0 980.4 NA 0.0000 9999 0 0 0 0
2019/08/08 23:04:00 BASE 1.75 18 3.50 27 -9.4 81 -12.1 0 0 980.4 NA 0.0000 9999 0 0 0 0
2019/08/08 23:05:00 BASE 1.62 16 3.50 27 -9.4 81 -12.1 0 0 980.4 NA 0.0000 9999 0 0 0 0
2019/08/08 23:06:00 BASE 1.34 17 3.50 27 -9.4 80 -12.2 0 0 980.4 NA 0.0000 9999 0 0 0 0
2019/08/08 23:07:00 BASE 1.12 21 3.50 27 -9.4 80 -12.3 0 0 980.4 NA 0.0000 9999 0 0 0 0
2019/08/08 23:08:00 BASE 1.08 27 3.50 27 -9.4 79 -12.4 0 0 980.4 NA 0.0000 9999 0 0 0 0
2019/08/08 23:09:00 BASE 1.18 34 3.40 33 -9.3 78 -12.4 0 0 980.5 NA 0.0000 9999 0 0 0 0
2019/08/08 23:10:00 BASE 1.26 42 2.52 17 -9.3 77 -12.5 0 0 980.5 NA 0.0000 9999 0 0 0 0
2019/08/08 23:11:00 BASE 1.45 46 2.11 19 -9.2 76 -12.7 0 0 980.6 NA 0.0000 9999 0 0 0 0
2019/08/08 23:12:00 BASE 1.78 45 2.37 39 -9.2 75 -12.8 0 0 980.5 NA 0.0000 9999 0 0 0 0
2019/08/08 23:13:00 BASE 2.21 40 2.62 38 -9.1 73 -13.1 0 0 980.5 NA 0.0000 9999 0 0 0 0
2019/08/08 23:14:00 BASE 2.40 37 2.62 38 -9.1 71 -13.4 0 0 980.4 NA 0.0000 9999 0 0 0 0
2019/08/08 23:15:00 BASE 2.12 37 2.62 38 -9.1 70 -13.7 0 0 980.4 NA 0.0000 9999 0 0 0 0
2019/08/08 23:16:00 BASE 1.21 42 2.62 38 -9.2 69 -13.8 0 0 980.4 NA 0.0000 9999 0 0 0 0
2019/08/08 23:17:00 BASE 0.27 53 2.62 38 -9.2 68 -14.0 0 0 980.4 NA 0.0000 9999 0 0 0 0
2019/08/08 23:18:00 BASE 0.38 61 2.62 38 -9.2 68 -14.1 0 0 980.4 NA 0.0000 9999 0 0 0 0
2019/08/08 23:19:00 BASE 1.15 58 2.62 38 -9.1 67 -14.1 0 0 980.4 NA 0.0000 9999 0 0 0 0
2019/08/08 23:20:00 BASE 1.81 49 2.62 38 -9.1 67 -14.0 0 0 980.4 NA 0.0000 9999 0 0 0 0
2019/08/08 23:21:00 BASE 2.10 47 2.62 38 -9.0 67 -14.1 0 0 980.5 NA 0.0000 9999 0 0 0 0
2019/08/08 23:22:00 BASE 2.28 45 2.62 38 -9.0 67 -14.1 0 0 980.6 NA 0.0000 9999 0 0 0 0
2019/08/08 23:23:00 BASE 2.51 44 2.68 45 -9.0 66 -14.1 0 0 980.6 NA 0.0000 9999 0 0 0 0
2019/08/08 23:24:00 BASE 2.56 44 2.68 45 -9.0 66 -14.2 0 0 980.5 NA 0.0000 9999 0 0 0 0
2019/08/08 23:25:00 BASE 2.62 47 2.98 53 -9.0 66 -14.2 0 0 980.4 NA 0.0000 9999 0 0 0 0
2019/08/08 23:26:00 BASE 2.85 51 3.19 52 -9.0 66 -14.2 0 0 980.4 NA 0.0000 9999 0 0 0 0
2019/08/08 23:27:00 BASE 3.11 52 3.29 52 -9.1 67 -14.1 0 0 980.4 NA 0.0000 9999 0 0 0 0
2019/08/08 23:28:00 BASE 3.27 52 3.40 52 -9.1 67 -14.2 0 0 980.4 NA 0.0000 9999 0 0 0 0
2019/08/08 23:29:00 BASE 3.41 49 3.55 45 -9.1 67 -14.2 0 0 980.4 NA 0.0000 9999 0 0 0 0
2019/08/08 23:30:00 BASE 3.48 45 3.55 43 -9.2 66 -14.3 0 0 980.4 NA 0.0000 9999 0 0 0 0
2019/08/08 23:31:00 BASE 3.38 43 3.55 43 -9.2 66 -14.4 0 0 980.4 NA 0.0000 9999 0 0 0 0
2019/08/08 23:32:00 BASE 3.13 43 3.55 43 -9.3 66 -14.4 0 0 980.5 NA 0.0000 9999 0 0 0 0
2019/08/08 23:33:00 BASE 3.01 41 3.55 43 -9.3 66 -14.4 0 0 980.5 NA 0.0000 9999 0 0 0 0
2019/08/08 23:34:00 BASE 3.04 39 3.55 43 -9.3 67 -14.4 0 0 980.4 NA 0.0000 9999 0 0 0 0
2019/08/08 23:35:00 BASE 3.08 36 3.55 43 -9.4 67 -14.4 0 0 980.4 NA 0.0000 9999 0 0 0 0
2019/08/08 23:36:00 BASE 3.17 33 3.55 43 -9.4 67 -14.4 0 0 980.4 NA 0.0000 9999 0 0 0 0
2019/08/08 23:37:00 BASE 3.23 32 3.55 43 -9.4 67 -14.4 0 0 980.4 NA 0.0000 9999 0 0 0 0
2019/08/08 23:38:00 BASE 3.10 29 3.55 43 -9.4 67 -14.4 0 0 980.4 NA 0.0000 9999 0 0 0 0
2019/08/08 23:39:00 BASE 2.96 27 3.55 43 -9.4 67 -14.4 0 0 980.4 NA 0.0000 9999 0 0 0 0
2019/08/08 23:40:00 BASE 3.04 22 3.50 44 -9.5 67 -14.4 0 0 980.5 NA 0.0000 9999 0 0 0 0
2019/08/08 23:41:00 BASE 3.23 16 3.55 12 -9.5 67 -14.4 0 0 980.6 NA 0.0000 9999 0 0 0 0
2019/08/08 23:42:00 BASE 3.30 17 3.55 12 -9.5 68 -14.4 0 0 980.6 NA 0.0000 9999 0 0 0 0
2019/08/08 23:43:00 BASE 3.20 21 3.55 12 -9.5 68 -14.2 0 0 980.6 NA 0.0000 9999 0 0 0 0
2019/08/08 23:44:00 BASE 3.05 24 3.55 12 -9.4 69 -14.1 0 0 980.5 NA 0.0000 9999 0 0 0 0
2019/08/08 23:45:00 BASE 3.08 26 3.55 12 -9.4 70 -14.0 0 0 980.4 NA 0.0000 9999 0 0 0 0
2019/08/08 23:46:00 BASE 3.20 28 3.55 12 -9.4 70 -13.8 0 0 980.4 NA 0.0000 9999 0 0 0 0
2019/08/08 23:47:00 BASE 3.32 34 3.76 42 -9.4 71 -13.8 0 0 980.4 NA 0.0000 9999 0 0 0 0
2019/08/08 23:48:00 BASE 3.52 39 3.91 40 -9.5 71 -13.8 0 0 980.4 NA 0.0000 9999 0 0 0 0
2019/08/08 23:49:00 BASE 3.86 39 4.32 38 -9.5 71 -13.8 0 0 980.4 NA 0.0000 9999 0 0 0 0
2019/08/08 23:50:00 BASE 4.23 40 4.73 36 -9.6 71 -13.8 0 0 980.4 NA 0.0000 9999 0 0 0 0
2019/08/08 23:51:00 BASE 4.50 37 4.89 33 -9.6 71 -13.9 0 0 980.4 NA 0.0000 9999 0 0 0 0
2019/08/08 23:52:00 BASE 4.69 35 5.40 32 -9.6 71 -13.9 0 0 980.4 NA 0.0000 9999 0 0 0 0
2019/08/08 23:53:00 BASE 4.68 36 5.40 32 -9.6 71 -13.9 0 0 980.4 NA 0.0000 9999 0 0 0 0
2019/08/08 23:54:00 BASE 4.69 40 5.40 32 -9.6 71 -13.9 0 0 980.4 NA 0.0000 9999 0 0 0 0
2019/08/08 23:55:01 BASE 4.75 44 5.40 32 -9.6 71 -13.8 0 0 980.4 NA 0.0000 9999 0 0 0 0
2019/08/08 23:56:00 BASE 4.63 46 5.40 32 -9.5 71 -13.8 0 0 980.4 NA 0.0000 9999 0 0 0 0
2019/08/08 23:57:00 BASE 4.72 44 5.45 45 -9.5 71 -13.8 0 0 980.3 NA 0.0000 9999 0 0 0 0
2019/08/08 23:58:00 BASE 5.00 41 5.56 37 -9.5 71 -13.8 0 0 980.3 NA 0.0000 9999 0 0 0 0
2019/08/08 23:59:00 BASE 4.73 43 5.56 37 -9.5 71 -13.8 0 0 980.3 NA 0.0000 9999 0 0 0 0